[[{"header":{"parameterUnit":"m.s-1","parameterCategory":1,"la1":30.6,"la2":29.2853,"lo1":-89.7004,"lo2":-87.6739,"dy":0.0162,"dx":0.0183,"nx":112,"ny":82,"refTime":"2023-11-16T06:00:00:Z","depth":0,"parameterNumber":2,"parameterNumberName":"U-component_of_WINDS"},"data":[0.0,0.0,0.0,0.0,0.0,0.0,0.0,0.0,0.0,0.0,0.0,0.0,0.0,0.0,0.0,0.0,0.0,0.0,0.0,0.0,0.0,0.0,0.0,0.0,0.0,0.0,0.0,0.0,0.0,0.0,0.0,0.0,0.0,0.0,0.0,0.0,0.0,0.0,0.0,0.0,0.0,0.0,0.0,0.0,0.0,0.0,0.0,0.0,0.0,0.0,0.0,0.0,0.0,0.0,0.0,0.0,0.0,0.0,0.0,0.0,0.0,0.0,0.0,0.0,0.0,0.0,0.0,0.0,0.0,0.0,0.0,0.0,0.0,0.0,0.0,0.0,0.0,0.0,0.0,0.0,0.0,0.0,0.0,0.0,0.0,0.0,0.0,0.0,0.0,0.0,4.7171,5.1976,5.5029,5.6343,5.5329,5.1277,4.8081,4.6485,0.0,0.0,0.0,0.0,0.0,0.0,0.0,0.0,0.0,0.0,0.0,0.0,0.0,0.0,0.0,0.0,0.0,0.0,0.0,0.0,0.0,0.0,0.0,0.0,0.0,0.0,0.0,0.0,0.0,0.0,0.0,0.0,0.0,0.0,0.0,0.0,0.0,0.0,0.0,0.0,0.0,0.0,0.0,0.0,0.0,0.0,0.0,0.0,0.0,0.0,0.0,0.0,0.0,0.0,0.0,0.0,0.0,0.0,0.0,0.0,0.0,0.0,0.0,0.0,0.0,0.0,0.0,0.0,0.0,0.0,0.0,0.0,0.0,0.0,0.0,0.0,0.0,0.0,0.0,0.0,0.0,0.0,0.0,0.0,0.0,0.0,0.0,0.0,0.0,0.0,0.0,0.0,0.0,0.0,0.0,0.0,0.0,0.0,0.0,0.0,0.0,0.0,0.0,0.0,4.7879,5.2057,5.2486,5.2279,5.1895,4.7741,4.4947,4.4473,0.0,0.0,0.0,0.0,0.0,0.0,0.0,0.0,0.0,0.0,0.0,0.0,0.0,0.0,0.0,0.0,0.0,0.0,0.0,0.0,0.0,0.0,0.0,0.0,0.0,0.0,0.0,0.0,0.0,0.0,0.0,0.0,0.0,0.0,0.0,0.0,0.0,0.0,0.0,0.0,0.0,0.0,0.0,0.0,0.0,0.0,0.0,0.0,0.0,0.0,0.0,0.0,0.0,0.0,0.0,0.0,0.0,0.0,0.0,0.0,0.0,0.0,0.0,0.0,0.0,0.0,0.0,0.0,0.0,0.0,0.0,0.0,0.0,0.0,0.0,0.0,0.0,0.0,0.0,0.0,0.0,0.0,0.0,0.0,0.0,0.0,0.0,0.0,0.0,0.0,0.0,0.0,0.0,0.0,0.0,0.0,0.0,0.0,0.0,0.0,0.0,0.0,0.0,4.8676,5.0202,5.3107,5.2562,5.1817,5.1444,4.7299,4.4778,4.4934,4.1871,0.0,0.0,0.0,0.0,0.0,0.0,0.0,0.0,0.0,0.0,0.0,0.0,0.0,0.0,0.0,0.0,0.0,0.0,0.0,0.0,0.0,0.0,0.0,0.0,0.0,0.0,0.0,0.0,0.0,0.0,0.0,0.0,0.0,0.0,0.0,0.0,0.0,0.0,0.0,0.0,0.0,0.0,0.0,0.0,0.0,0.0,0.0,0.0,0.0,0.0,0.0,0.0,0.0,0.0,0.0,0.0,0.0,0.0,0.0,0.0,0.0,0.0,0.0,0.0,0.0,0.0,0.0,0.0,0.0,0.0,0.0,0.0,0.0,0.0,0.0,0.0,0.0,0.0,0.0,0.0,0.0,0.0,0.0,0.0,0.0,0.0,0.0,0.0,0.0,0.0,0.0,0.0,0.0,0.0,0.0,0.0,0.0,0.0,0.0,0.0,0.0,0.0,5.0225,5.1589,5.269,5.1955,5.1164,5.0482,4.7133,4.5042,4.4952,4.1641,0.0,0.0,0.0,0.0,0.0,0.0,0.0,0.0,0.0,0.0,0.0,0.0,0.0,0.0,0.0,0.0,0.0,0.0,0.0,0.0,0.0,0.0,0.0,0.0,0.0,0.0,0.0,0.0,0.0,0.0,0.0,0.0,0.0,0.0,0.0,0.0,0.0,0.0,0.0,0.0,0.0,0.0,0.0,0.0,0.0,0.0,0.0,0.0,0.0,0.0,0.0,0.0,0.0,0.0,0.0,0.0,0.0,0.0,0.0,0.0,0.0,0.0,0.0,0.0,0.0,0.0,0.0,0.0,0.0,0.0,0.0,0.0,0.0,0.0,0.0,0.0,0.0,0.0,0.0,0.0,0.0,0.0,0.0,0.0,0.0,0.0,0.0,0.0,0.0,0.0,0.0,0.0,0.0,0.0,0.0,0.0,0.0,0.0,0.0,0.0,0.0,0.0,4.93,5.0362,4.8792,4.8567,4.8024,4.6787,4.5881,4.462,4.2933,4.1615,0.0,0.0,0.0,0.0,0.0,0.0,0.0,0.0,0.0,0.0,0.0,0.0,0.0,0.0,0.0,0.0,0.0,0.0,0.0,0.0,0.0,0.0,0.0,0.0,0.0,0.0,0.0,0.0,0.0,0.0,0.0,0.0,0.0,0.0,0.0,0.0,0.0,0.0,0.0,0.0,0.0,0.0,0.0,0.0,0.0,0.0,0.0,0.0,0.0,0.0,0.0,0.0,0.0,0.0,0.0,0.0,0.0,0.0,0.0,0.0,0.0,0.0,0.0,0.0,0.0,0.0,0.0,0.0,0.0,0.0,0.0,0.0,0.0,0.0,0.0,0.0,0.0,0.0,0.0,0.0,0.0,0.0,0.0,0.0,0.0,0.0,0.0,0.0,0.0,0.0,0.0,0.0,0.0,0.0,0.0,0.0,0.0,0.0,0.0,0.0,0.0,0.0,4.8685,4.9229,4.8299,4.8203,4.7578,4.6035,4.5227,4.412,4.2605,0.0,0.0,0.0,0.0,0.0,0.0,0.0,0.0,0.0,0.0,0.0,0.0,0.0,0.0,0.0,0.0,0.0,0.0,0.0,0.0,0.0,0.0,0.0,0.0,0.0,0.0,0.0,0.0,0.0,0.0,0.0,0.0,0.0,0.0,0.0,0.0,0.0,0.0,0.0,0.0,0.0,0.0,0.0,0.0,0.0,0.0,0.0,0.0,0.0,0.0,0.0,0.0,0.0,0.0,0.0,0.0,0.0,0.0,0.0,0.0,0.0,0.0,0.0,0.0,0.0,0.0,0.0,0.0,0.0,0.0,0.0,0.0,0.0,0.0,0.0,0.0,0.0,0.0,0.0,0.0,0.0,0.0,0.0,0.0,0.0,0.0,0.0,0.0,0.0,0.0,0.0,0.0,0.0,0.0,0.0,0.0,0.0,0.0,0.0,0.0,0.0,0.0,4.7544,4.8269,4.8553,4.8032,4.8008,4.7266,4.543,4.4552,4.3599,4.2467,0.0,0.0,0.0,0.0,0.0,0.0,0.0,0.0,0.0,0.0,0.0,0.0,0.0,0.0,0.0,0.0,0.0,0.0,0.0,0.0,0.0,0.0,0.0,0.0,0.0,0.0,0.0,0.0,0.0,0.0,0.0,0.0,0.0,0.0,0.0,0.0,0.0,0.0,0.0,0.0,0.0,0.0,0.0,0.0,0.0,0.0,0.0,0.0,0.0,0.0,0.0,0.0,0.0,0.0,0.0,0.0,0.0,0.0,0.0,0.0,0.0,0.0,0.0,0.0,0.0,0.0,0.0,0.0,0.0,0.0,0.0,0.0,0.0,0.0,0.0,0.0,0.0,0.0,0.0,0.0,0.0,0.0,0.0,0.0,0.0,0.0,0.0,0.0,0.0,0.0,0.0,0.0,0.0,0.0,0.0,0.0,0.0,0.0,0.0,0.0,0.0,0.0,4.7436,4.8124,4.8341,4.7665,4.7578,4.6719,4.457,4.382,4.3104,0.0,0.0,0.0,0.0,0.0,0.0,0.0,0.0,0.0,0.0,0.0,0.0,0.0,0.0,0.0,0.0,0.0,0.0,0.0,0.0,0.0,0.0,0.0,0.0,0.0,0.0,0.0,0.0,0.0,0.0,0.0,0.0,0.0,0.0,0.0,0.0,0.0,0.0,0.0,0.0,0.0,0.0,0.0,0.0,0.0,0.0,0.0,0.0,0.0,0.0,0.0,0.0,0.0,0.0,0.0,0.0,0.0,0.0,0.0,0.0,0.0,0.0,0.0,0.0,0.0,0.0,0.0,0.0,0.0,0.0,0.0,0.0,0.0,0.0,0.0,0.0,0.0,0.0,0.0,0.0,0.0,0.0,0.0,0.0,0.0,0.0,0.0,0.0,0.0,0.0,0.0,0.0,0.0,0.0,0.0,0.0,0.0,0.0,0.0,0.0,0.0,0.0,0.0,4.7897,4.7465,4.7145,4.755,4.7578,4.6582,4.4121,4.3154,4.2796,4.299,0.0,0.0,0.0,0.0,0.0,0.0,0.0,0.0,0.0,0.0,0.0,0.0,0.0,0.0,0.0,0.0,0.0,0.0,0.0,0.0,0.0,0.0,0.0,0.0,0.0,0.0,0.0,0.0,0.0,0.0,0.0,0.0,0.0,0.0,0.0,0.0,0.0,0.0,0.0,0.0,0.0,0.0,0.0,0.0,0.0,0.0,0.0,0.0,0.0,0.0,0.0,0.0,0.0,0.0,0.0,0.0,0.0,0.0,0.0,0.0,0.0,0.0,0.0,0.0,0.0,0.0,0.0,0.0,0.0,0.0,0.0,0.0,0.0,0.0,0.0,0.0,0.0,0.0,0.0,0.0,0.0,0.0,0.0,0.0,0.0,0.0,0.0,0.0,0.0,0.0,0.0,0.0,0.0,0.0,0.0,0.0,0.0,0.0,0.0,0.0,0.0,0.0,4.8303,4.7131,4.6445,4.7461,4.7266,4.6152,4.3887,4.2617,4.2049,4.2377,0.0,0.0,0.0,0.0,0.0,0.0,0.0,0.0,0.0,0.0,0.0,0.0,0.0,0.0,0.0,0.0,0.0,0.0,0.0,0.0,0.0,0.0,0.0,0.0,0.0,0.0,0.0,0.0,0.0,0.0,0.0,0.0,0.0,0.0,0.0,0.0,0.0,0.0,0.0,0.0,0.0,0.0,0.0,0.0,0.0,0.0,0.0,0.0,0.0,0.0,0.0,0.0,0.0,0.0,0.0,0.0,0.0,0.0,0.0,0.0,0.0,0.0,0.0,0.0,0.0,0.0,0.0,0.0,0.0,0.0,0.0,0.0,0.0,0.0,0.0,0.0,0.0,0.0,0.0,0.0,0.0,0.0,0.0,0.0,0.0,0.0,0.0,0.0,0.0,0.0,0.0,0.0,0.0,0.0,0.0,0.0,0.0,0.0,0.0,0.0,0.0,0.0,4.8663,4.7044,4.6215,4.7441,4.6816,4.5605,4.3906,4.2207,4.1202,4.1122,0.0,0.0,0.0,0.0,0.0,0.0,0.0,0.0,0.0,0.0,0.0,0.0,0.0,0.0,0.0,0.0,0.0,0.0,0.0,0.0,0.0,0.0,0.0,0.0,0.0,0.0,0.0,0.0,0.0,0.0,0.0,0.0,0.0,0.0,0.0,0.0,0.0,0.0,0.0,0.0,0.0,0.0,0.0,0.0,0.0,0.0,0.0,0.0,0.0,0.0,0.0,0.0,0.0,0.0,0.0,0.0,0.0,0.0,0.0,0.0,4.4634,4.5723,0.0,0.0,0.0,0.0,0.0,0.0,0.0,0.0,0.0,0.0,0.0,0.0,0.0,0.0,0.0,0.0,0.0,0.0,0.0,0.0,0.0,0.0,0.0,0.0,0.0,0.0,0.0,0.0,0.0,0.0,0.0,0.0,0.0,0.0,0.0,0.0,0.0,0.0,0.0,0.0,4.827,4.6855,4.6215,4.7441,4.6816,4.5742,4.4375,4.2656,4.1935,4.2606,4.1036,0.0,0.0,0.0,0.0,0.0,0.0,0.0,0.0,0.0,0.0,0.0,0.0,0.0,0.0,0.0,0.0,0.0,0.0,0.0,0.0,0.0,0.0,0.0,0.0,0.0,0.0,0.0,0.0,0.0,0.0,0.0,0.0,0.0,0.0,0.0,0.0,0.0,0.0,0.0,0.0,0.0,0.0,0.0,0.0,0.0,0.0,0.0,0.0,0.0,0.0,0.0,0.0,0.0,0.0,0.0,0.0,0.0,0.0,0.0,4.8811,4.76,0.0,0.0,0.0,0.0,0.0,0.0,0.0,0.0,0.0,0.0,0.0,0.0,0.0,0.0,0.0,0.0,0.0,0.0,0.0,0.0,0.0,0.0,0.0,0.0,0.0,0.0,0.0,0.0,0.0,0.0,0.0,0.0,0.0,0.0,0.0,0.0,0.0,0.0,0.0,0.0,4.7764,4.6436,4.5937,4.7422,4.6445,4.5332,4.4473,4.2793,4.1817,4.1871,4.1304,0.0,0.0,0.0,0.0,0.0,0.0,0.0,0.0,0.0,0.0,0.0,0.0,0.0,0.0,0.0,0.0,0.0,0.0,0.0,0.0,0.0,0.0,0.0,0.0,0.0,0.0,0.0,0.0,0.0,0.0,0.0,0.0,0.0,0.0,0.0,0.0,0.0,0.0,0.0,0.0,0.0,0.0,0.0,0.0,0.0,0.0,0.0,0.0,0.0,0.0,0.0,0.0,0.0,5.4112,5.5463,5.7278,5.8089,5.8647,5.8828,5.4188,5.083,4.8758,4.9706,0.0,0.0,0.0,0.0,0.0,0.0,0.0,0.0,0.0,0.0,0.0,0.0,0.0,0.0,0.0,0.0,0.0,0.0,0.0,0.0,0.0,0.0,4.475,4.3973,4.2843,4.1949,4.1934,0.0,0.0,0.0,0.0,0.0,0.0,0.0,0.0,0.0,0.0,0.0,4.701,4.5934,4.5742,4.7305,4.6074,4.4961,4.4551,4.3125,4.1855,4.0879,4.1739,4.1871,0.0,0.0,0.0,0.0,0.0,0.0,0.0,0.0,0.0,0.0,0.0,0.0,0.0,0.0,0.0,0.0,0.0,0.0,0.0,0.0,0.0,0.0,0.0,0.0,0.0,0.0,0.0,0.0,0.0,0.0,0.0,0.0,4.2466,4.1487,0.0,0.0,0.0,0.0,0.0,0.0,0.0,0.0,0.0,0.0,0.0,0.0,0.0,5.2894,5.355,5.5142,5.5462,5.442,5.6406,5.7242,5.7093,5.8643,5.9375,5.9463,5.9478,0.0,5.4244,5.131,0.0,0.0,0.0,0.0,0.0,0.0,0.0,0.0,0.0,0.0,0.0,0.0,0.0,0.0,0.0,0.0,0.0,0.0,0.0,0.0,0.0,0.0,4.4293,4.2541,4.2545,4.2899,4.2903,4.3518,4.3975,4.386,4.3669,4.4143,0.0,0.0,0.0,0.0,0.0,0.0,4.5678,4.5666,4.5957,4.687,4.6152,4.541,4.498,4.4394,4.3516,4.2206,4.1994,4.166,4.1186,4.1837,0.0,0.0,0.0,0.0,0.0,0.0,0.0,0.0,0.0,0.0,0.0,0.0,0.0,0.0,0.0,0.0,0.0,0.0,0.0,0.0,0.0,0.0,0.0,0.0,0.0,0.0,0.0,0.0,0.0,4.3996,4.5475,4.2552,4.5262,4.676,0.0,0.0,0.0,0.0,0.0,0.0,0.0,0.0,0.0,5.41,5.5919,5.7052,5.735,5.8705,5.9803,6.0652,6.1592,6.2421,6.3099,6.3827,6.4329,6.4605,6.4395,6.3073,6.0718,5.6178,5.3631,5.2348,0.0,0.0,0.0,0.0,5.0922,5.2189,5.2548,5.3003,5.3435,5.317,0.0,0.0,0.0,0.0,0.0,0.0,0.0,4.8939,4.718,4.7044,4.6803,4.4798,4.4609,4.4883,4.4883,4.4995,4.4903,4.4282,4.4204,4.4694,4.6123,4.5581,0.0,0.0,0.0,4.535,4.4956,4.5772,4.6523,4.685,4.6387,4.5859,4.543,4.4785,4.4043,4.3203,4.2305,4.1621,4.123,4.128,4.1221,0.0,0.0,0.0,0.0,0.0,0.0,0.0,0.0,0.0,0.0,0.0,0.0,0.0,0.0,0.0,0.0,0.0,0.0,0.0,0.0,0.0,0.0,0.0,0.0,0.0,0.0,0.0,0.0,4.627,4.7843,4.3949,4.7126,4.8966,0.0,0.0,0.0,0.0,0.0,0.0,5.3392,5.5766,5.7389,5.8088,6.0214,6.1554,6.2044,6.2873,6.4404,6.6564,6.6564,6.7367,6.8848,6.8848,6.9074,6.9426,6.8597,6.7518,6.5911,6.0524,5.7075,5.5037,5.3691,5.3443,5.3848,5.3766,5.4685,5.6122,5.7061,5.7395,5.7215,5.6338,5.5516,5.4276,5.0934,0.0,0.0,0.0,0.0,4.9911,4.8513,4.8566,4.8632,4.743,4.7207,4.7266,4.7148,4.6797,4.6135,4.4875,4.4779,4.5291,4.6429,4.6061,0.0,4.4589,4.5325,4.5692,4.4837,4.6113,4.7006,4.6889,4.6641,4.625,4.5723,4.5195,4.4648,4.4082,4.3047,4.2266,4.1836,4.1094,4.0834,4.1205,0.0,0.0,0.0,0.0,0.0,0.0,0.0,0.0,0.0,0.0,0.0,0.0,0.0,0.0,0.0,0.0,0.0,0.0,0.0,0.0,0.0,0.0,0.0,0.0,0.0,0.0,0.0,0.0,0.0,4.6233,4.8991,0.0,0.0,0.0,0.0,5.2641,5.5195,5.6963,5.7661,5.9867,6.1792,6.3272,6.4898,6.6764,6.8879,6.8954,6.9351,7.0049,7.0049,7.0652,7.1686,7.1686,7.1711,7.1736,7.1686,7.0732,6.8728,6.2672,6.006,5.9773,5.7997,5.8247,5.9554,5.8488,5.8818,5.9643,5.8328,5.785,5.819,6.02,5.8977,5.602,5.2053,5.072,0.0,0.0,5.0058,4.8307,5.0664,4.951,4.7948,4.9062,4.9687,4.9863,4.9453,4.9004,4.7994,4.5453,4.4671,4.4943,4.6516,0.0,4.4292,4.5757,4.5864,4.5715,4.5648,4.6738,4.7383,4.6973,4.687,4.6562,4.5785,4.5996,4.5859,4.4977,4.4531,4.4062,4.3594,4.2012,4.1348,4.1739,4.2124,0.0,0.0,0.0,0.0,0.0,0.0,0.0,0.0,0.0,0.0,0.0,0.0,0.0,0.0,0.0,0.0,0.0,0.0,0.0,0.0,0.0,0.0,0.0,0.0,0.0,0.0,0.0,0.0,5.1988,5.4465,0.0,5.349,5.3045,5.3971,5.658,5.7349,5.9005,6.2017,6.3988,6.6084,6.8371,6.9351,7.0581,7.2113,7.2113,7.2389,7.2941,7.2941,7.3142,7.3519,7.3519,7.3519,7.3494,7.3142,7.2665,7.1861,6.8597,6.5785,6.34,6.2432,6.217,6.2396,6.2346,6.28,6.3413,6.324,6.2948,6.2277,6.0073,5.6602,5.2857,5.0535,5.0672,5.1295,4.9773,4.9636,5.0057,5.0509,4.9987,4.9433,5.0176,5.0254,5.0137,4.998,4.9824,4.948,4.8516,4.6875,4.5778,4.6402,4.5382,4.4817,4.5706,4.6209,4.6387,4.6113,4.7486,4.817,4.7422,4.7598,4.7402,4.6562,4.6621,4.6187,4.5055,4.4355,4.3633,4.287,4.1777,4.1289,4.1387,4.1266,4.1601,0.0,0.0,0.0,0.0,0.0,0.0,0.0,0.0,0.0,0.0,0.0,0.0,0.0,0.0,0.0,0.0,0.0,0.0,0.0,0.0,0.0,0.0,0.0,0.0,0.0,5.4498,5.7187,5.6785,5.9056,6.0164,5.8931,5.8139,5.8699,6.1128,6.1605,6.3224,6.6557,6.812,6.9928,7.2138,7.274,7.3468,7.4423,7.4598,7.4799,7.4975,7.5151,7.5151,7.4975,7.4975,7.4875,7.4674,7.4498,7.4222,7.3795,7.2866,7.0857,6.8221,6.6739,6.6162,6.6212,6.6406,6.6707,6.6853,6.5731,6.4607,6.2977,5.8747,5.5398,5.2646,5.0905,5.1218,5.1752,4.9689,5.0178,5.1232,5.1105,5.1035,5.1133,5.1562,5.1445,5.1259,5.1074,5.0801,5.0644,5.0801,4.9082,4.7701,4.8018,4.7612,4.7524,4.8294,4.8912,4.9163,4.9025,4.9499,4.9517,4.881,4.8437,4.7793,4.6753,4.6988,4.6459,4.4902,4.4425,4.3699,4.2676,4.2131,4.1837,4.1837,4.1484,4.1915,4.3228,0.0,0.0,0.0,0.0,0.0,0.0,0.0,0.0,0.0,0.0,0.0,0.0,0.0,0.0,0.0,0.0,0.0,0.0,0.0,0.0,0.0,0.0,0.0,5.217,5.626,5.9656,6.0272,6.2455,6.3475,6.2395,6.3726,6.5132,6.6237,6.8302,7.0033,7.1184,7.2263,7.3295,7.4473,7.4951,7.5527,7.6129,7.6657,7.6657,7.6129,7.6682,7.6682,7.6154,7.6154,7.5804,7.5278,7.5854,7.5477,7.4498,7.4976,7.4827,7.3977,7.079,7.0163,7.1016,7.0464,7.0193,6.9531,6.5347,6.2386,5.9945,5.6735,5.589,5.571,5.341,5.2461,5.2148,5.2148,5.1855,5.1719,5.2558,5.2773,5.2871,5.3351,5.3449,5.3312,5.2812,5.207,5.1621,5.2031,5.1094,5.0542,5.1392,5.1527,5.1996,5.3435,5.3653,0.0,5.4168,5.2667,5.1396,5.1019,4.9327,4.7734,4.6504,4.7115,4.667,4.4554,4.4796,4.4423,4.3107,4.3059,4.3022,4.3022,4.2876,4.2682,4.2466,0.0,0.0,0.0,0.0,0.0,0.0,0.0,0.0,0.0,0.0,0.0,0.0,0.0,0.0,0.0,0.0,0.0,0.0,0.0,0.0,0.0,5.4919,5.7991,5.799,6.1337,6.4394,6.606,6.7592,6.8541,6.8572,6.8999,6.9727,7.0786,7.2191,7.3519,7.4672,7.5024,7.5653,7.6758,7.6155,7.6105,7.6682,7.6858,7.6858,7.6707,7.721,7.7385,7.726,7.726,7.6959,7.6431,7.6582,7.6305,7.5578,7.5327,7.412,7.2552,7.29,7.1947,7.0396,6.9865,6.8075,6.5794,6.4573,6.2377,5.9767,5.8615,5.6789,5.4908,5.3953,5.3594,5.3496,5.3496,5.3633,5.3848,5.4082,5.4141,5.418,5.4297,5.4082,5.373,5.3281,5.2988,5.2773,5.2578,5.2012,5.1455,5.1071,5.0483,5.0197,5.0621,5.0432,5.0301,5.042,4.9984,4.9942,5.0785,4.9546,4.8672,4.8652,4.7394,4.6009,4.4492,4.3619,4.2836,4.2168,4.1856,4.1719,4.1719,4.223,4.2169,0.0,0.0,0.0,0.0,0.0,0.0,0.0,0.0,0.0,0.0,0.0,0.0,0.0,0.0,0.0,0.0,0.0,0.0,0.0,0.0,0.0,0.0,5.9196,6.3051,6.494,6.6137,6.7753,7.0401,7.146,7.2414,7.3418,7.3519,7.3971,7.5075,7.5753,7.6532,7.7461,7.721,7.7385,7.8013,7.721,7.6883,7.721,7.7461,7.7561,7.7586,7.8139,7.8289,7.8038,7.8038,7.7737,7.7235,7.7235,7.6908,7.6331,7.4985,7.3379,7.1872,0.0,0.0,0.0,0.0,6.631,6.3582,6.319,6.1282,5.8917,5.8522,5.7313,5.5957,5.5703,5.5508,5.5351,5.5351,5.541,5.5508,5.5703,5.5605,5.5488,5.5488,5.5019,5.4453,5.4004,5.3683,5.3331,5.3027,5.25,0.0,5.1426,5.1267,5.1429,5.2025,5.1737,5.1507,5.1507,5.0637,5.0338,5.1058,4.9769,4.8796,4.8457,4.7307,0.0,0.0,0.0,4.2525,4.2093,4.2014,0.0,0.0,0.0,4.2733,4.0847,4.1625,0.0,0.0,3.9729,4.0089,0.0,0.0,0.0,0.0,0.0,0.0,0.0,0.0,0.0,0.0,0.0,0.0,0.0,0.0,0.0,0.0,6.4124,6.8211,7.1825,7.0807,7.0732,7.372,7.4498,7.5452,7.7185,7.7285,7.7737,7.8917,7.8992,7.9218,7.9721,7.9143,0.0,0.0,0.0,7.7787,7.7787,7.834,7.8616,7.8616,7.9269,7.9294,7.8765,7.8741,7.8415,7.7888,7.7483,7.6982,7.6306,7.3841,7.2087,7.0888,6.9856,6.8514,6.7047,6.6257,6.4411,6.2187,6.1322,0.0,0.0,5.75,5.7617,5.7984,5.7926,5.7598,5.7285,5.7285,5.7051,5.6875,5.7207,5.7012,5.6719,5.666,5.6035,5.5332,5.4922,5.416,5.3625,5.3566,5.2862,5.2207,5.2168,5.2788,5.3698,5.4975,5.4814,5.4552,5.4552,5.269,5.142,5.1558,4.9996,0.0,4.7383,4.7032,4.5898,4.3537,4.3235,4.3021,4.2744,4.2762,4.2999,4.3399,4.4113,4.3069,4.0209,4.0758,4.0014,3.7954,3.8931,3.9669,0.0,0.0,0.0,0.0,0.0,0.0,0.0,0.0,0.0,0.0,0.0,0.0,0.0,0.0,0.0,6.4132,6.8137,7.1864,7.4848,7.5653,7.618,7.6833,7.7009,7.7888,8.0022,7.9821,8.0198,8.1754,8.188,8.193,8.2084,8.1102,8.0497,8.0497,7.9066,7.8365,7.8365,7.8942,7.9218,7.9243,8.0223,0.0,8.0472,8.0097,7.9595,7.8915,7.6046,7.4472,7.3785,7.0923,6.8317,6.5961,6.5068,6.4489,6.3905,6.1563,6.0336,5.9838,5.966,5.9327,5.8903,5.8418,5.8304,5.832,5.7969,5.7867,0.0,5.7734,5.7969,5.8086,5.7847,5.773,5.7519,5.7168,5.6699,5.6211,5.5781,5.5293,5.4824,5.4492,5.3762,5.3058,5.2656,5.1895,5.1424,5.1697,5.1392,5.1136,5.1136,5.0432,5.0298,5.1336,4.9938,4.9089,4.9512,4.7648,4.6063,4.5257,4.4185,4.3717,4.4011,4.2092,4.1245,4.1684,3.9817,3.8652,3.8252,3.8363,3.8778,3.9443,3.8517,3.8277,0.0,0.0,0.0,0.0,0.0,0.0,0.0,0.0,0.0,0.0,0.0,5.7393,5.8422,0.0,6.5821,6.8603,7.2066,7.5276,7.7787,7.8842,7.9369,7.9369,7.9369,8.0022,8.1704,8.1604,8.1905,8.301,8.3085,8.3211,8.3487,8.2457,8.1729,8.1428,8.0348,7.9719,7.9719,8.0323,8.075,8.1026,8.188,8.1955,8.135,7.962,7.8391,7.7373,7.3857,7.1982,7.1261,6.8106,6.5263,6.2861,6.2136,6.1772,6.1423,6.0033,5.9512,5.9473,5.9238,5.9297,5.9414,5.9004,5.8831,5.8828,5.8594,5.8555,5.8555,5.8555,5.8727,5.8828,5.8594,5.8203,5.7867,5.7598,5.6875,5.6211,5.5924,5.5605,5.5176,5.4765,5.4141,5.3555,5.3105,5.2148,5.1367,5.1152,5.0762,5.0488,5.0488,5.0117,5.0098,5.0742,5.0039,4.9558,4.9558,4.7539,4.6035,4.5391,4.3648,4.275,4.2974,4.0861,3.9675,3.972,3.9039,3.8189,3.7192,3.7627,3.7922,3.7964,3.7216,3.7461,0.0,0.0,0.0,0.0,0.0,0.0,0.0,5.5021,5.6869,5.7138,6.0204,6.3046,6.375,6.7484,7.0971,7.2821,7.5692,7.839,8.0398,8.1152,8.1526,8.1751,8.15,8.183,8.3035,8.306,8.3261,8.3914,8.3989,8.4165,8.4587,8.3688,8.2884,8.2307,8.1779,8.1453,8.1353,8.188,8.2357,8.2834,8.3286,8.2715,8.1145,7.8457,7.6448,7.486,7.1241,6.9131,6.8071,6.5266,6.295,6.1191,6.0782,6.0372,6.0039,5.998,5.9922,5.9863,5.9531,5.9648,5.9863,5.9453,5.9297,5.9297,5.9235,5.918,5.918,5.918,5.918,5.918,5.918,5.8594,5.8043,5.8043,5.707,5.6138,5.6138,5.5728,5.5332,5.498,5.4512,5.4004,5.3574,5.2851,5.2148,5.1641,5.1269,5.1016,5.0937,5.0625,5.0391,5.0312,5.0234,4.991,4.9109,4.7244,4.5813,4.5,4.2726,4.1509,4.1621,3.9706,3.856,3.8449,3.8971,3.839,3.668,3.7353,3.7229,3.6326,3.6326,3.7082,4.9921,4.8133,4.8052,5.1141,5.1862,5.3595,0.0,6.1955,6.284,6.6777,6.7336,6.7549,6.9045,7.1409,7.3888,7.6027,7.8717,8.1001,8.2231,8.2859,8.3587,8.4512,8.3386,8.311,8.4662,8.4416,8.4567,8.5646,8.5747,8.5747,8.5822,8.5164,8.4587,8.4064,8.3512,8.2985,8.2483,8.3035,8.3336,8.3412,8.3462,8.2029,7.9142,7.7463,7.5109,7.2201,6.8302,6.5318,6.3182,6.2339,6.1873,6.166,6.1601,6.1308,6.0898,6.0508,6.0314,6.0314,6.0255,6.0332,6.0255,5.9863,5.9746,5.9687,5.9297,5.918,5.918,5.918,5.918,5.918,5.918,5.8828,5.8421,5.8421,5.7734,5.707,5.707,5.6426,5.5787,5.5748,5.5156,5.4473,5.4023,5.3555,5.2999,5.2129,5.1973,5.1797,5.1406,5.126,5.1152,5.0781,5.0391,4.998,4.9492,4.7027,4.5329,4.4857,4.2283,4.1075,4.1734,3.9399,3.8519,3.9343,3.7229,3.6231,3.6531,3.6599,3.6854,3.7235,3.7235,3.7201,5.2597,5.194,5.2763,5.6069,5.8143,6.1027,6.7084,6.8286,6.8883,7.1386,7.2402,7.3091,7.3928,7.6194,7.8314,7.9545,8.1277,8.2734,8.3512,8.4089,8.4391,8.416,8.3864,8.4165,8.5496,8.542,8.5496,8.5942,8.5998,8.5998,8.5998,8.5415,8.4838,8.4315,8.4089,8.3864,8.3638,8.4165,8.351,8.1712,8.2029,8.004,7.6067,7.395,7.0849,6.7064,6.5164,6.3596,6.2422,6.2461,6.2344,6.2129,6.2129,6.2129,6.2109,6.1152,6.0801,6.0781,6.0508,6.0548,6.0742,6.0275,5.998,5.9765,5.959,5.9411,5.918,5.918,5.918,5.918,5.918,5.8831,5.848,5.848,5.8027,5.7598,5.7598,5.7109,5.6601,5.6367,5.582,5.5195,5.4531,5.4043,5.3633,5.3262,5.2773,5.2383,5.2207,5.2168,5.2109,5.1933,5.0048,4.8729,4.8543,4.572,4.3866,4.3713,4.1359,4.0146,4.044,3.8338,3.7326,3.7757,3.6829,3.6552,3.7021,3.7195,3.7489,3.7946,3.825,3.8299,5.5049,5.5499,5.7153,6.1595,6.4696,6.7848,7.2526,7.373,7.4199,7.5309,7.6445,7.7434,7.8141,8.0022,8.1754,8.2583,8.3537,8.4391,8.4918,8.4913,8.4491,8.3386,8.3085,8.3412,8.4491,8.5169,8.5671,8.5998,8.5998,8.5998,8.5998,8.5596,8.5164,8.4762,8.4762,8.4762,8.4762,8.5169,8.3789,8.0637,8.0875,7.8234,7.3172,7.02,6.7117,6.4023,6.3555,6.3203,6.293,6.3105,6.293,6.2598,6.2598,6.2754,6.287,6.1953,6.1543,6.1367,6.0899,6.0958,6.1191,6.0742,6.0332,5.998,5.998,5.9687,5.9355,5.9355,5.9355,5.9355,5.9238,5.8945,5.8711,5.8711,5.8379,5.8082,5.8082,5.7617,5.7129,5.6816,5.6308,5.5689,5.5137,5.4668,5.4433,5.448,5.4004,5.3476,5.3125,5.3066,5.2707,5.18,4.9639,4.7886,4.6998,4.4115,4.2366,4.2366,4.0138,3.8792,3.8932,3.7523,3.6874,3.7128,3.7286,3.7579,3.7996,3.821,3.8437,3.8682,3.9092,3.9265,5.7016,5.7803,5.9674,6.7398,7.0485,7.2765,7.6895,7.7979,7.8468,7.9667,7.9621,7.9799,8.1353,8.2181,8.316,8.4737,8.5515,8.6098,8.6682,8.5345,8.3914,8.2834,8.0825,7.9972,8.1024,8.311,8.4818,8.5922,8.5998,8.5998,8.5998,8.5998,8.5998,8.5922,8.5922,8.5922,8.5922,8.5942,8.4356,8.1184,8.0661,7.7175,7.098,6.6931,6.4983,6.4821,6.4412,6.4258,6.4199,6.3848,6.3398,6.2968,6.2968,6.2968,6.2968,6.2988,6.2695,6.2305,6.1836,6.166,6.1601,6.1211,6.0781,6.0372,6.0372,6.008,5.9805,5.9805,5.9805,5.9687,5.9297,5.918,5.918,5.918,5.8828,5.848,5.848,5.7777,5.7207,5.7187,5.6504,5.5865,5.5845,5.5547,5.541,5.5767,5.5806,5.5338,5.4109,5.3933,5.275,4.9529,4.9336,4.8175,4.4972,4.2464,4.1045,4.1045,3.8485,3.7145,3.744,3.7411,3.7782,3.8593,3.8651,3.8945,3.9533,3.9533,3.9559,3.9559,3.9559,3.9599,5.981,6.3298,6.772,7.3588,7.6129,7.8446,8.324,8.2101,8.0564,8.2194,7.9613,7.7334,7.8365,7.7581,7.8031,8.1785,8.304,8.4162,8.6034,8.6098,8.4592,8.0926,8.08,8.0574,7.9469,8.0999,8.2909,8.4742,8.5164,8.5596,8.5998,8.5998,8.5998,8.5998,8.5998,8.4969,8.283,8.283,8.0141,7.4853,7.2243,7.005,6.819,6.6258,6.5527,6.5762,6.5351,6.4844,6.4295,6.4785,6.4375,6.3496,6.3789,6.3846,6.3789,6.3202,6.3105,6.3184,6.2422,6.2129,6.207,6.166,6.1211,6.0859,6.0859,6.0566,6.0215,6.0215,6.0039,5.9765,5.9629,5.9414,5.918,5.918,5.9062,5.8945,5.8945,5.8496,5.8066,5.8066,5.7617,5.7129,5.6836,5.666,5.6621,5.6758,5.6543,5.6113,5.5338,5.3731,5.2099,5.0721,4.7357,4.4735,4.3628,4.104,3.9442,3.9442,3.8617,3.8113,3.825,3.8406,3.8691,3.8953,3.9199,3.9412,3.9599,3.9786,3.9786,3.9599,4.0,4.008,6.4778,6.9773,7.4955,7.9185,8.1641,8.3621,8.5931,8.4515,8.2426,8.17,7.8903,7.6413,7.5858,7.4528,7.51,7.9783,8.0772,8.2036,8.5255,8.4993,8.3311,8.0323,7.9846,7.9344,7.8314,7.9218,8.1076,8.4064,8.4642,8.5169,8.5942,8.5998,8.5998,8.5998,8.4881,8.331,8.1208,8.006,7.6877,7.1675,6.815,6.6582,6.6855,6.6289,6.6234,6.6445,6.6172,6.5644,6.4997,6.5586,6.5234,6.4375,6.4668,6.4668,6.4473,6.3906,6.3789,6.375,6.2774,6.2422,6.2305,6.1836,6.1426,6.1151,6.1269,6.1015,6.0625,6.0431,6.0197,5.998,5.9648,5.9414,5.918,5.918,5.918,5.918,5.918,5.8828,5.848,5.848,5.8183,5.7808,5.748,5.7578,5.7274,5.6122,5.5917,5.5633,5.5009,5.3438,5.1371,4.8837,4.5438,4.2884,4.169,3.9993,3.8993,3.8993,3.8993,3.8993,3.8993,3.9167,3.9313,3.942,3.9607,3.9813,3.992,4.0107,4.0107,3.9933,4.0294,4.0361,7.174,7.6851,8.0997,8.4195,8.6694,8.7731,8.5353,8.5014,8.3698,7.8563,7.7473,7.6637,7.3852,7.3007,7.4264,7.8764,7.9025,8.0122,8.4587,8.2558,8.0725,8.1024,7.834,7.6858,7.7787,7.7888,7.9695,8.3989,8.4261,8.4767,8.5922,8.5886,8.5799,8.5774,8.261,8.0871,8.0698,7.7529,7.4448,7.143,6.8365,6.6914,6.6914,6.6914,6.6938,6.6938,6.6938,6.6621,6.6211,6.623,6.5996,6.5586,6.5586,6.5351,6.488,6.488,6.4668,6.414,6.2871,6.2422,6.2363,6.1894,6.1484,6.1191,6.1601,6.1426,6.1035,6.0548,6.0449,6.0197,5.9414,5.9235,5.918,5.918,5.918,5.918,5.918,5.8831,5.8538,5.8538,5.8203,5.791,5.7746,5.8061,5.7201,5.4082,5.3935,5.3956,5.3089,5.2888,5.0408,4.433,4.3806,4.2627,3.946,3.9493,3.964,3.964,3.964,3.964,3.964,3.964,3.9786,4.004,4.0007,4.0187,4.0481,4.0481,4.0481,4.0481,4.0481,4.0481,7.8553,8.2526,8.5491,8.8309,8.7611,8.631,8.6558,8.352,7.9979,7.7721,7.3816,7.0325,6.8829,6.844,7.0308,7.6254,7.8818,8.1685,8.628,8.6249,8.4843,8.2533,8.1855,8.1227,8.0273,8.0524,8.1754,8.414,8.3914,8.4391,8.5922,8.4133,8.2815,8.243,7.9337,7.6484,7.4129,7.0937,6.9092,6.8552,6.7729,6.7324,6.7324,6.7324,6.7148,6.6938,6.6938,6.6621,6.623,6.6562,6.6289,6.5644,6.5937,6.5586,6.488,6.488,6.4668,6.4199,6.3574,6.3164,6.2812,6.2363,6.1894,6.1601,6.166,6.166,6.1484,6.1035,6.0683,6.0255,5.9805,5.9414,5.918,5.918,5.918,5.918,5.918,5.9121,5.9004,5.9004,5.8945,5.8121,5.5785,5.5446,5.4441,5.1278,5.0901,5.0799,5.0286,4.8435,4.6444,4.4515,4.2552,4.1089,4.0221,4.0214,4.0254,4.0254,4.0254,4.0254,4.0254,4.0254,4.0294,4.0361,4.0361,4.0401,4.0481,4.0481,4.0481,4.0481,4.0481,4.0481,8.3222,8.6696,8.9009,8.8734,8.7451,8.5675,8.3364,8.0566,7.7202,7.2663,6.9593,6.6871,6.3969,6.5241,6.8414,7.3432,7.7295,8.1478,8.6531,8.66,8.5747,8.4647,8.4089,8.3487,8.2558,8.2734,8.3512,8.4918,8.4567,8.4742,8.5922,8.3487,8.1731,8.1208,7.6699,7.2794,6.9617,6.7959,6.7265,6.75,6.7715,6.7793,6.7793,6.7598,6.7383,6.7148,6.6997,6.6738,6.6523,6.6821,6.6582,6.6172,6.6406,6.5976,6.5234,6.5234,6.4824,6.4258,6.4023,6.3555,6.2909,6.2519,6.207,6.1719,6.1719,6.1719,6.1601,6.1211,6.0918,6.0625,6.0215,5.9765,5.9473,5.9473,5.9297,5.918,5.918,5.918,5.918,5.918,5.8057,5.659,5.4954,5.3557,5.1571,4.8409,4.7937,4.7417,4.5752,4.5308,4.449,4.2916,4.1387,4.0481,4.0481,4.0481,4.0481,4.0481,4.0481,4.0481,4.0481,4.0481,4.0481,4.0481,4.0481,4.0481,4.0481,4.0481,4.0481,4.0481,4.0481,4.0481,8.6831,8.9642,9.1058,8.7434,8.6699,8.5212,7.8604,7.7133,7.4797,6.6376,6.571,6.5119,6.026,6.3548,6.8091,7.1487,7.5835,8.0754,8.6425,8.5922,8.5521,8.7027,8.5847,8.4838,8.4838,8.4838,8.5048,8.5606,8.5282,8.5207,8.5531,8.2512,8.04,7.9395,7.4056,6.9842,6.7114,6.7446,6.7617,6.7676,6.8066,6.8262,6.8242,6.7851,6.7617,6.748,6.709,6.6914,6.6938,6.6938,6.6938,6.6938,6.6938,6.6387,6.5644,6.5586,6.5078,6.4375,6.4316,6.373,6.2909,6.2578,6.2129,6.1719,6.1719,6.1719,6.1601,6.1211,6.1094,6.0976,6.049,6.0156,5.9883,5.9883,5.9629,5.9355,5.9355,5.9355,5.9204,5.8734,5.6476,5.4455,5.3852,5.1476,4.8673,4.5517,4.5004,4.4036,4.133,4.3054,4.3501,4.0825,4.0548,4.0508,4.0481,4.0481,4.0481,4.0481,4.0481,4.0481,4.0481,4.0481,4.0481,4.0481,4.0481,4.0481,4.0481,4.0481,4.0481,4.0481,4.0481,4.0481,9.1256,9.0937,8.9298,8.8091,8.6287,8.3459,7.826,7.4921,7.1269,6.5634,6.4231,6.3396,6.13,6.4789,6.948,7.4119,7.7899,8.2424,8.8642,8.8885,8.871,8.9438,8.8458,8.778,8.778,8.778,8.6667,8.3959,8.4177,8.4092,8.3324,7.7807,7.32,6.9979,6.8825,6.8156,6.7969,6.8027,6.8242,6.8594,6.8652,6.8711,6.8691,6.8633,6.8183,6.75,6.7441,6.7207,6.6938,6.6938,6.6938,6.6938,6.6938,6.6562,6.6055,6.5703,6.5293,6.4765,6.4433,6.373,6.2968,6.293,6.2344,6.1719,6.1719,6.1719,6.1601,6.1211,6.1094,6.0976,6.049,6.0314,6.0332,6.0332,6.0273,6.0215,6.0215,6.0215,5.9282,5.6236,5.5537,5.3696,4.8468,4.7085,4.5678,4.2524,4.2045,4.186,4.1283,4.1432,4.1426,4.0903,4.0842,4.0735,4.0508,4.0481,4.0481,4.0481,4.0481,4.0481,4.0481,4.0481,4.0481,4.0481,4.0481,4.0481,4.0481,4.0481,4.0481,4.0481,4.0481,4.0481,8.8624,8.9015,8.9531,8.7833,8.479,8.0812,7.5644,7.1723,6.791,6.3538,6.297,6.2834,6.1442,6.5674,6.993,7.1697,7.5135,7.9989,8.6828,8.6655,8.7128,9.0593,9.0266,8.9764,8.9764,8.9764,8.8341,8.4895,8.3069,8.1645,8.0496,7.5733,7.1387,6.7999,6.7851,6.7949,6.8183,6.8418,6.8594,6.8808,6.9043,6.9095,6.9101,6.8691,6.8242,6.7832,6.7383,6.7114,6.6938,6.6938,6.6938,6.6938,6.6938,6.6582,6.6152,6.5762,6.5293,6.4821,6.4412,6.3906,6.334,6.3105,6.2402,6.1719,6.1719,6.1719,6.166,6.1484,6.1426,6.1367,6.1133,6.0899,6.0781,6.0781,6.0548,6.0372,6.0372,5.9055,5.7404,5.5602,5.2886,4.992,4.6947,4.5244,4.3741,4.2005,4.1777,4.175,4.1603,4.1456,4.131,4.1101,4.0989,4.0842,4.0722,4.0548,4.0481,4.0481,4.0615,4.0695,4.0695,4.0842,4.0869,4.0695,4.0695,4.0695,4.0695,4.0548,4.0548,4.0695,4.0548,4.0481,8.6914,8.8053,8.9849,8.7294,8.3286,7.8645,7.3152,6.9097,6.5397,6.1555,6.2014,6.277,6.1596,6.5716,6.924,6.9103,7.2104,7.6949,8.4251,8.4371,8.5642,9.0969,9.1387,9.1211,9.112,9.0417,8.8848,8.6205,8.1911,7.8544,7.6447,7.3605,7.0871,6.8385,6.8418,6.8476,6.8476,6.8867,6.9043,6.8926,6.9277,6.9368,6.9368,6.875,6.8359,6.8144,6.7505,6.7031,6.6938,6.6938,6.6938,6.6938,6.6938,6.6703,6.6289,6.5879,6.5527,6.5117,6.4609,6.4199,6.375,6.332,6.2578,6.1836,6.1719,6.1719,6.1719,6.1719,6.1719,6.1719,6.1719,6.1484,6.1211,6.1211,6.0399,5.9591,5.9533,5.7025,5.4622,5.3896,4.9932,4.6582,4.6159,4.4283,4.2659,4.2365,4.2365,4.2285,4.1924,4.1937,4.1857,4.1501,4.1269,4.1056,4.1016,4.0735,4.0588,4.0655,4.0802,4.0949,4.0989,4.1168,4.1168,4.1016,4.1016,4.1016,4.1016,4.0695,4.0722,4.0989,4.0695,4.0649,9.2539,9.1734,8.8929,8.6632,8.2734,7.8064,7.2626,6.8433,6.4636,6.0877,6.1677,6.2914,6.2383,6.4156,6.6776,7.0083,7.2137,7.5865,8.3028,8.5697,8.7904,9.0652,9.1873,9.2225,9.1773,8.8842,8.6876,8.6544,8.0511,7.4756,6.995,6.9379,6.9074,6.875,6.9101,6.927,6.927,6.9746,6.9785,6.9329,6.9368,6.9368,6.9368,6.9309,6.886,6.8183,6.8125,6.7617,6.6938,6.6938,6.6938,6.6938,6.6938,6.6855,6.6758,6.6328,6.609,6.5976,6.5114,6.459,6.4199,6.375,6.3047,6.2246,6.1836,6.1719,6.1719,6.1719,6.1719,6.1719,6.1719,6.166,6.166,6.166,5.9379,5.7129,5.6688,5.4358,5.14,4.8295,4.7516,4.6587,4.3903,4.324,4.2953,4.2723,4.2846,4.2806,4.2258,4.2405,4.2472,4.2178,4.1897,4.1603,4.1274,4.0994,4.0976,4.1229,4.0994,4.1016,4.1248,4.1274,4.1274,4.1248,4.1248,4.1248,4.1248,4.1016,4.1016,4.1248,4.1016,4.1016,8.4829,8.7105,8.9513,8.8283,8.2382,7.6218,7.3746,6.7946,6.2974,6.2394,6.3075,6.375,6.3661,6.4914,6.6206,6.7044,6.731,6.9475,7.5579,7.7035,7.9886,8.6606,8.8433,8.9103,8.9159,8.7894,8.5284,8.0877,7.6088,7.2433,7.0066,6.9726,6.9453,6.9153,6.9336,6.9368,6.9368,6.9609,6.9543,6.9368,6.9368,6.9368,6.9368,6.8926,6.8515,6.8144,6.7617,6.7207,6.6938,6.6938,6.6938,6.6938,6.6938,6.6938,6.6816,6.6387,6.6211,6.609,6.5527,6.5234,6.4961,6.4258,6.3808,6.3398,6.2695,6.246,6.246,6.246,6.246,6.2461,6.2187,6.2129,6.1562,5.9353,5.8005,5.6644,5.4379,5.1482,4.8942,4.7781,4.6383,4.4964,4.3575,4.3821,4.3928,4.3273,4.3461,4.342,4.2833,4.2699,4.2619,4.2512,4.2071,4.175,4.1603,4.135,4.1168,4.1274,4.1416,4.1497,4.1603,4.1777,4.1777,4.1603,4.1603,4.1603,4.1603,4.131,4.131,4.1603,4.131,4.1168,8.1859,8.5669,8.9775,9.055,8.3707,7.6378,7.5127,6.8106,6.223,6.3313,6.3734,6.4006,6.4339,6.5123,6.5518,6.4996,6.4474,6.5871,7.0717,7.1639,7.4689,8.2406,8.4231,8.5569,8.7264,8.7555,8.4609,7.7281,7.4507,7.2879,7.246,7.1185,7.0273,6.9778,6.9778,6.9746,6.9629,6.9629,6.957,6.9368,6.9368,6.9309,6.9219,6.8652,6.8242,6.7949,6.7324,6.6972,6.6938,6.6938,6.6938,6.6938,6.6938,6.6938,6.6879,6.6523,6.6406,6.6348,6.5937,6.5762,6.5644,6.4941,6.4609,6.4375,6.3729,6.332,6.2968,6.2968,6.2968,6.2731,6.1411,6.1058,6.019,5.6571,5.5183,5.4064,5.1645,4.8547,4.6285,4.6603,4.5154,4.3861,4.3756,4.4329,4.4516,4.3781,4.3928,4.3861,4.306,4.2873,4.2726,4.2552,4.2151,4.1924,4.1924,4.1644,4.1461,4.1541,4.179,4.1964,4.2044,4.2258,4.2258,4.2044,4.1964,4.1924,4.1924,4.1603,4.163,4.1897,4.1603,4.1461,8.7918,8.9999,8.9272,9.3192,8.719,7.9544,7.6498,6.9095,6.29,6.2928,6.3118,6.3496,6.4109,6.4129,6.4289,6.5089,6.5469,6.6979,7.0696,7.2856,7.5356,7.8759,7.9884,8.2233,8.703,8.7965,8.5203,7.7789,7.7153,7.6943,7.6437,7.3213,7.1133,7.0722,7.0722,7.0488,7.0097,7.0097,6.9863,6.9368,6.9368,6.9219,6.8808,6.8808,6.834,6.75,6.75,6.7265,6.6938,6.6938,6.6938,6.6938,6.6938,6.6938,6.6938,6.6875,6.6875,6.6816,6.6348,6.6211,6.6152,6.5703,6.5293,6.488,6.488,6.4023,6.2968,6.2968,6.2968,6.2194,5.8832,5.7964,5.7093,5.3757,5.0454,4.8089,4.8056,4.5474,4.3245,4.3461,4.3527,4.3714,4.4262,4.4369,4.4329,4.4035,4.4182,4.4008,4.287,4.2913,4.2873,4.2285,4.2218,4.2218,4.2218,4.1964,4.1897,4.2178,4.2218,4.2325,4.2696,4.2659,4.2659,4.2659,4.2365,4.2218,4.2218,4.1924,4.1924,4.2218,4.1924,4.1924,7.5842,7.8786,8.0788,8.1606,7.7069,7.1961,7.0376,6.6212,6.2617,6.2351,6.3011,6.3773,6.4115,6.4276,6.4678,6.5775,6.6082,6.6251,6.6524,7.084,7.506,7.7984,8.0898,8.3099,8.4243,8.0537,7.7938,7.7632,7.5444,7.4045,7.3953,7.2592,7.1347,7.0312,7.0273,7.0078,6.9602,6.9629,6.957,6.9368,6.9095,6.8926,6.8808,6.8183,6.7773,6.748,6.7207,6.7055,6.6938,6.6938,6.6938,6.6938,6.6938,6.6938,6.6938,6.6938,6.6938,6.6855,6.6762,6.668,6.6582,6.6172,6.5918,6.5703,6.5056,6.4412,6.3384,6.1058,6.0206,5.9192,5.5819,5.4871,5.4012,5.0391,4.8952,4.7805,4.572,4.4244,4.3607,4.4329,4.4449,4.4436,4.4436,4.477,4.4797,4.4115,4.4249,4.4142,4.3354,4.3167,4.2953,4.2552,4.2325,4.2218,4.2218,4.2138,4.2218,4.2512,4.2512,4.2659,4.2953,4.2953,4.2953,4.2953,4.2659,4.2512,4.2512,4.2218,4.2138,4.2218,4.2111,4.2138,7.0608,7.3706,7.6207,7.7843,7.4236,6.9919,6.8647,6.5112,6.203,6.1534,6.2112,6.2805,6.3044,6.3194,6.3794,6.5305,6.5628,6.5581,6.5411,6.856,7.1689,7.3865,8.1042,8.3971,7.9211,7.8017,7.7156,7.6156,7.4016,7.2695,7.2695,7.2109,7.1426,7.0605,7.043,7.0195,6.9902,6.9543,6.9309,6.9153,6.8926,6.8652,6.8301,6.7734,6.7446,6.7265,6.6972,6.6938,0.0,6.6938,6.6938,6.6938,6.6938,6.6938,6.6938,6.6938,6.6938,6.6938,6.6938,6.6938,6.6607,6.4971,6.3365,6.1944,6.1219,6.1645,6.1961,5.9817,5.807,5.6136,5.2745,5.1859,5.0922,4.7336,4.6679,4.6324,4.4416,4.3861,4.3861,4.4436,4.4556,4.4516,4.4436,4.473,4.4797,4.4249,4.4262,4.4156,4.3594,4.338,4.3127,4.291,4.2659,4.2552,4.2552,4.2445,4.2512,4.2806,4.2977,4.306,4.3233,4.3273,4.3273,4.3273,4.298,4.2846,4.2846,4.2512,4.2445,4.2552,4.2445,4.2405,0.0,7.2896,7.4137,7.9055,7.6153,7.1604,6.9753,6.5298,0.0,6.0713,6.0792,6.1093,6.1444,6.1418,6.2005,6.4156,6.4516,6.5057,6.6488,6.6805,6.7328,6.8534,8.0612,8.4551,7.3694,7.9469,8.104,7.4219,7.3106,7.2734,7.2695,7.1894,7.1426,7.1367,7.0957,7.0722,7.0664,6.9778,6.9153,6.8867,6.875,6.8301,6.7558,6.75,6.727,6.6938,6.6938,6.6938,6.6938,6.6938,6.6938,6.6938,6.6938,6.6938,6.6938,6.6938,6.6938,6.6855,6.6583,6.6539,6.5969,6.237,5.8478,5.5155,5.4761,5.6584,5.8807,5.8559,5.6183,5.3021,4.9608,4.8718,4.7969,4.4785,4.4008,4.4008,4.4035,4.4008,4.4008,4.4048,4.4035,4.4115,4.4329,4.4369,4.4369,4.4396,4.4396,4.4182,4.3594,4.3527,4.342,4.3167,4.31,4.3127,4.3167,4.2913,4.2846,4.3127,4.342,4.3594,4.3569,4.3594,4.3529,4.3529,4.3273,4.3127,4.31,4.287,4.2846,4.31,4.287,4.2763,6.2259,0.0,6.4109,6.5343,6.4796,6.3748,0.0,6.242,6.1858,6.1416,6.1537,6.2101,6.3325,6.2486,6.2669,6.5636,6.5532,6.4992,6.4862,7.0898,7.6032,7.7938,8.2895,8.4414,7.9964,7.7978,7.7079,7.7265,7.4748,7.3027,7.2695,7.2168,7.1719,7.1434,7.0957,7.0547,7.0254,6.9394,6.9036,6.9277,6.8301,6.789,6.8008,6.7324,6.6972,6.6938,6.6938,6.6938,6.6938,6.6938,6.6938,6.6938,6.6938,6.6938,6.6938,6.6938,6.6938,6.6539,6.3772,6.2838,6.2241,5.8705,5.6467,5.5204,5.5105,5.5137,5.4764,5.2177,5.105,4.9715,4.6177,4.5317,4.5242,4.426,4.4008,4.4075,4.4289,4.4142,4.4142,4.4583,4.4476,4.4303,4.4369,4.4369,4.4303,4.4142,4.4115,4.3968,4.3567,4.3527,4.3487,4.342,4.3233,4.338,4.4075,4.3634,4.3461,4.3781,4.4075,4.4329,4.4556,4.4329,4.4222,4.4222,4.3649,4.3314,4.31,4.302,4.302,4.31,4.302,4.2993,5.915,6.0105,6.0852,6.0736,6.0967,6.1103,6.0772,6.1305,6.1651,6.0865,6.1243,6.2018,6.297,6.2505,6.2784,6.523,6.5894,6.6443,6.7517,7.34,7.8311,8.017,8.2713,8.3474,8.1232,7.856,7.6867,7.6474,7.4505,7.3027,7.2402,7.1758,7.1308,7.1074,7.0422,7.007,7.0097,6.9453,6.8978,6.8867,6.8125,6.7734,6.7558,6.709,6.6938,6.6938,6.6938,6.6938,6.6938,6.6938,6.6938,6.6938,6.6938,6.6938,6.6938,6.6938,6.6738,6.6078,6.2764,5.9487,5.6393,5.435,5.2224,5.0428,5.0328,4.987,4.9384,4.9156,4.8056,4.6515,4.4497,4.4115,4.4182,4.4035,4.4008,4.4035,4.4222,4.4115,4.4115,4.4409,4.4329,4.4222,4.4222,4.4222,4.4182,4.4035,4.4008,4.3928,4.3781,4.3741,4.3781,4.3928,4.3756,4.3968,4.4583,4.4476,4.4369,4.4409,4.4369,4.4583,4.4877,4.473,4.4583,4.4369,4.3968,4.3674,4.3501,4.3354,4.338,4.3501,4.3354,4.3314,5.886,6.0062,6.085,6.0443,6.0645,6.0809,6.0537,6.096,6.1105,6.0157,6.0807,6.163,6.1921,6.229,6.2964,6.4434,6.6436,6.9016,7.253,7.5416,7.7735,7.9337,8.1349,8.1739,7.9565,7.9062,7.7443,7.397,7.332,7.2734,7.1836,7.1113,7.0664,7.0605,6.9844,6.957,6.9922,6.9512,6.8984,6.8301,6.8144,6.774,6.6972,6.6914,6.6938,6.6938,6.6938,6.6938,6.6938,6.6938,6.6938,6.6938,6.6938,6.6938,6.6875,6.6797,6.6209,6.4893,6.1187,5.5652,5.0057,4.9844,4.7563,4.477,4.4516,4.4222,4.4574,4.7514,4.6252,4.4075,4.4008,4.4035,4.4075,4.4008,4.4035,4.4075,4.4075,4.4075,4.4075,4.4115,4.4075,4.4035,4.4115,4.4115,4.4075,4.4115,4.4142,4.4115,4.4075,4.4115,4.4222,4.4476,4.4516,4.4583,4.4984,4.5171,4.5171,4.4957,4.4703,4.473,4.4957,4.4957,4.481,4.4516,4.4262,4.4142,4.4142,4.3861,4.3861,4.4075,4.3781,4.3634,5.9455,6.009,5.9998,5.8927,5.9071,5.9516,5.9514,5.9939,6.0589,6.1447,6.1911,6.2212,6.2283,6.3187,6.4325,6.562,6.8758,7.2767,7.7779,7.8387,7.9074,8.1007,8.0093,7.8635,7.6933,7.5282,7.3746,7.2431,7.2226,7.1816,7.0957,7.0781,7.0547,7.0195,6.9687,6.9336,6.9004,6.8926,6.8802,6.8711,6.7949,6.7539,6.7383,6.7031,6.6938,6.6938,6.6938,6.6938,6.6938,6.6938,6.6938,6.6938,6.6938,6.6938,6.6879,6.6445,6.4471,6.1019,5.4506,4.9577,4.6172,4.6131,4.5334,4.4436,4.4436,4.4222,4.4113,4.464,4.4565,4.4262,4.4075,4.4182,4.4289,4.4075,4.4182,4.4369,4.4369,4.4369,4.4436,4.4703,4.4329,4.4155,4.4663,4.4543,4.4436,4.4703,4.473,4.4663,4.4396,4.4583,4.477,4.481,4.481,4.5024,4.549,4.5211,4.5024,4.5237,4.5424,4.5383,4.5237,4.5237,4.5104,4.481,4.477,4.473,4.473,4.4703,4.4583,4.4369,4.4262,4.4116,5.8707,5.9527,5.9915,5.9138,5.9582,6.0069,5.9572,5.9807,6.0285,6.0794,6.1159,6.1717,6.3019,6.524,6.8283,7.2412,7.4673,7.7485,8.1991,8.1364,8.2133,8.6583,8.306,8.0298,8.0298,7.7524,7.4713,7.2187,7.1777,7.1308,7.043,7.0371,7.0078,6.9394,6.9219,6.8926,6.8476,6.8476,6.8359,6.8066,6.7676,6.7383,6.7148,6.6972,6.6938,6.6938,6.6938,6.6938,6.6938,6.6938,6.6938,6.6938,6.6938,6.6938,6.6607,6.4029,6.1076,5.7422,5.1949,4.7908,4.5277,4.4943,4.465,4.4396,4.4249,4.4115,4.4008,4.4008,4.4115,4.4182,4.4035,4.4115,4.4182,4.4035,4.4222,4.4329,4.4222,4.4436,4.4663,4.4663,4.4556,4.4556,4.4837,4.477,4.473,4.4917,4.4877,4.4837,4.469,4.481,4.4957,4.509,4.5104,4.5277,4.5637,4.5344,4.5171,4.5318,4.5424,4.5463,4.5531,4.5384,4.5237,4.5131,4.4957,4.4877,4.4877,4.4877,4.481,4.4663,4.4663,4.4623,5.8284,5.9146,5.9771,5.9647,6.0024,6.0466,6.0656,6.0654,6.0947,6.1934,6.2312,6.2993,6.4573,6.793,7.2328,7.8184,8.0275,8.2457,8.5992,8.4486,8.499,9.0136,8.5495,8.1904,8.2041,7.9267,7.5833,7.1833,7.125,7.075,6.9863,6.9805,6.9453,6.8691,6.8574,6.8359,6.8027,6.7974,6.7734,6.75,6.75,6.7265,6.6938,6.6938,6.6938,6.6938,6.6938,6.6938,6.6875,6.6758,6.6821,6.6855,6.6703,6.6044,6.4742,6.0686,5.7091,5.3679,4.9668,4.6878,4.5024,4.4583,4.4329,4.4289,4.4075,4.4008,4.4008,4.4008,4.4035,4.4075,4.4008,4.4008,4.4008,4.4075,4.4222,4.4396,4.4262,4.4516,4.473,4.4583,4.4663,4.481,4.4957,4.4984,4.4984,4.5064,4.509,4.5064,4.4984,4.5024,4.5131,4.5304,4.5384,4.5491,4.5705,4.5423,4.5344,4.5424,4.5344,4.5383,4.5677,4.5531,4.5424,4.5424,4.5197,4.509,4.509,4.509,4.5064,4.4984,4.4984,4.4957,5.918,5.939,5.8983,5.9857,5.9187,5.9276,6.2988,6.2974,6.3333,6.7469,6.8391,6.822,6.7628,7.1087,7.5226,7.8852,8.329,8.7247,9.0116,8.8063,8.6643,8.7581,8.45,8.0874,7.7348,7.6783,7.4809,7.0558,7.0215,6.9805,6.8945,6.886,6.8691,6.8242,6.7832,6.7558,6.7558,6.7148,6.7148,6.75,6.75,6.7265,6.6938,6.6938,6.6938,6.6938,6.6938,6.6938,6.6879,6.6445,6.6504,6.6797,6.5996,6.3529,6.0,5.6482,5.3007,4.9433,4.5989,4.4662,4.4436,4.4436,4.4249,4.4035,4.4008,4.4008,4.4008,4.4008,4.4182,4.4329,4.4075,4.4008,4.4075,4.4329,4.4369,4.4516,4.477,4.4623,4.4543,4.481,4.465,4.4583,4.5197,4.5277,4.5384,4.557,4.5678,4.553,4.5318,4.5463,4.553,4.5344,4.549,4.5705,4.5677,4.5423,4.5424,4.5637,4.5451,4.5383,4.5677,4.5705,4.5637,4.5637,4.5637,4.5678,4.5678,4.5678,4.5531,4.5277,4.5277,4.5131,5.8098,6.0079,6.1939,6.2798,6.2466,6.2596,6.4942,6.4979,6.5606,6.9352,7.0121,7.0649,7.2649,7.5751,7.9343,8.3395,8.7064,9.009,9.214,9.1549,9.0906,9.1128,8.7567,8.3656,8.0068,7.7274,7.4029,7.0055,6.9687,6.9336,6.8476,6.8626,6.8476,6.7773,6.7598,6.7383,6.709,6.6997,6.6997,6.709,6.709,6.7031,6.6938,6.6938,6.6938,6.6938,6.6938,6.6762,6.6445,6.6269,6.6172,6.6055,6.5703,6.3252,5.9515,5.6079,5.2524,4.8981,4.5385,4.4289,4.4396,4.4222,4.4075,4.4008,4.4008,4.4008,4.4008,4.4008,4.4222,4.4369,4.4075,4.4142,4.4289,4.4396,4.4369,4.4409,4.4583,4.4797,4.4957,4.4877,4.509,4.5304,4.5531,4.5571,4.5598,4.5677,4.5677,4.5637,4.553,4.5678,4.5637,4.553,4.5678,4.561,4.5491,4.5384,4.5344,4.5451,4.5384,4.5383,4.5677,4.5677,4.5677,4.5677,4.5677,4.5677,4.5677,4.5677,4.5678,4.553,4.3122,4.2005,5.7575,5.9957,6.2466,6.3479,6.4161,6.5399,6.8346,6.7095,6.6779,7.1815,7.2894,7.3547,7.5783,7.8534,8.1626,8.5229,8.882,9.1697,9.3204,9.3405,9.3304,9.2963,8.9305,8.5314,8.1612,7.755,7.3535,6.9604,6.9277,6.8867,6.8008,6.8242,6.8066,6.7324,6.7324,6.7148,6.6938,6.6938,6.6938,6.6938,6.6938,6.6938,6.6938,6.6938,6.6797,6.668,6.668,6.6406,6.5996,6.5879,6.4927,6.3592,6.3707,6.0752,5.601,5.3693,5.0599,4.7224,4.4756,4.4035,4.4262,4.4075,4.3928,4.3861,4.3968,4.3928,4.3861,4.3968,4.4222,4.4329,4.4182,4.4369,4.4583,4.469,4.4583,4.4583,4.469,4.4943,4.5131,4.4917,4.5277,4.5598,4.5598,4.5678,4.5677,4.5677,4.5677,4.5677,4.5677,4.5677,4.5677,4.5677,4.5677,4.561,4.5451,4.5451,4.5451,4.5451,4.5451,4.5531,4.5677,4.5677,4.5677,4.5677,4.5677,4.5677,4.5677,4.5677,4.5677,4.5595,4.1857,4.0102,5.8042,5.8863,5.9592,6.1052,6.3418,6.7026,7.3358,6.9355,6.6763,7.5475,7.7532,7.741,7.6306,7.8807,8.1592,8.3362,8.8213,9.2149,9.3229,9.338,9.2978,9.1898,8.8805,8.5009,8.0625,7.714,7.339,6.9107,6.8808,6.8418,6.7539,6.75,6.7324,6.6938,6.6938,6.6875,6.6875,6.6875,6.6875,6.6875,6.6875,6.6875,6.6938,6.6938,6.6621,6.6211,6.6211,6.5976,6.5527,6.5036,6.2627,5.9234,5.9666,5.5214,4.8583,4.8583,4.6442,4.3527,4.3527,4.3676,4.4008,4.4008,4.3781,4.3567,4.3888,4.3781,4.3594,4.3901,4.4222,4.4369,4.4369,4.4663,4.4957,4.5237,4.509,4.4957,4.5237,4.509,4.4877,4.4877,4.5131,4.5318,4.5318,4.549,4.5677,4.5677,4.5677,4.5677,4.5677,4.5677,4.5677,4.5677,4.5677,4.5677,4.5677,4.5677,4.5677,4.5677,4.5677,4.5677,4.5677,4.5677,4.5677,4.5677,4.5677,4.5677,4.5677,4.5677,4.5677,4.5595,4.1788,4.0032,5.7205,5.9218,6.1987,6.3954,6.6689,7.0178,7.4739,7.2876,7.1251,7.5078,7.9041,8.0843,7.7825,8.126,8.4813,8.5705,8.9171,9.1898,9.2225,9.2576,9.2401,9.1296,8.581,8.1621,8.0308,7.4444,7.001,6.8527,6.8359,6.8008,6.709,6.7324,6.7324,6.6938,6.6562,6.6406,6.6406,6.6113,6.6113,6.6387,6.6113,6.6289,6.6875,6.6562,6.6328,6.6148,6.5918,6.5527,6.4871,6.2035,6.0192,5.8993,5.6726,5.2892,4.8583,4.8583,4.63,4.3233,4.3233,4.3273,4.3354,4.3354,4.3314,4.3233,4.3354,4.3314,4.3273,4.3594,4.4035,4.4476,4.469,4.5131,4.5451,4.5344,4.509,4.4957,4.5237,4.5237,4.5171,4.5171,4.5424,4.5598,4.5598,4.5678,4.5677,4.5677,4.5677,4.5677,4.5677,4.5677,4.5677,4.5677,4.5677,4.5677,4.5677,4.5677,4.5677,4.5677,4.5677,4.5677,4.5677,4.5677,4.5677,4.5677,4.5677,4.5677,4.5677,4.5677,4.5677,4.5526,3.913,3.6178,5.7644,5.9761,6.2755,6.6006,6.9467,7.3056,7.6653,7.7317,7.7284,7.7828,8.161,8.4135,8.1807,8.4046,8.6625,8.7605,8.9865,9.1547,9.1798,9.1873,9.1622,9.0693,8.446,8.0067,7.9663,7.305,6.8574,6.7949,6.791,6.7617,6.6914,6.709,6.7031,6.6621,6.6348,6.609,6.5976,6.5879,6.5879,6.5976,6.5703,6.5762,6.6113,6.6172,6.6035,6.5621,6.5254,6.4146,6.2466,6.0112,5.7536,5.4798,5.2732,4.962,4.6277,4.6277,4.4884,4.2913,4.2913,4.2993,4.31,4.31,4.302,4.2953,4.306,4.31,4.3167,4.3382,4.3902,4.4516,4.481,4.5237,4.549,4.5491,4.5344,4.5277,4.5383,4.5491,4.5491,4.5491,4.557,4.5677,4.5677,4.5677,4.5677,4.5677,4.5677,4.5677,4.5677,4.5677,4.5677,4.5677,4.5677,4.5677,4.5677,4.5677,4.5677,4.5677,4.5677,4.5677,4.5677,4.5677,4.5677,4.5677,4.5677,4.5677,4.5677,4.5677,4.4895,4.3331,3.7285,3.3713,5.8949,6.0594,6.2758,6.7645,7.21,7.6198,7.9503,8.2365,8.3816,8.2053,8.4592,8.7008,8.6569,8.6845,8.763,8.9036,9.0191,9.1036,9.1547,9.1195,9.05,8.968,8.3935,7.9606,7.8381,7.2466,6.8359,6.7558,6.7441,6.7265,6.6938,6.6879,6.6621,6.6172,6.6113,6.5879,6.5469,6.5859,6.5859,6.5469,6.543,6.5195,6.4824,6.5644,6.5527,6.4704,6.4032,6.1952,5.9071,5.8451,5.4387,4.8583,4.8248,4.5879,4.2763,4.2723,4.2659,4.2619,4.2619,4.2806,4.302,4.302,4.2846,4.2723,4.2953,4.302,4.31,4.342,4.3862,4.4436,4.481,4.509,4.5384,4.5678,4.5677,4.5677,4.5677,4.5677,4.5677,4.5677,4.5677,4.5677,4.5677,4.5677,4.5677,4.5677,4.5677,4.5677,4.5677,4.5677,4.5677,4.5677,4.5677,4.5677,4.5717,4.5785,4.5785,4.5757,4.5757,4.5743,4.5785,4.5745,4.5526,4.517,4.517,4.5046,4.4689,4.466,4.2942,3.9489,3.5789,3.2211,5.9774,6.2357,6.5862,7.0591,7.6698,8.2434,8.5783,8.7046,8.5959,8.047,8.4686,8.8343,8.492,8.7452,8.9865,8.9362,9.0191,9.0785,9.0517,9.0367,8.911,8.5901,8.1689,7.7942,7.5094,7.0558,6.7715,6.75,6.7207,6.6972,6.6938,6.6562,6.6172,6.5762,6.5348,6.5,6.459,6.4668,6.4668,6.459,6.4258,6.4043,6.3965,6.414,6.3904,6.3257,6.0577,5.9027,5.7954,5.2682,4.9817,4.8327,4.54,4.3759,4.298,4.2803,4.2512,4.2325,4.2325,4.2365,4.2405,4.2405,4.2365,4.2365,4.2659,4.2592,4.2552,4.3314,4.3569,4.3888,4.4663,4.509,4.5384,4.5678,4.5677,4.5677,4.5677,4.5677,4.5677,4.5677,4.5677,4.5677,4.5677,4.5677,4.5677,4.5677,4.5677,4.5677,4.5677,4.5677,4.5677,4.5677,4.5677,4.5783,4.6079,4.6079,4.6186,4.64,4.644,4.6333,4.6119,4.5852,4.4345,4.1385,4.1304,3.9836,3.6888,3.698,3.6629,3.5607,3.2085,2.986,6.1067,6.4038,6.8077,7.5627,8.1503,8.5847,8.736,8.8114,8.7598,8.4361,8.7559,9.0099,8.7588,8.9414,9.1045,9.0191,9.0283,9.0342,8.9789,8.9521,8.7898,8.4073,8.0467,7.695,7.3477,6.9711,6.7324,6.6914,6.668,6.6465,6.6289,6.582,6.541,6.5,6.4551,6.414,6.367,6.3906,6.3906,6.3672,6.3281,6.2891,6.248,6.3105,6.2522,6.086,5.8966,5.6299,5.3075,4.9653,4.726,4.5616,4.3646,4.2806,4.2659,4.2512,4.2365,4.2218,4.2218,4.2218,4.2218,4.2218,4.2218,4.2285,4.2592,4.2552,4.2579,4.3314,4.3676,4.4115,4.473,4.5197,4.549,4.5637,4.5677,4.5677,4.5677,4.5677,4.5677,4.5677,4.5677,4.5677,4.5677,4.5677,4.5677,4.5677,4.5677,4.5677,4.5677,4.5677,4.5677,4.5677,4.5677,4.5852,4.6159,4.6186,4.6293,4.6587,4.6627,4.6547,4.64,4.4408,4.2347,4.0114,4.0102,3.8269,3.4577,3.4698,3.3745,3.1958,3.0168,2.8197,6.1885,6.5907,7.0921,8.0716,8.5244,8.7253,8.7008,8.7687,8.8516,8.9036,9.0392,9.1371,9.0869,9.1195,9.1296,9.0618,9.0116,8.9613,8.9119,8.8609,8.6791,8.2565,7.9561,7.6132,7.1912,6.8914,6.6855,6.6152,6.6035,6.5797,6.5488,6.5058,6.459,6.4082,6.375,6.3379,6.293,6.334,6.332,6.2753,6.2285,6.166,6.1015,6.2051,6.1046,5.8418,5.7467,5.3601,4.7988,4.7386,4.5382,4.2659,4.2656,4.2472,4.2298,4.2195,4.2218,4.2218,4.2218,4.2218,4.2218,4.2218,4.2218,4.2285,4.2592,4.2683,4.2726,4.334,4.3861,4.4289,4.477,4.5237,4.557,4.5705,4.5677,4.5677,4.5677,4.5677,4.5677,4.5677,4.5677,4.5677,4.5677,4.5677,4.5677,4.5677,4.5677,4.5677,4.5677,4.5677,4.5677,4.5677,4.5677,4.5823,4.6226,4.6266,4.6413,4.669,4.6774,4.6774,4.6774,4.3012,4.0442,3.9324,3.8627,3.646,3.2817,3.2793,3.1292,2.8344,2.8368,2.6555,6.0853,6.8452,7.6968,8.3289,8.5521,8.6425,8.7278,8.7605,8.7881,8.8458,8.9538,9.0291,9.0208,9.0291,9.0015,8.8961,8.8767,8.8516,8.7931,8.778,8.5431,7.9315,7.7824,7.4837,6.8277,6.6582,6.582,6.5703,6.529,6.5036,6.4997,6.4609,6.4023,6.3223,6.3085,6.293,6.248,6.2871,6.2695,6.1875,6.1074,6.0625,6.049,6.0665,5.9411,5.6967,5.4094,5.0682,4.7036,4.4194,4.2904,4.2696,4.2365,4.2405,4.2592,4.2325,4.2218,4.2218,4.2218,4.2218,4.2218,4.2218,4.2218,4.2285,4.2592,4.2472,4.2445,4.3249,4.342,4.3527,4.4596,4.4957,4.5131,4.557,4.5677,4.5677,4.5677,4.5677,4.5677,4.5677,4.5677,4.5677,4.5677,4.5677,4.5677,4.5677,4.5677,4.5677,4.5677,4.5677,4.5677,4.5677,4.5677,4.589,4.652,4.6547,4.6801,4.7348,4.7388,4.7388,4.7388,4.3495,3.9744,3.629,3.258,2.8921,2.5159,2.5289,2.5003,2.4478,2.4604,2.4154,6.3251,7.0664,7.7798,8.1699,8.4111,8.5747,8.6525,8.6927,8.7203,8.7511,8.8189,8.8785,8.9111,8.9187,8.8935,8.8107,8.8013,8.778,8.7203,8.5605,8.2615,7.7636,7.5127,7.1874,6.7006,6.5703,6.5117,6.4902,6.4492,6.414,6.3846,6.3457,6.3047,6.2656,6.2402,6.2187,6.2012,6.1953,6.1484,6.0625,6.0273,6.0041,6.0041,6.0041,5.7746,5.3675,5.2075,4.8706,4.4215,4.2647,4.2151,4.2405,4.2258,4.2298,4.2405,4.2258,4.2218,4.2218,4.2218,4.2218,4.2218,4.2218,4.2218,4.2285,4.2592,4.2445,4.2405,4.3273,4.342,4.3567,4.4623,4.4984,4.5237,4.5638,4.5677,4.5677,4.5677,4.5677,4.5677,4.5677,4.5677,4.5677,4.5677,4.5677,4.5677,4.5677,4.5677,4.5677,4.5677,4.5677,4.5677,4.5677,4.3838,4.2796,4.3287,4.1372,4.0423,4.0997,4.3177,4.4503,4.4592,4.0752,3.7822,3.6116,3.1734,2.7549,2.3802,2.3856,2.391,2.3931,2.3999,2.391,6.488,7.046,7.5325,7.8909,8.1928,8.4274,8.5506,8.6274,8.6751,8.66,8.7027,8.7504,8.778,8.8114,8.8114,8.7504,8.7436,8.7203,8.6676,8.3814,8.0435,7.6728,7.3149,6.9639,6.6052,6.5058,6.4433,6.4023,6.3496,6.3047,6.2695,6.2285,6.2012,6.1894,6.1543,6.1367,6.1367,6.0976,6.0449,5.9805,5.9707,5.9648,5.9629,5.8819,5.5764,5.1057,5.0962,4.7482,4.1964,4.175,4.179,4.2004,4.2004,4.2031,4.2111,4.2111,4.2151,4.2218,4.2218,4.2218,4.2218,4.2218,4.2218,4.2258,4.2472,4.2405,4.2405,4.3193,4.342,4.3634,4.4543,4.4984,4.5277,4.549,4.5637,4.5677,4.5677,4.5677,4.5677,4.5677,4.5677,4.5677,4.5677,4.5677,4.5677,4.5677,4.5677,4.5677,4.5677,4.5677,4.5677,4.5677,4.2358,4.0314,4.0783,3.7348,3.5424,3.5966,3.9819,4.1731,4.0889,3.8118,3.6121,3.5068,3.0594,2.6822,2.4012,2.3965,2.4012,2.4121,2.4053,2.3965,6.3684,6.63,6.9381,7.5852,7.924,8.1699,8.4488,8.5998,8.6682,8.6174,8.645,8.6676,8.6199,8.6952,8.7454,8.6927,8.6851,8.6682,8.6098,8.3302,7.9895,7.6246,7.2971,6.9267,6.4836,6.4023,6.3574,6.3085,6.2285,6.1758,6.1777,6.1367,6.0957,6.049,6.0508,6.0488,6.0488,6.0098,5.9863,5.9805,5.9414,5.9238,5.9163,5.6119,5.3153,5.0374,5.0721,4.7283,4.1376,4.1314,4.1314,4.1376,4.1376,4.1563,4.1817,4.1817,4.1964,4.2218,4.2218,4.2218,4.2218,4.2218,4.2218,4.2218,4.2218,4.2218,4.2325,4.2953,4.3127,4.3314,4.4222,4.469,4.4984,4.5277,4.5531,4.5677,4.5677,4.5677,4.5677,4.5677,4.5677,4.5677,4.5677,4.5677,4.5677,4.5677,4.5677,4.5677,4.5677,4.5677,4.5677,4.5677,4.2437,4.0455,4.0783,3.7488,3.5586,3.5966,3.9819,4.0556,3.7134,3.6791,3.499,3.1246,2.7019,2.4687,2.4256,2.4175,2.4121,2.4121,2.3843,2.3768,6.1996,6.4753,6.7853,7.204,7.529,7.7935,7.9752,8.2187,8.3947,8.3349,8.4862,8.6249,8.6023,8.6324,8.65,8.6324,8.6274,8.6098,8.5496,8.2661,7.9239,7.5277,7.2027,6.8444,6.4306,6.3515,6.2988,6.2226,6.166,6.1191,6.0898,6.0742,6.0548,6.0372,6.0372,6.0255,6.0039,5.9863,5.9687,5.9414,5.8945,5.8769,5.8694,5.7311,5.3937,4.927,4.9402,4.6337,4.1274,4.1122,4.1163,4.1274,4.1274,4.1354,4.1497,4.1497,4.1563,4.167,4.1884,4.1924,4.1964,4.2151,4.2218,4.2218,4.2218,4.2218,4.2325,4.2913,4.3233,4.3527,4.4182,4.4663,4.4957,4.5237,4.5384,4.5463,4.5637,4.5677,4.5677,4.5677,4.5677,4.5677,4.5677,4.5677,4.5677,4.5677,4.5677,4.5677,4.5677,4.5677,4.5757,4.5999,4.0454,3.6889,3.7262,3.1599,2.9266,3.2082,3.3777,3.5298,3.6651,3.4398,3.2424,3.1071,2.6804,2.4494,2.4276,2.4189,2.4121,2.4121,2.4012,2.3999,6.0553,6.2801,6.553,6.8785,7.1548,7.4067,7.6675,7.9322,8.1285,8.1467,8.3595,8.542,8.542,8.5596,8.5666,8.5666,8.5571,8.5244,8.4667,8.0975,7.7228,7.417,7.0096,6.6428,6.354,6.2871,6.2285,6.1543,6.0976,6.0508,6.0197,6.0098,5.9982,5.9982,5.9982,5.9863,5.959,5.959,5.9414,5.8945,5.8652,5.8421,5.8226,5.5855,5.261,4.8578,4.6557,4.3797,4.0847,4.0695,4.0802,4.1056,4.1056,4.1061,4.1203,4.1203,4.1208,4.1314,4.1563,4.1644,4.167,4.1964,4.2071,4.2071,4.2178,4.2298,4.2472,4.2953,4.3314,4.3634,4.4142,4.4516,4.481,4.509,4.5237,4.5344,4.549,4.5678,4.5677,4.5677,4.5677,4.5677,4.5677,4.5677,4.5677,4.5677,4.5677,4.5677,4.5677,4.5677,4.5318,4.4246,3.8513,3.4409,3.3399,2.761,2.5182,2.803,2.9713,3.1214,3.2665,3.1603,3.0418,2.9051,2.6205,2.5252,2.6359,2.6206,2.6111,2.6111,2.5978,2.5281,0.0,0.0,0.0,6.6349,6.8078,7.0102,7.538,7.7546,7.8894,8.0619,8.268,8.4165,8.424,8.4662,8.4988,8.4988,8.4587,8.4089,8.3537,7.8221,7.401,7.2908,6.7489,6.344,6.2481,6.1953,6.1543,6.1094,6.0273,5.9805,5.9805,5.9414,5.918,5.918,5.918,5.918,5.918,5.918,5.8945,5.848,5.848,5.8262,5.7687,5.1603,4.8757,4.8358,4.2305,3.9779,4.0,3.9967,4.0214,4.0481,4.0481,4.0655,4.0909,4.0909,4.1021,4.131,4.1274,4.1274,4.1376,4.167,4.179,4.1857,4.2151,4.2445,4.2739,4.302,4.3314,4.3607,4.3928,4.4222,4.4476,4.477,4.5064,4.5277,4.5318,4.5531,4.5677,4.5677,4.5677,4.5677,4.5677,4.5677,4.5677,4.5677,4.5677,4.5677,4.5677,4.5677,4.4264,4.053,3.7005,3.3351,2.9648,2.6126,2.4175,2.4488,2.8104,2.8645,2.5072,2.8638,2.8938,2.51,2.4944,2.6743,3.0396,3.01,3.0054,3.0184,2.9867,2.7691,6.0503,0.0,0.0,0.0,0.0,0.0,6.8913,7.1853,7.4608,7.5926,7.8688,8.1286,8.2845,8.2909,8.2734,8.2734,8.3286,8.3386,8.2407,7.897,7.538,7.2144,6.8664,6.5303,6.2207,6.1777,6.1368,6.0664,6.0098,5.9687,5.9355,5.9238,5.918,5.918,5.918,5.918,5.918,5.918,5.8945,5.848,5.8203,5.7847,5.7274,5.3055,4.9984,4.7772,4.3886,4.1121,3.938,3.9794,4.0067,4.0174,4.0401,4.0569,4.0588,4.0588,4.0655,4.0735,4.0949,4.1163,4.1376,4.167,4.1924,4.2151,4.2445,4.2656,4.2766,4.3273,4.3634,4.3888,4.3968,4.3888,4.3861,4.4182,4.4476,4.4797,4.5211,4.5531,4.5677,4.5677,4.5677,4.5677,4.5677,4.5677,4.5677,4.5677,4.5677,4.5677,4.5677,4.5677,4.4341,4.0861,3.7102,3.3428,2.9899,2.6208,2.5321,2.8213,2.6863,2.6885,2.8804,2.7298,2.5999,2.5023,2.7549,2.9392,3.0396,3.0227,3.1569,3.4131,3.1227,2.9315,0.0,0.0,6.2086,6.3784,0.0,0.0,6.6901,6.9387,7.1758,7.3493,7.6232,7.8678,7.9608,7.948,7.9404,7.9833,8.0206,8.0082,7.9172,7.6638,7.3431,6.9427,6.6527,6.4007,6.1658,6.1133,6.0723,6.0215,5.9805,5.9453,5.918,5.918,5.918,5.918,5.9004,5.8887,5.8887,5.873,5.8418,5.7969,5.7715,5.7363,5.6826,5.229,4.9326,4.7437,4.3201,4.0393,3.8953,3.942,3.9754,4.004,4.0214,4.0361,4.0481,4.0481,4.0481,4.0508,4.0655,4.0909,4.1203,4.1497,4.179,4.2111,4.2552,4.2803,4.2953,4.338,4.3674,4.3821,4.3821,4.3567,4.338,4.3567,4.3928,4.4369,4.4837,4.5277,4.5598,4.5705,4.5677,4.5677,4.5677,4.5677,4.517,4.3575,4.3343,4.2792,4.1234,4.1039,3.9662,3.6077,3.3752,3.0986,2.739,2.5212,2.4977,2.7316,2.5417,2.5384,2.7843,2.5855,2.4772,2.4914,2.8576,3.2057,3.517,3.5093,3.6088,3.822,3.5956,3.3068,0.0,0.0,0.0,6.2916,6.3068,0.0,6.7353,6.8589,6.9673,7.2063,7.4324,7.5702,7.5297,7.5242,7.5527,7.643,7.6312,7.5783,7.5131,7.309,7.0148,6.5931,6.3091,6.1379,6.1035,6.0273,5.9805,5.9805,5.9414,5.918,5.918,5.9121,5.9121,5.9121,5.8655,5.8421,5.8421,5.8086,5.7637,5.7207,5.7207,5.6973,5.6344,5.0374,4.766,4.7315,4.1274,3.8718,3.87,3.8953,3.9393,3.99,4.0,4.0187,4.0441,4.0481,4.0481,4.0481,4.0481,4.0655,4.0949,4.1229,4.1523,4.1897,4.2549,4.2846,4.31,4.338,4.3487,4.3461,4.3382,4.3233,4.306,4.306,4.3487,4.3995,4.4262,4.4769,4.5318,4.557,4.5705,4.5677,4.5677,4.532,4.392,4.0611,3.9755,3.8283,3.4907,3.4486,3.3089,2.929,2.9042,2.7588,2.3732,2.3714,2.389,2.389,2.4033,2.4243,2.4528,2.4548,2.4616,2.4758,2.8576,3.4078,4.1182,4.1987,4.23,4.23,4.1929,3.7584,0.0,0.0,0.0,6.3952,6.4399,0.0,6.5171,6.5922,6.6873,6.8326,6.9147,7.0191,7.1992,7.2313,7.2303,7.2208,7.4165,7.543,7.4556,7.3983,7.1452,6.568,6.4416,6.3092,6.0738,6.0098,5.9805,5.9805,5.9414,5.918,5.918,5.8828,5.8652,5.8652,5.8203,5.8043,5.8043,5.791,5.7637,5.7207,5.7207,5.6797,5.5862,5.0162,4.7439,4.6805,4.1188,3.8718,3.8718,3.874,3.8953,3.9313,3.9794,4.0067,4.0147,4.0401,4.0481,4.0481,4.0481,4.0655,4.0949,4.1229,4.1523,4.1897,4.2549,4.2763,4.2806,4.31,4.3167,4.3127,4.2886,4.2806,4.2803,4.2803,4.302,4.342,4.3968,4.4369,4.4703,4.5236,4.553,4.5677,4.5677,4.3218,4.0957,4.0183,3.7505,3.5337,3.4566,3.4486,3.3089,2.929,2.9042,2.7588,2.3732,2.3714,2.389,2.389,2.4033,2.4209,2.4385,2.4385,2.4453,2.4672,2.8368,3.247,3.6975,4.3271,4.64,4.6316,4.3187,3.9113,6.3268,0.0,0.0,6.4691,6.4755,0.0,0.0,6.6089,6.6253,6.7019,6.7206,6.7418,6.8092,6.784,6.7785,6.8482,6.9524,6.9918,6.8972,7.0635,6.9578,6.3151,6.2329,6.1676,6.025,5.9746,5.9414,5.918,5.8929,5.8769,5.8555,5.832,5.8203,5.8203,5.7793,5.7539,5.7539,5.7324,5.7012,5.6582,5.6582,5.5466,5.331,4.9058,4.6271,4.4637,4.0319,3.8584,3.8718,3.8718,3.8798,3.8953,3.954,3.9893,4.0067,4.0361,4.0481,4.0481,4.0481,4.0655,4.0949,4.1082,4.1416,4.1857,4.2298,4.2659,4.2913,4.306,4.2993,4.2846,4.2763,4.2552,4.2445,4.2445,4.1352,4.0471,4.0933,3.9931,3.9062,3.9569,3.9875,4.064,4.256,4.1385,3.8829,3.5107,3.2939,3.1034,2.914,2.8864,2.8162,2.6262,2.6116,2.5394,2.3478,2.3537,2.368,2.368,2.3822,2.3999,2.4229,2.4168,2.5191,2.7352,2.9192,3.1922,3.5741,3.9696,4.2672,4.449,4.0516,3.7497,6.4332,6.3974,6.4476,0.0,0.0,6.5382,0.0,0.0,0.0,6.6163,6.5949,6.5419,6.4427,6.3632,6.354,6.463,6.4704,6.3988,6.2191,6.5555,6.5967,5.9988,5.987,6.0016,5.9343,5.8952,5.8594,5.8418,5.8242,5.8086,5.7926,5.7793,5.775,5.7671,5.7187,5.6933,5.6855,5.6027,5.5412,5.4936,5.4463,5.2761,4.9957,4.7098,4.4562,4.2346,3.947,3.8357,3.8624,3.8624,3.8651,3.8758,3.9306,3.9706,3.994,4.0294,4.0441,4.0481,4.0481,4.0615,4.0842,4.0869,4.131,4.1817,4.2071,4.2512,4.2913,4.2873,4.2726,4.2552,4.2445,4.2325,4.2002,4.129,3.9217,3.7341,3.7044,3.5014,3.3333,3.3804,3.4017,3.5169,3.8437,3.8377,3.5887,2.9787,2.8241,2.6682,2.3578,2.3205,2.3185,2.3185,2.3185,2.3185,2.3185,2.3347,2.3377,2.3377,2.3592,2.3802,2.4066,2.41,2.5626,2.8895,2.8897,3.0359,3.3315,3.3438,3.5927,4.041,3.7126,3.5139,6.6873,6.7143,6.8048,0.0,6.8448,6.7907,6.7974,0.0,6.513,6.3716,0.0,6.2718,6.1947,0.0,0.0,6.0029,6.2236,6.2405,5.7592,5.9906,6.0914,5.7751,6.0127,6.0854,5.7792,5.7111,5.7168,5.7926,5.7246,5.7109,5.7867,5.75,5.7109,5.6738,5.6308,5.5898,5.5527,5.3214,5.189,5.1542,4.9261,4.7625,4.6593,4.398,4.2453,4.1676,3.8999,3.8036,3.8348,3.8348,3.8477,3.8758,3.902,3.9372,3.968,3.996,4.0254,4.0481,4.0481,4.0508,4.0588,4.0842,4.131,4.179,4.1817,4.2071,4.2258,4.2004,4.2111,4.2151,4.1568,4.1857,4.1366,3.8011,3.7138,3.6352,3.3686,3.2788,3.2667,3.3499,3.3608,3.3805,3.4774,3.2261,2.9911,2.9015,2.5984,2.3721,2.3297,2.3117,2.3029,2.3029,2.3029,2.3029,2.3029,2.3221,2.3377,2.3377,2.3592,2.3754,2.391,2.4053,2.4283,2.4597,2.4583,2.479,2.5264,2.5156,2.8845,3.6083,3.5756,3.3601,6.8683,6.8808,6.9252,0.0,0.0,0.0,6.6756,0.0,6.4243,6.3,0.0,0.0,0.0,0.0,0.0,0.0,5.8501,5.8304,5.5326,5.5952,5.6598,5.6208,5.7477,5.7726,5.6145,5.6123,5.6052,5.5748,5.5543,5.5515,5.5683,5.5724,5.5781,5.584,5.5664,5.5488,5.5312,5.2576,5.1044,5.0594,4.7883,4.5411,4.32,4.2158,4.0742,3.9112,3.805,3.7742,3.7996,3.824,3.8388,3.8477,3.874,3.9033,3.9353,3.9853,4.0107,4.0254,4.0401,4.0481,4.0508,4.0802,4.1096,4.131,4.1483,4.1603,4.167,4.1563,4.1603,4.1608,4.1354,4.1644,4.1043,3.7444,3.527,3.3117,3.0013,2.774,2.6403,2.683,2.701,2.7202,2.7334,2.81,2.803,2.589,2.4209,2.3219,2.3219,2.3097,2.3008,2.3008,2.292,2.292,2.3008,2.3117,2.3219,2.3307,2.347,2.3571,2.3626,2.3788,2.3843,2.3768,2.3768,2.3734,2.3626,2.3666,2.5305,2.8329,2.8422,2.8799,7.0707,0.0,0.0,0.0,0.0,0.0,0.0,0.0,0.0,6.275,6.2008,0.0,0.0,0.0,5.8039,5.6273,0.0,5.5122,5.3505,5.3029,5.3254,5.4349,5.4407,5.4407,5.4431,5.4393,5.4138,5.3527,5.3399,5.3475,5.3698,5.3967,5.4431,5.4941,5.4194,5.3757,5.3809,5.0223,4.8249,4.7817,4.4979,4.2263,3.99,3.9828,3.8854,3.7128,3.7128,3.7342,3.7702,3.7996,3.824,3.8348,3.8611,3.8846,3.9167,3.9673,3.9967,4.0187,4.0401,4.0481,4.0508,4.0735,4.0842,4.0949,4.1101,4.1269,4.1274,4.1229,4.1269,4.1248,4.1101,4.068,3.9427,3.5887,3.2611,2.9451,2.6322,2.3583,2.1815,2.2004,2.2215,2.2357,2.2337,2.4917,2.6188,2.3502,2.3205,2.3219,2.3219,2.3097,2.3008,2.3008,2.2907,2.2873,2.294,2.3029,2.3117,2.3219,2.3361,2.3356,2.3323,2.3571,2.3666,2.3612,2.3612,2.3558,2.3377,2.3524,2.3436,2.3219,2.3309,2.4928,0.0,0.0,0.0,7.0781,0.0,0.0,0.0,0.0,6.5119,0.0,0.0,6.233,6.0132,5.8943,5.7679,0.0,5.51,0.0,0.0,5.1205,5.1222,5.1838,5.1699,5.1872,5.2696,5.1432,5.0931,5.1812,5.0871,5.0987,5.2658,5.2768,5.3132,5.4023,5.1307,4.992,4.9991,4.4677,4.183,4.1445,3.8569,3.7014,3.665,3.6382,3.6368,3.654,3.654,3.6874,3.7422,3.7702,3.7996,3.8348,3.8611,3.8846,3.914,3.9493,3.996,4.0481,4.0481,4.0481,4.0481,4.0542,4.0695,4.0909,4.0909,4.1061,4.1269,4.1016,4.1122,4.1203,4.0655,3.8533,3.5673,3.2025,2.8801,2.5698,2.2532,2.163,2.1477,2.1828,2.1903,2.1991,2.2289,2.278,2.3157,2.3008,2.313,2.3219,2.3219,2.3097,2.3008,2.3008,2.3008,2.294,2.2798,2.3049,2.3219,2.3219,2.3361,2.3309,2.3239,2.3524,2.3612,2.3397,2.3377,2.3377,2.3377,2.3307,2.3239,2.3219,2.3309,2.3361,0.0,0.0,7.6548,7.1507,0.0,0.0,0.0,0.0,0.0,0.0,0.0,0.0,0.0,0.0,0.0,0.0,0.0,5.2258,0.0,4.9647,4.8987,4.9185,5.0118,5.0634,5.0468,4.9833,4.9333,4.8923,4.8525,4.8863,5.0097,5.0701,5.1665,5.3105,5.2519,5.1369,4.9832,4.6076,4.3199,4.1159,3.8293,3.6739,3.65,3.6607,3.658,3.6513,3.6672,3.7021,3.7422,3.7702,3.7996,3.8348,3.8611,3.8846,3.914,3.9493,3.9853,4.0214,4.0401,4.0481,4.0481,4.0481,4.0548,4.0615,4.0615,4.0695,4.0762,4.0655,4.0695,4.0735,4.0569,3.8397,3.5359,3.1814,2.8691,2.564,2.2406,2.1638,2.1618,2.1726,2.1815,2.1916,2.2025,2.2337,2.2676,2.2961,2.3049,2.3117,2.3205,2.3008,2.2852,2.2852,2.2676,2.2588,2.2692,2.2907,2.3083,2.3083,2.313,2.3113,2.3219,2.3239,2.3259,2.3293,2.3293,2.3293,2.3293,2.3239,2.3219,2.3219,2.3273,2.3273,7.9871,7.8965,0.0,7.2224,7.2612,0.0,6.8152,0.0,6.8363,0.0,0.0,0.0,0.0,0.0,0.0,0.0,0.0,0.0,0.0,4.8686,4.7844,4.7226,4.8134,4.8745,4.8577,4.7745,4.7096,4.683,4.645,4.6815,4.8124,4.8847,5.0099,5.1953,5.1612,5.0337,4.8036,4.5345,4.2535,3.9663,3.7579,3.654,3.6353,3.6326,3.6326,3.6366,3.654,3.6874,3.7261,3.7662,3.7929,3.8143,3.8544,3.8846,3.914,3.9493,3.9853,4.0214,4.0294,4.0401,4.0481,4.0481,4.0481,4.0481,4.0481,4.0481,4.0508,4.0735,4.0628,4.0265,3.9289,3.6641,3.3315,2.9997,2.6859,2.4068,2.2009,2.1584,2.1584,2.1584,2.1706,2.1828,2.1882,2.2093,2.2411,2.2866,2.2974,2.3063,2.3205,2.3008,2.2873,2.2873,2.2642,2.2534,2.2692,2.2764,2.2873,2.292,2.292,2.2995,2.313,2.3008,2.3097,2.3449,2.3205,2.3205,2.3449,2.3259,2.3171,2.3219,2.3219,2.3219]},{"header":{"parameterUnit":"m.s-1","parameterCategory":1,"la1":30.6,"la2":29.2853,"lo1":-89.7004,"lo2":-87.6739,"dy":0.0162,"dx":0.0183,"nx":112,"ny":82,"refTime":"2023-11-16T06:00:00:Z","depth":0,"parameterNumber":3,"parameterNumberName":"V-component_of_WINDS"},"data":[0.0,0.0,0.0,0.0,0.0,0.0,0.0,0.0,0.0,0.0,0.0,0.0,0.0,0.0,0.0,0.0,0.0,0.0,0.0,0.0,0.0,0.0,0.0,0.0,0.0,0.0,0.0,0.0,0.0,0.0,0.0,0.0,0.0,0.0,0.0,0.0,0.0,0.0,0.0,0.0,0.0,0.0,0.0,0.0,0.0,0.0,0.0,0.0,0.0,0.0,0.0,0.0,0.0,0.0,0.0,0.0,0.0,0.0,0.0,0.0,0.0,0.0,0.0,0.0,0.0,0.0,0.0,0.0,0.0,0.0,0.0,0.0,0.0,0.0,0.0,0.0,0.0,0.0,0.0,0.0,0.0,0.0,0.0,0.0,0.0,0.0,0.0,0.0,0.0,0.0,5.603,6.1737,7.0672,7.571,7.4517,7.647,7.4039,6.5396,0.0,0.0,0.0,0.0,0.0,0.0,0.0,0.0,0.0,0.0,0.0,0.0,0.0,0.0,0.0,0.0,0.0,0.0,0.0,0.0,0.0,0.0,0.0,0.0,0.0,0.0,0.0,0.0,0.0,0.0,0.0,0.0,0.0,0.0,0.0,0.0,0.0,0.0,0.0,0.0,0.0,0.0,0.0,0.0,0.0,0.0,0.0,0.0,0.0,0.0,0.0,0.0,0.0,0.0,0.0,0.0,0.0,0.0,0.0,0.0,0.0,0.0,0.0,0.0,0.0,0.0,0.0,0.0,0.0,0.0,0.0,0.0,0.0,0.0,0.0,0.0,0.0,0.0,0.0,0.0,0.0,0.0,0.0,0.0,0.0,0.0,0.0,0.0,0.0,0.0,0.0,0.0,0.0,0.0,0.0,0.0,0.0,0.0,0.0,0.0,0.0,0.0,0.0,0.0,6.2326,7.2312,7.7539,7.9929,7.9059,7.7811,7.4253,6.7671,0.0,0.0,0.0,0.0,0.0,0.0,0.0,0.0,0.0,0.0,0.0,0.0,0.0,0.0,0.0,0.0,0.0,0.0,0.0,0.0,0.0,0.0,0.0,0.0,0.0,0.0,0.0,0.0,0.0,0.0,0.0,0.0,0.0,0.0,0.0,0.0,0.0,0.0,0.0,0.0,0.0,0.0,0.0,0.0,0.0,0.0,0.0,0.0,0.0,0.0,0.0,0.0,0.0,0.0,0.0,0.0,0.0,0.0,0.0,0.0,0.0,0.0,0.0,0.0,0.0,0.0,0.0,0.0,0.0,0.0,0.0,0.0,0.0,0.0,0.0,0.0,0.0,0.0,0.0,0.0,0.0,0.0,0.0,0.0,0.0,0.0,0.0,0.0,0.0,0.0,0.0,0.0,0.0,0.0,0.0,0.0,0.0,0.0,0.0,0.0,0.0,0.0,0.0,6.1606,6.7766,7.6021,7.979,8.1435,8.0654,7.8719,7.5265,7.0026,6.6281,0.0,0.0,0.0,0.0,0.0,0.0,0.0,0.0,0.0,0.0,0.0,0.0,0.0,0.0,0.0,0.0,0.0,0.0,0.0,0.0,0.0,0.0,0.0,0.0,0.0,0.0,0.0,0.0,0.0,0.0,0.0,0.0,0.0,0.0,0.0,0.0,0.0,0.0,0.0,0.0,0.0,0.0,0.0,0.0,0.0,0.0,0.0,0.0,0.0,0.0,0.0,0.0,0.0,0.0,0.0,0.0,0.0,0.0,0.0,0.0,0.0,0.0,0.0,0.0,0.0,0.0,0.0,0.0,0.0,0.0,0.0,0.0,0.0,0.0,0.0,0.0,0.0,0.0,0.0,0.0,0.0,0.0,0.0,0.0,0.0,0.0,0.0,0.0,0.0,0.0,0.0,0.0,0.0,0.0,0.0,0.0,0.0,0.0,0.0,0.0,0.0,0.0,6.7798,7.2408,7.8485,8.1162,8.2078,8.0984,7.8636,7.5335,7.0987,6.5917,0.0,0.0,0.0,0.0,0.0,0.0,0.0,0.0,0.0,0.0,0.0,0.0,0.0,0.0,0.0,0.0,0.0,0.0,0.0,0.0,0.0,0.0,0.0,0.0,0.0,0.0,0.0,0.0,0.0,0.0,0.0,0.0,0.0,0.0,0.0,0.0,0.0,0.0,0.0,0.0,0.0,0.0,0.0,0.0,0.0,0.0,0.0,0.0,0.0,0.0,0.0,0.0,0.0,0.0,0.0,0.0,0.0,0.0,0.0,0.0,0.0,0.0,0.0,0.0,0.0,0.0,0.0,0.0,0.0,0.0,0.0,0.0,0.0,0.0,0.0,0.0,0.0,0.0,0.0,0.0,0.0,0.0,0.0,0.0,0.0,0.0,0.0,0.0,0.0,0.0,0.0,0.0,0.0,0.0,0.0,0.0,0.0,0.0,0.0,0.0,0.0,0.0,7.0818,7.5999,8.2421,8.3279,8.2555,8.0428,7.6927,7.3171,6.921,6.4776,0.0,0.0,0.0,0.0,0.0,0.0,0.0,0.0,0.0,0.0,0.0,0.0,0.0,0.0,0.0,0.0,0.0,0.0,0.0,0.0,0.0,0.0,0.0,0.0,0.0,0.0,0.0,0.0,0.0,0.0,0.0,0.0,0.0,0.0,0.0,0.0,0.0,0.0,0.0,0.0,0.0,0.0,0.0,0.0,0.0,0.0,0.0,0.0,0.0,0.0,0.0,0.0,0.0,0.0,0.0,0.0,0.0,0.0,0.0,0.0,0.0,0.0,0.0,0.0,0.0,0.0,0.0,0.0,0.0,0.0,0.0,0.0,0.0,0.0,0.0,0.0,0.0,0.0,0.0,0.0,0.0,0.0,0.0,0.0,0.0,0.0,0.0,0.0,0.0,0.0,0.0,0.0,0.0,0.0,0.0,0.0,0.0,0.0,0.0,0.0,0.0,0.0,7.3034,7.8496,8.3028,8.349,8.2408,7.9735,7.7358,7.3701,6.8264,0.0,0.0,0.0,0.0,0.0,0.0,0.0,0.0,0.0,0.0,0.0,0.0,0.0,0.0,0.0,0.0,0.0,0.0,0.0,0.0,0.0,0.0,0.0,0.0,0.0,0.0,0.0,0.0,0.0,0.0,0.0,0.0,0.0,0.0,0.0,0.0,0.0,0.0,0.0,0.0,0.0,0.0,0.0,0.0,0.0,0.0,0.0,0.0,0.0,0.0,0.0,0.0,0.0,0.0,0.0,0.0,0.0,0.0,0.0,0.0,0.0,0.0,0.0,0.0,0.0,0.0,0.0,0.0,0.0,0.0,0.0,0.0,0.0,0.0,0.0,0.0,0.0,0.0,0.0,0.0,0.0,0.0,0.0,0.0,0.0,0.0,0.0,0.0,0.0,0.0,0.0,0.0,0.0,0.0,0.0,0.0,0.0,0.0,0.0,0.0,0.0,0.0,6.79,7.415,7.9329,8.2777,8.3152,8.1866,7.8686,7.6395,7.2921,6.7797,0.0,0.0,0.0,0.0,0.0,0.0,0.0,0.0,0.0,0.0,0.0,0.0,0.0,0.0,0.0,0.0,0.0,0.0,0.0,0.0,0.0,0.0,0.0,0.0,0.0,0.0,0.0,0.0,0.0,0.0,0.0,0.0,0.0,0.0,0.0,0.0,0.0,0.0,0.0,0.0,0.0,0.0,0.0,0.0,0.0,0.0,0.0,0.0,0.0,0.0,0.0,0.0,0.0,0.0,0.0,0.0,0.0,0.0,0.0,0.0,0.0,0.0,0.0,0.0,0.0,0.0,0.0,0.0,0.0,0.0,0.0,0.0,0.0,0.0,0.0,0.0,0.0,0.0,0.0,0.0,0.0,0.0,0.0,0.0,0.0,0.0,0.0,0.0,0.0,0.0,0.0,0.0,0.0,0.0,0.0,0.0,0.0,0.0,0.0,0.0,0.0,0.0,6.902,7.4104,7.8404,8.2041,8.2408,8.0919,7.7198,7.3472,7.0253,0.0,0.0,0.0,0.0,0.0,0.0,0.0,0.0,0.0,0.0,0.0,0.0,0.0,0.0,0.0,0.0,0.0,0.0,0.0,0.0,0.0,0.0,0.0,0.0,0.0,0.0,0.0,0.0,0.0,0.0,0.0,0.0,0.0,0.0,0.0,0.0,0.0,0.0,0.0,0.0,0.0,0.0,0.0,0.0,0.0,0.0,0.0,0.0,0.0,0.0,0.0,0.0,0.0,0.0,0.0,0.0,0.0,0.0,0.0,0.0,0.0,0.0,0.0,0.0,0.0,0.0,0.0,0.0,0.0,0.0,0.0,0.0,0.0,0.0,0.0,0.0,0.0,0.0,0.0,0.0,0.0,0.0,0.0,0.0,0.0,0.0,0.0,0.0,0.0,0.0,0.0,0.0,0.0,0.0,0.0,0.0,0.0,0.0,0.0,0.0,0.0,0.0,0.0,6.9936,7.5683,8.0037,8.2153,8.2408,8.0682,7.642,7.4091,7.1489,6.83,0.0,0.0,0.0,0.0,0.0,0.0,0.0,0.0,0.0,0.0,0.0,0.0,0.0,0.0,0.0,0.0,0.0,0.0,0.0,0.0,0.0,0.0,0.0,0.0,0.0,0.0,0.0,0.0,0.0,0.0,0.0,0.0,0.0,0.0,0.0,0.0,0.0,0.0,0.0,0.0,0.0,0.0,0.0,0.0,0.0,0.0,0.0,0.0,0.0,0.0,0.0,0.0,0.0,0.0,0.0,0.0,0.0,0.0,0.0,0.0,0.0,0.0,0.0,0.0,0.0,0.0,0.0,0.0,0.0,0.0,0.0,0.0,0.0,0.0,0.0,0.0,0.0,0.0,0.0,0.0,0.0,0.0,0.0,0.0,0.0,0.0,0.0,0.0,0.0,0.0,0.0,0.0,0.0,0.0,0.0,0.0,0.0,0.0,0.0,0.0,0.0,0.0,7.1361,7.6535,8.0445,8.2205,8.1866,7.9938,7.6014,7.3815,7.1207,6.79,0.0,0.0,0.0,0.0,0.0,0.0,0.0,0.0,0.0,0.0,0.0,0.0,0.0,0.0,0.0,0.0,0.0,0.0,0.0,0.0,0.0,0.0,0.0,0.0,0.0,0.0,0.0,0.0,0.0,0.0,0.0,0.0,0.0,0.0,0.0,0.0,0.0,0.0,0.0,0.0,0.0,0.0,0.0,0.0,0.0,0.0,0.0,0.0,0.0,0.0,0.0,0.0,0.0,0.0,0.0,0.0,0.0,0.0,0.0,0.0,0.0,0.0,0.0,0.0,0.0,0.0,0.0,0.0,0.0,0.0,0.0,0.0,0.0,0.0,0.0,0.0,0.0,0.0,0.0,0.0,0.0,0.0,0.0,0.0,0.0,0.0,0.0,0.0,0.0,0.0,0.0,0.0,0.0,0.0,0.0,0.0,0.0,0.0,0.0,0.0,0.0,0.0,7.3001,7.6863,7.9947,8.2171,8.1088,7.8991,7.6048,7.3105,7.0209,6.7435,0.0,0.0,0.0,0.0,0.0,0.0,0.0,0.0,0.0,0.0,0.0,0.0,0.0,0.0,0.0,0.0,0.0,0.0,0.0,0.0,0.0,0.0,0.0,0.0,0.0,0.0,0.0,0.0,0.0,0.0,0.0,0.0,0.0,0.0,0.0,0.0,0.0,0.0,0.0,0.0,0.0,0.0,0.0,0.0,0.0,0.0,0.0,0.0,0.0,0.0,0.0,0.0,0.0,0.0,0.0,0.0,0.0,0.0,0.0,0.0,4.6983,4.6528,0.0,0.0,0.0,0.0,0.0,0.0,0.0,0.0,0.0,0.0,0.0,0.0,0.0,0.0,0.0,0.0,0.0,0.0,0.0,0.0,0.0,0.0,0.0,0.0,0.0,0.0,0.0,0.0,0.0,0.0,0.0,0.0,0.0,0.0,0.0,0.0,0.0,0.0,0.0,0.0,7.3449,7.7024,7.9947,8.2171,8.1088,7.9228,7.686,7.3883,7.1727,7.0647,6.7625,0.0,0.0,0.0,0.0,0.0,0.0,0.0,0.0,0.0,0.0,0.0,0.0,0.0,0.0,0.0,0.0,0.0,0.0,0.0,0.0,0.0,0.0,0.0,0.0,0.0,0.0,0.0,0.0,0.0,0.0,0.0,0.0,0.0,0.0,0.0,0.0,0.0,0.0,0.0,0.0,0.0,0.0,0.0,0.0,0.0,0.0,0.0,0.0,0.0,0.0,0.0,0.0,0.0,0.0,0.0,0.0,0.0,0.0,0.0,5.3501,5.1325,0.0,0.0,0.0,0.0,0.0,0.0,0.0,0.0,0.0,0.0,0.0,0.0,0.0,0.0,0.0,0.0,0.0,0.0,0.0,0.0,0.0,0.0,0.0,0.0,0.0,0.0,0.0,0.0,0.0,0.0,0.0,0.0,0.0,0.0,0.0,0.0,0.0,0.0,0.0,0.0,7.4615,7.7187,7.9566,8.2137,8.0445,7.8517,7.7029,7.4119,7.1976,7.0994,6.8741,0.0,0.0,0.0,0.0,0.0,0.0,0.0,0.0,0.0,0.0,0.0,0.0,0.0,0.0,0.0,0.0,0.0,0.0,0.0,0.0,0.0,0.0,0.0,0.0,0.0,0.0,0.0,0.0,0.0,0.0,0.0,0.0,0.0,0.0,0.0,0.0,0.0,0.0,0.0,0.0,0.0,0.0,0.0,0.0,0.0,0.0,0.0,0.0,0.0,0.0,0.0,0.0,0.0,6.0032,6.2073,6.4954,6.5802,6.6507,6.6712,6.1586,5.8088,5.5904,5.4483,0.0,0.0,0.0,0.0,0.0,0.0,0.0,0.0,0.0,0.0,0.0,0.0,0.0,0.0,0.0,0.0,0.0,0.0,0.0,0.0,0.0,0.0,6.4657,6.8693,7.0,6.8623,6.2464,0.0,0.0,0.0,0.0,0.0,0.0,0.0,0.0,0.0,0.0,0.0,7.5507,7.7304,7.9228,8.1934,7.9803,7.7874,7.7164,7.4695,7.2496,7.0894,6.9983,6.8579,0.0,0.0,0.0,0.0,0.0,0.0,0.0,0.0,0.0,0.0,0.0,0.0,0.0,0.0,0.0,0.0,0.0,0.0,0.0,0.0,0.0,0.0,0.0,0.0,0.0,0.0,0.0,0.0,0.0,0.0,0.0,0.0,4.3975,4.3291,0.0,0.0,0.0,0.0,0.0,0.0,0.0,0.0,0.0,0.0,0.0,0.0,0.0,5.7283,5.9539,6.2671,6.4154,6.407,6.6483,6.7617,6.759,6.9349,7.0214,7.0241,6.9716,0.0,6.247,5.8186,0.0,0.0,0.0,0.0,0.0,0.0,0.0,0.0,0.0,0.0,0.0,0.0,0.0,0.0,0.0,0.0,0.0,0.0,0.0,0.0,0.0,0.0,6.9694,7.1505,7.2953,7.3652,7.2653,6.9306,6.6361,6.5875,6.3836,6.2029,0.0,0.0,0.0,0.0,0.0,0.0,7.4539,7.7236,7.96,8.1283,7.9938,7.8653,7.7908,7.6893,7.5371,7.3195,7.237,7.1525,7.0535,6.9286,0.0,0.0,0.0,0.0,0.0,0.0,0.0,0.0,0.0,0.0,0.0,0.0,0.0,0.0,0.0,0.0,0.0,0.0,0.0,0.0,0.0,0.0,0.0,0.0,0.0,0.0,0.0,0.0,0.0,4.6565,4.8927,4.7259,4.8964,4.9274,0.0,0.0,0.0,0.0,0.0,0.0,0.0,0.0,0.0,5.904,6.2241,6.4841,6.6704,6.8887,7.0721,7.2202,7.3402,7.439,7.5198,7.6066,7.6664,7.6993,7.6404,7.4504,7.1328,6.5342,6.2174,6.0753,0.0,0.0,0.0,0.0,5.4369,5.5966,5.7283,5.919,6.0999,6.0296,0.0,0.0,0.0,0.0,0.0,0.0,0.0,6.3778,6.8248,7.2011,7.4991,7.6433,7.7266,7.7739,7.7739,7.5818,7.3365,7.1039,6.9889,6.874,6.7032,6.726,0.0,0.0,0.0,7.3824,7.5659,7.8487,8.0581,8.1249,8.0344,7.9431,7.8686,7.757,7.6284,7.483,7.3274,7.209,7.1323,7.0254,6.92,0.0,0.0,0.0,0.0,0.0,0.0,0.0,0.0,0.0,0.0,0.0,0.0,0.0,0.0,0.0,0.0,0.0,0.0,0.0,0.0,0.0,0.0,0.0,0.0,0.0,0.0,0.0,0.0,5.0054,5.2903,5.0613,5.2916,5.373,0.0,0.0,0.0,0.0,0.0,0.0,5.7886,6.1327,6.4229,6.6529,6.9805,7.231,7.3941,7.4929,7.6754,7.9327,7.9327,8.0285,8.205,8.205,8.232,8.2739,8.1751,8.0464,7.8549,7.1493,6.7196,6.4725,6.2174,6.094,6.053,5.9975,6.0934,6.2742,6.478,6.6098,6.6769,6.6182,6.6161,6.5769,6.2549,0.0,0.0,0.0,0.0,6.9092,7.4083,7.7252,7.9555,8.1228,8.1765,8.1866,8.1663,8.1054,7.9407,7.5616,7.5173,7.4638,7.2269,7.2041,0.0,7.0755,7.3334,7.5856,7.7269,7.987,8.152,8.1317,8.0784,8.0107,7.9194,7.828,7.7333,7.6352,7.4559,7.3206,7.2462,7.1176,7.0108,6.9346,0.0,0.0,0.0,0.0,0.0,0.0,0.0,0.0,0.0,0.0,0.0,0.0,0.0,0.0,0.0,0.0,0.0,0.0,0.0,0.0,0.0,0.0,0.0,0.0,0.0,0.0,0.0,0.0,0.0,5.2142,5.7045,0.0,0.0,0.0,0.0,5.7197,6.0103,6.3194,6.6332,6.9021,7.1951,7.5154,7.7257,7.9567,8.2178,8.2268,8.2649,8.3389,8.3389,8.4106,8.5432,8.5432,8.5462,8.5492,8.5432,8.4295,8.1998,7.4689,7.1577,7.1156,6.8207,6.8199,6.9651,6.8404,6.879,6.9832,6.9053,6.8791,6.9271,7.1664,7.3075,7.3754,7.3228,7.2352,0.0,0.0,7.4653,7.5102,7.9623,8.149,8.2735,8.4979,8.6061,8.6366,8.5655,8.4877,8.3024,7.8628,7.7275,7.6393,7.517,0.0,7.5099,7.4032,7.6709,7.8882,7.8966,8.0953,8.2069,8.1359,8.1283,8.0648,7.9203,7.9667,7.9431,7.8,7.713,7.6318,7.5506,7.2766,7.1526,7.2202,7.098,0.0,0.0,0.0,0.0,0.0,0.0,0.0,0.0,0.0,0.0,0.0,0.0,0.0,0.0,0.0,0.0,0.0,0.0,0.0,0.0,0.0,0.0,0.0,0.0,0.0,0.0,0.0,0.0,6.0135,6.3209,0.0,6.1262,6.0354,6.1204,6.4163,6.5827,6.863,7.3095,7.5419,7.8148,8.1482,8.2649,8.4115,8.594,8.594,8.627,8.6928,8.6928,8.7167,8.7616,8.7616,8.7616,8.7586,8.7167,8.6599,8.5641,8.1751,7.84,7.5557,7.4074,7.3682,7.3951,7.3891,7.4428,7.5239,7.5283,7.5018,7.4714,7.5101,7.5028,7.5052,7.626,7.5746,7.5514,7.9077,7.9531,7.9914,8.3853,8.5073,8.5621,8.6907,8.7042,8.6839,8.6569,8.6298,8.5594,8.4031,8.119,7.8891,7.848,7.772,7.7236,7.7303,7.9137,8.0344,7.987,8.2145,8.3328,8.2137,8.2441,8.2103,8.0648,8.075,8.0099,7.8136,7.6826,7.5574,7.4346,7.236,7.1424,7.1684,7.076,6.9837,0.0,0.0,0.0,0.0,0.0,0.0,0.0,0.0,0.0,0.0,0.0,0.0,0.0,0.0,0.0,0.0,0.0,0.0,0.0,0.0,0.0,0.0,0.0,0.0,0.0,6.0262,6.5138,6.5902,6.8689,7.0055,6.8847,6.7623,6.8274,7.1492,7.2932,7.5347,7.9231,8.1183,8.3337,8.597,8.6689,8.7556,8.8693,8.8903,8.9142,8.9352,8.9561,8.9561,8.9352,8.9352,8.9232,8.8993,8.8783,8.8454,8.7945,8.6838,8.4444,8.1302,7.9537,7.8849,7.8908,7.9052,7.9411,7.9849,8.0271,8.0679,8.097,8.0489,8.0042,8.0108,8.1962,8.1767,8.143,8.4251,8.4552,8.474,8.7632,8.8395,8.8564,8.9309,8.9106,8.8672,8.8463,8.7989,8.7719,8.7989,8.5012,8.2517,8.2649,8.1846,8.1491,8.2398,8.3348,8.3881,8.3645,8.477,8.5121,8.3906,8.358,8.278,8.108,8.1079,8.0167,7.7773,7.656,7.531,7.3916,7.2607,7.1919,7.1919,7.2124,7.1693,7.0542,0.0,0.0,0.0,0.0,0.0,0.0,0.0,0.0,0.0,0.0,0.0,0.0,0.0,0.0,0.0,0.0,0.0,0.0,0.0,0.0,0.0,0.0,0.0,5.5823,6.2827,6.8324,6.9031,7.3287,7.5647,7.436,7.5946,7.7622,7.8938,8.1489,8.3555,8.4833,8.612,8.7447,8.8753,8.9423,9.001,9.0627,9.1255,9.1255,9.0627,9.1285,9.1285,9.0657,9.0657,9.0339,8.9812,9.0399,8.995,8.8783,8.9452,8.9374,8.8455,8.4551,8.3803,8.4821,8.4162,8.3931,8.3973,8.3828,8.5474,8.763,8.7888,8.8473,8.9371,9.0899,9.0865,9.0324,9.0324,8.9816,8.9579,9.1034,9.1406,9.1575,9.229,9.2459,9.2223,9.1474,9.0188,8.941,9.0121,8.8497,8.7101,8.7464,8.7475,8.7833,8.8931,8.9073,0.0,9.004,8.8525,8.7144,8.6505,8.4689,8.2678,8.0547,8.0689,7.9727,7.7072,7.6525,7.5792,7.457,7.3558,7.3036,7.3036,7.5018,7.4678,7.1913,0.0,0.0,0.0,0.0,0.0,0.0,0.0,0.0,0.0,0.0,0.0,0.0,0.0,0.0,0.0,0.0,0.0,0.0,0.0,0.0,0.0,6.0461,6.4476,6.4687,6.9864,7.4815,7.7861,8.0197,8.1594,8.1721,8.223,8.3098,8.4453,8.6129,8.7616,8.8892,8.9311,9.016,9.1476,9.0758,9.0698,9.1285,9.1494,9.1494,9.1315,9.2015,9.2224,9.2075,9.2075,9.1716,9.1087,9.1267,9.0836,9.007,8.9771,9.0719,9.1928,8.8435,8.8156,8.9598,8.8923,8.932,9.0144,9.0111,9.1078,9.2253,9.1787,9.2332,9.31,9.298,9.2827,9.2658,9.2658,9.2895,9.3267,9.3673,9.3774,9.3842,9.4045,9.3673,9.3064,9.2286,9.1778,9.1406,9.1068,9.0087,8.901,8.8013,8.7,8.6398,8.6693,8.6261,8.593,8.6132,8.5708,8.5959,8.7411,8.5601,8.4302,8.4268,8.1882,7.9389,7.7063,7.5266,7.3914,7.3037,7.2224,7.1807,7.1807,7.1961,7.1499,0.0,0.0,0.0,0.0,0.0,0.0,0.0,0.0,0.0,0.0,0.0,0.0,0.0,0.0,0.0,0.0,0.0,0.0,0.0,0.0,0.0,0.0,6.6543,7.1738,7.5118,7.718,7.9857,8.3807,8.5162,8.6299,8.7496,8.7616,8.8155,8.9471,9.0279,9.1207,9.2212,9.2015,9.2224,9.2972,9.2015,9.1626,9.2015,9.2314,9.2434,9.2464,9.3122,9.3302,9.3002,9.3002,9.2643,9.2045,9.2045,9.1656,9.1069,9.1879,9.2768,9.3349,0.0,0.0,0.0,0.0,9.3718,9.4932,9.4348,9.5274,9.6617,9.5851,9.6215,9.692,9.648,9.6142,9.5872,9.5872,9.5973,9.6142,9.648,9.6311,9.6108,9.6108,9.5296,9.4315,9.3537,9.2865,9.2257,9.1846,9.0932,0.0,8.9072,8.8351,8.8076,8.8542,8.7941,8.7442,8.7442,8.6503,8.6316,8.766,8.5878,8.4411,8.393,8.1526,0.0,0.0,0.0,7.301,7.2268,7.2133,0.0,0.0,0.0,7.4109,7.2845,7.5094,0.0,0.0,7.4037,7.3932,0.0,0.0,0.0,0.0,0.0,0.0,0.0,0.0,0.0,0.0,0.0,0.0,0.0,0.0,0.0,0.0,7.2718,7.8641,8.5314,8.4384,8.4295,8.7856,8.8783,8.992,9.1985,9.2105,9.2643,9.405,9.4139,9.4409,9.5007,9.4319,0.0,0.0,0.0,9.2703,9.2703,9.3361,9.3691,9.3691,9.4469,9.4499,9.3973,9.384,9.3451,9.2823,9.2957,9.2663,9.2259,9.4938,9.5446,9.4392,9.3018,9.4301,9.6873,9.6517,9.743,9.868,9.7425,0.0,0.0,9.9593,9.9796,10.0305,10.0204,9.9762,9.9221,9.9221,9.8815,9.851,9.9085,9.8747,9.824,9.8138,9.7056,9.5838,9.5127,9.3808,9.2764,9.2662,9.1445,9.0425,9.0357,9.0404,9.0821,9.1834,9.1338,9.0903,9.0903,8.8784,8.7402,8.7638,8.5837,0.0,8.2069,8.0647,7.8505,7.5314,7.4043,7.3127,7.2565,7.3325,7.3639,7.3494,7.8268,7.9737,7.7758,8.186,8.3657,8.3283,8.162,8.1221,0.0,0.0,0.0,0.0,0.0,0.0,0.0,0.0,0.0,0.0,0.0,0.0,0.0,0.0,0.0,7.3128,7.9427,8.5077,8.9101,9.016,9.0788,9.1566,9.1776,9.2823,9.5366,9.5127,9.5576,9.7431,9.7581,9.7641,9.7715,9.6653,9.6039,9.6039,9.4332,9.3391,9.3391,9.408,9.4409,9.4439,9.5606,0.0,9.6009,9.5456,9.4858,9.4256,9.5389,9.5535,9.508,9.7282,9.8939,10.0011,9.8541,9.8361,9.9114,10.0585,10.1416,10.1711,10.1408,10.1603,10.1895,10.1183,10.1113,10.1014,10.0405,10.0102,0.0,9.9999,10.0405,10.0608,10.0069,9.9866,9.9627,9.9018,9.8206,9.736,9.6616,9.577,9.4958,9.4383,9.3001,9.1783,9.1203,8.9658,8.8622,8.8869,8.8234,8.7795,8.7795,8.6803,8.6791,8.8582,8.6277,8.4918,8.5757,8.2322,7.9583,7.829,7.6338,7.5435,7.5942,7.7022,7.7877,7.8396,8.0408,8.1493,8.1682,8.2622,8.4237,8.6425,8.3669,8.2791,0.0,0.0,0.0,0.0,0.0,0.0,0.0,0.0,0.0,0.0,0.0,5.7456,6.1363,0.0,7.5802,7.918,8.4752,8.9711,9.2703,9.396,9.4588,9.4588,9.4588,9.5366,9.7371,9.7252,9.7611,9.8927,9.9017,9.9167,9.9496,9.8269,9.7401,9.7042,9.5755,9.5111,9.5111,9.5725,9.6234,9.6563,9.7581,9.767,9.7057,9.7776,9.7564,9.6729,9.8122,9.8395,9.7857,9.9559,10.1584,10.3591,10.2523,10.1922,10.1722,10.2684,10.3077,10.3009,10.2603,10.2705,10.2908,10.2198,10.2027,10.1893,10.1487,10.1419,10.1419,10.1419,10.159,10.1893,10.1487,10.0811,10.0102,9.9762,9.851,9.736,9.6985,9.6311,9.5567,9.4857,9.3774,9.2759,9.1981,9.0324,8.897,8.8598,8.7922,8.7448,8.7448,8.6805,8.6771,8.7888,8.667,8.573,8.573,8.234,7.9735,7.8619,7.8439,7.8532,7.8944,8.0847,8.1913,8.1891,8.36,8.5148,8.6567,8.7316,8.9611,9.3231,9.168,9.0439,0.0,0.0,0.0,0.0,0.0,0.0,0.0,4.7987,5.1261,5.5601,6.0666,6.5859,7.0802,7.7461,8.2914,8.4981,8.9411,9.3421,9.5815,9.6713,9.7266,9.7536,9.7236,9.7521,9.8957,9.8987,9.9226,10.0004,10.0094,10.0304,10.0918,9.9735,9.8778,9.8089,9.7461,9.7072,9.6952,9.7581,9.8149,9.8718,9.9256,9.9123,9.8547,9.9857,10.008,9.9568,10.0804,10.1413,10.1516,10.2324,10.3994,10.5986,10.5411,10.47,10.399,10.3889,10.3787,10.3686,10.3111,10.3314,10.3686,10.2976,10.2705,10.2705,10.247,10.2502,10.2502,10.2502,10.2502,10.2502,10.2502,10.1487,10.0407,10.0407,9.8848,9.7357,9.7357,9.6646,9.5838,9.5229,9.4417,9.3537,9.2793,9.1541,9.0324,8.9444,8.8801,8.8361,8.8226,8.7685,8.7279,8.7144,8.7008,8.6338,8.4952,8.2869,8.1077,7.9741,8.1424,8.2576,8.2913,8.5271,8.648,8.6358,8.8306,9.0303,9.2231,9.3477,9.6045,9.9805,9.9805,9.8526,4.175,4.0478,4.0634,4.4115,4.4294,4.5271,0.0,5.5419,5.8792,6.2817,6.9047,7.4529,7.702,8.2692,8.7765,9.0305,9.3708,9.6533,9.8,9.8748,9.9615,10.0829,9.9376,9.9047,10.1008,10.0603,10.0782,10.2069,10.2189,10.2189,10.2279,10.1607,10.0918,10.0184,9.9526,9.8897,9.8299,9.8957,9.9316,9.9406,9.9466,10.0399,10.2098,10.0384,10.0698,10.2517,10.3193,10.4785,10.6995,10.6494,10.6495,10.6798,10.6697,10.6189,10.5479,10.4802,10.4598,10.4598,10.4497,10.4498,10.4497,10.3686,10.3483,10.3382,10.2705,10.2502,10.2502,10.2502,10.2502,10.2502,10.2502,10.1893,10.1316,10.1316,9.9999,9.8848,9.8848,9.7732,9.6748,9.668,9.5533,9.4349,9.3571,9.2759,9.1682,9.029,9.0019,8.9715,8.9038,8.8897,8.8598,8.7955,8.7279,8.6569,8.5723,8.6388,8.6499,8.5599,8.6813,8.821,8.9627,9.1018,9.2707,9.4691,9.6045,9.7551,9.9189,9.9373,10.0403,10.2301,10.2301,10.169,4.4576,4.4263,4.5164,4.7729,4.933,5.1606,5.6603,6.088,6.5082,6.9693,7.6046,8.1891,8.542,8.9805,9.3332,9.4798,9.6862,9.8598,9.9526,10.0214,10.0573,10.0409,9.9945,10.0304,10.189,10.18,10.189,10.2535,10.2488,10.2488,10.2488,10.1906,10.1218,10.0483,10.0214,9.9945,9.9675,10.0304,10.1306,10.2611,10.3009,10.3724,10.4698,10.5489,10.6284,10.7195,10.6991,10.7295,10.7982,10.8185,10.7982,10.7475,10.7475,10.761,10.7576,10.5919,10.531,10.5276,10.4802,10.5005,10.5208,10.4531,10.3889,10.3517,10.3212,10.2774,10.2502,10.2502,10.2502,10.2502,10.2502,10.2027,10.1418,10.1418,10.0506,9.9762,9.9762,9.8916,9.8037,9.7631,9.6683,9.5601,9.4451,9.3605,9.2895,9.2252,9.1406,9.0729,9.0425,9.0357,9.0256,8.9951,8.9942,8.9865,8.9521,9.0339,9.069,9.0374,9.1946,9.3163,9.3845,9.5944,9.7556,9.852,9.9496,10.0596,10.1714,10.2191,10.2999,10.4079,10.5091,10.5406,4.7538,4.8033,4.9464,5.2144,5.4648,5.7756,6.2562,6.7266,7.2124,7.7476,8.3334,8.8686,9.2508,9.5366,9.7431,9.8419,9.9556,10.0573,10.1201,10.1308,10.0693,9.9376,9.9017,9.9406,10.0693,10.1501,10.2099,10.2488,10.2488,10.2488,10.2488,10.2009,10.1607,10.1128,10.1128,10.1128,10.1128,10.1501,10.2895,10.5088,10.5398,10.6211,10.7593,10.9927,11.0878,11.0892,11.008,10.9471,10.8997,10.9302,10.8997,10.8286,10.8286,10.8693,10.9031,10.7306,10.6595,10.6291,10.5614,10.5715,10.5986,10.5208,10.4498,10.3889,10.3889,10.3382,10.2806,10.2806,10.2806,10.2806,10.2603,10.2096,10.169,10.169,10.1115,10.0474,10.0474,9.9796,9.895,9.8409,9.7529,9.6578,9.5499,9.4687,9.4282,9.448,9.3537,9.2624,9.2015,9.1913,9.1985,9.2141,9.2747,9.3225,9.337,9.4335,9.4877,9.4877,9.6603,9.7697,9.7894,9.9862,10.131,10.2008,10.2615,10.3423,10.4394,10.4981,10.5605,10.6098,10.7404,10.7881,5.0333,5.0859,5.2161,5.75,5.9538,6.2284,7.023,7.5633,8.0725,8.6846,9.1392,9.489,9.6952,9.794,9.9107,10.1098,10.2026,10.2608,10.3189,10.171,10.0004,9.8718,9.6324,9.5306,9.6667,9.9047,10.1082,10.2398,10.2488,10.2488,10.2488,10.2488,10.2488,10.2398,10.2398,10.2398,10.2398,10.2535,10.3592,10.5801,10.5119,10.7079,11.1282,11.2083,11.2412,11.2415,11.1705,11.1298,11.1196,11.0587,10.9809,10.9201,10.9201,10.9201,10.9201,10.9099,10.8591,10.7779,10.7103,10.6798,10.6697,10.602,10.5276,10.47,10.47,10.4192,10.3585,10.3585,10.3585,10.3382,10.2705,10.2502,10.2502,10.2502,10.1893,10.1418,10.1418,10.0199,9.9085,9.9051,9.7867,9.6883,9.6849,9.621,9.5973,9.6714,9.6781,9.5969,9.3837,9.3533,9.3712,9.4264,9.5026,9.5707,9.6306,9.8247,9.9398,9.9398,10.0584,10.171,10.2518,10.2611,10.3806,10.6213,10.6192,10.7,10.8615,10.8615,10.8688,10.8688,10.8688,10.8799,5.1707,5.4421,5.7966,6.216,6.6397,7.1022,7.6778,8.2191,8.6868,9.0093,9.0881,9.1553,9.3289,9.1036,9.096,9.7252,9.7982,9.8977,10.2305,10.2608,10.0812,9.6444,9.6294,9.6025,9.4708,9.6637,9.8808,10.0992,10.1607,10.2009,10.2488,10.2488,10.2488,10.2488,10.2488,10.3191,10.4716,10.4716,10.6593,11.0324,11.0979,11.2376,11.4334,11.3614,11.3496,11.3902,11.3192,11.2312,11.1502,11.2211,11.1501,10.9978,11.0486,11.0723,11.0486,10.9607,10.9302,10.9301,10.8118,10.761,10.7509,10.6798,10.602,10.5411,10.5411,10.4904,10.4295,10.4295,10.399,10.3517,10.328,10.2908,10.2502,10.2502,10.2299,10.2096,10.2096,10.1318,10.0574,10.0574,9.9796,9.895,9.8442,9.8138,9.807,9.8307,9.7935,9.7191,9.5969,9.7057,9.7854,9.7564,9.9846,10.1518,10.1701,10.3193,10.4107,10.4107,10.4499,10.4892,10.5091,10.5699,10.6302,10.7205,10.7697,10.8285,10.8799,10.9312,10.9312,10.8799,10.99,11.012,5.5755,5.9592,6.423,6.8835,7.3429,7.8319,8.3984,8.8189,9.1043,9.1538,9.0567,8.9567,8.9014,8.6399,8.6679,9.3932,9.4886,9.6477,10.1378,10.1291,9.9286,9.5725,9.5157,9.4558,9.3332,9.4409,9.6623,10.0184,10.0872,10.1501,10.2535,10.2488,10.2488,10.2488,10.3313,10.4385,10.5832,10.6605,10.8779,11.2507,11.4267,11.5323,11.5797,11.4816,11.4577,11.5086,11.4613,11.3699,11.272,11.3598,11.2989,11.1501,11.2008,11.2008,11.167,11.0689,11.0486,11.0418,10.8591,10.7982,10.7915,10.7103,10.6392,10.5784,10.6122,10.5682,10.5005,10.4802,10.4395,10.3889,10.3314,10.2908,10.2502,10.2502,10.2502,10.2502,10.2502,10.1893,10.1418,10.1418,10.0777,10.0001,9.9559,9.9728,10.0083,10.0599,10.049,9.9978,9.8984,10.0106,10.1095,10.139,10.3726,10.5314,10.5499,10.6612,10.7315,10.7315,10.7315,10.7315,10.7315,10.7792,10.8196,10.849,10.9004,10.9386,10.9679,11.0193,11.0193,10.9716,11.0707,11.0891,6.2157,6.6219,7.0799,7.7066,8.0579,8.426,9.143,9.3389,9.3262,9.1378,9.0409,8.8551,8.4398,8.3892,8.5903,9.1411,9.3039,9.5486,10.0918,9.8389,9.6204,9.6667,9.3361,9.1494,9.2703,9.2823,9.4977,10.0094,10.0529,10.1022,10.2398,10.2582,10.2705,10.2676,10.479,10.5991,10.6123,10.8316,11.0503,11.2801,11.4912,11.5898,11.5898,11.5898,11.5794,11.5794,11.5794,11.5391,11.468,11.4714,11.4308,11.3598,11.3598,11.3192,11.2517,11.2517,11.2008,11.1095,10.8896,10.8118,10.7881,10.7204,10.6494,10.5986,10.6697,10.6392,10.5716,10.5005,10.4701,10.4395,10.2908,10.247,10.2502,10.2502,10.2502,10.2502,10.2502,10.2027,10.1519,10.1519,10.0811,10.0303,10.0398,10.1073,10.201,10.3477,10.4302,10.4203,10.2804,10.2688,10.3494,10.5392,10.6414,10.7186,10.7685,10.8505,10.8909,10.8909,10.8909,10.8909,10.8909,10.8909,10.9312,11.001,11.0105,11.0414,11.1221,11.1221,11.1221,11.1221,11.1221,11.1221,6.6573,7.2373,7.8081,8.1365,8.6566,9.155,9.4359,9.3474,9.1702,9.0299,8.4171,7.8706,7.737,7.6513,7.9034,8.8108,9.1776,9.5853,10.271,10.2787,10.1112,9.8359,9.7551,9.6803,9.5666,9.5965,9.7431,10.0274,10.0004,10.0573,10.2398,10.4476,10.5524,10.5032,10.7096,10.9104,11.0811,11.2974,11.4704,11.58,11.6283,11.6609,11.6609,11.6609,11.6304,11.5794,11.5794,11.5391,11.4714,11.5289,11.4816,11.3699,11.4207,11.3598,11.2517,11.2517,11.2008,11.1196,11.0114,10.9403,10.8794,10.8016,10.7204,10.6697,10.6798,10.6798,10.6494,10.5716,10.5107,10.4497,10.3585,10.2908,10.2502,10.2502,10.2502,10.2502,10.2502,10.2401,10.2198,10.2198,10.2096,10.2208,10.328,10.3595,10.4303,10.572,10.6119,10.5908,10.4984,10.628,10.7293,10.7304,10.8895,11.0081,11.0318,11.0487,11.0597,11.0597,11.0597,11.0597,11.0597,11.0597,11.0707,11.0891,11.0891,11.1001,11.1221,11.1221,11.1221,11.1221,11.1221,11.1221,7.2823,7.8147,8.3366,8.7485,9.1652,9.4424,9.3299,9.2071,8.9302,8.2947,7.763,7.3298,7.0657,7.214,7.6484,8.466,9.0201,9.5927,10.3009,10.3206,10.2189,10.0766,10.0214,9.9496,9.8389,9.8598,9.9526,10.1201,10.0782,10.0992,10.2398,10.5193,10.6514,10.5832,10.8905,11.1693,11.3883,11.5515,11.6507,11.6913,11.7285,11.7421,11.7421,11.7082,11.671,11.6304,11.5896,11.5594,11.5222,11.5591,11.5323,11.4613,11.5019,11.4274,11.2989,11.2989,11.2279,11.1298,11.0892,11.008,10.9099,10.8287,10.7509,10.69,10.69,10.69,10.6697,10.602,10.5513,10.5005,10.4295,10.3517,10.3009,10.3009,10.2705,10.2502,10.2502,10.2502,10.2502,10.2502,10.3008,10.3821,10.5005,10.568,10.662,10.8092,10.8303,10.8403,10.8608,10.8879,10.9089,10.9298,11.0512,11.1221,11.1221,11.1221,11.1221,11.1221,11.1221,11.1221,11.1221,11.1221,11.1221,11.1221,11.1221,11.1221,11.1221,11.1221,11.1221,11.1221,11.1221,11.1221,7.9566,8.3776,8.8125,9.3762,9.5763,9.5158,9.0723,8.9517,8.5855,7.3799,7.1554,7.0292,6.5475,7.0037,7.6458,8.2418,8.9086,9.6026,10.2997,10.2398,10.192,10.3715,10.2309,10.1218,10.1218,10.1218,10.1806,10.3273,10.2882,10.2792,10.3183,10.6206,10.7668,10.7296,11.1095,11.4112,11.6099,11.6673,11.7116,11.7218,11.7894,11.8232,11.8199,11.7522,11.7116,11.6879,11.6203,11.5898,11.5794,11.5794,11.5794,11.5794,11.5794,11.4985,11.3699,11.3598,11.2718,11.1501,11.1399,11.0384,10.9099,10.8388,10.761,10.69,10.69,10.69,10.6697,10.602,10.5817,10.5614,10.4903,10.4193,10.372,10.372,10.328,10.2806,10.2806,10.2806,10.2803,10.2893,10.4016,10.5308,10.6407,10.7619,10.9001,11.0399,11.0693,11.1082,11.2408,11.0712,10.9907,11.122,11.1405,11.1295,11.1221,11.1221,11.1221,11.1221,11.1221,11.1221,11.1221,11.1221,11.1221,11.1221,11.1221,11.1221,11.1221,11.1221,11.1221,11.1221,11.1221,11.1221,8.3988,9.0147,9.5656,9.6239,9.8068,9.7934,9.1227,8.5902,8.0114,7.1941,6.8504,6.666,6.5736,7.0012,7.6575,8.5358,9.0506,9.6506,10.5522,10.5929,10.572,10.6588,10.5421,10.4613,10.4613,10.4613,10.5487,10.7704,10.8227,10.7996,10.701,11.0991,11.3803,11.4898,11.5684,11.6577,11.7725,11.7827,11.8199,11.8808,11.8909,11.9011,11.8977,11.8875,11.8097,11.6913,11.6812,11.6406,11.5794,11.5794,11.5794,11.5794,11.5794,11.5289,11.441,11.3801,11.309,11.2177,11.1602,11.0384,10.9201,10.8997,10.7982,10.69,10.69,10.69,10.6697,10.602,10.5817,10.5614,10.4903,10.4598,10.4498,10.4498,10.4396,10.4295,10.4295,10.4295,10.4514,10.521,10.5978,10.7403,10.9989,11.0589,11.1304,11.2797,11.3018,11.3087,11.3424,11.2495,11.1915,11.219,11.2212,11.1919,11.1295,11.1221,11.1221,11.1221,11.1221,11.1221,11.1221,11.1221,11.1221,11.1221,11.1221,11.1221,11.1221,11.1221,11.1221,11.1221,11.1221,11.1221,8.6146,9.248,9.889,9.9934,9.9057,9.5671,8.6827,8.1068,7.5256,6.6955,6.5065,6.4925,6.4959,7.0042,7.5899,8.1039,8.6338,9.2934,10.1888,10.2701,10.3835,10.7964,10.7575,10.6977,10.6977,10.6977,10.8004,11.0388,11.1623,11.1605,11.0413,11.3075,11.5501,11.7482,11.7522,11.7691,11.8097,11.8503,11.8808,11.918,11.9586,11.9826,11.9687,11.8977,11.8199,11.7488,11.671,11.6099,11.5794,11.5794,11.5794,11.5794,11.5794,11.5323,11.4579,11.3902,11.309,11.2415,11.1705,11.0689,10.9708,10.9302,10.8219,10.69,10.69,10.69,10.6798,10.6494,10.6392,10.6291,10.5885,10.5614,10.5276,10.5276,10.5005,10.47,10.47,10.5315,10.6001,10.6385,10.8283,11.0497,11.23,11.3586,11.4508,11.4823,11.4782,11.4708,11.4305,11.3901,11.3497,11.3116,11.2616,11.2212,11.1882,11.1405,11.1221,11.1221,11.1588,11.1808,11.1808,11.2212,11.2286,11.1808,11.1808,11.1808,11.1808,11.1405,11.1405,11.1808,11.1405,11.1221,8.8638,9.484,10.1333,10.2774,9.9256,9.2695,8.2412,7.7078,7.1682,6.2571,6.2557,6.4225,6.4274,6.925,7.4088,7.6495,8.1409,8.8228,9.7563,9.9004,10.1613,10.8413,10.9031,10.8822,10.8593,10.9077,11.0209,11.2091,11.4306,11.5088,11.4007,11.4982,11.6504,11.8297,11.8503,11.8605,11.8605,11.9281,11.9586,11.9383,11.9992,12.03,12.03,11.9078,11.8402,11.803,11.6775,11.6101,11.5794,11.5794,11.5794,11.5794,11.5794,11.5388,11.4816,11.4105,11.3496,11.2786,11.1906,11.1196,11.0418,10.9674,10.8388,10.7103,10.69,10.69,10.69,10.69,10.69,10.69,10.69,10.6494,10.602,10.602,10.5811,10.5595,10.5493,10.6826,10.8074,10.8395,11.1006,11.3508,11.4608,11.6308,11.7204,11.6397,11.6397,11.6177,11.5185,11.5222,11.5002,11.4217,11.3387,11.28,11.2689,11.1919,11.1515,11.1698,11.2102,11.2506,11.2616,11.3299,11.3299,11.2689,11.2689,11.2689,11.2689,11.1808,11.1882,11.2616,11.1808,11.1493,9.335,10.0001,10.528,10.3129,9.8598,9.2009,8.1729,7.5836,7.0153,6.1814,6.2286,6.4302,6.46,6.6581,7.0291,7.6818,7.9069,8.4072,9.5935,9.9566,10.2922,10.7915,10.949,10.9909,10.9371,11.1315,11.2708,11.2914,11.7008,11.9201,11.8604,11.8668,11.889,11.9078,11.9687,12.0131,12.0131,12.0803,12.0871,12.0232,12.03,12.03,12.03,12.0199,11.942,11.8097,11.7996,11.7116,11.5794,11.5794,11.5794,11.5794,11.5794,11.5797,11.5628,11.4883,11.4615,11.4274,11.2923,11.1873,11.1196,11.0418,10.92,10.7813,10.7103,10.69,10.69,10.69,10.69,10.69,10.69,10.6798,10.6798,10.6798,10.7815,10.8584,10.7889,10.9474,11.1496,11.2918,11.401,11.5489,11.762,11.8198,11.8012,11.7181,11.7718,11.7608,11.6103,11.6507,11.669,11.5883,11.5112,11.4305,11.3593,11.2822,11.2579,11.3277,11.2822,11.2689,11.3519,11.3593,11.3593,11.3519,11.3519,11.3519,11.3519,11.2689,11.2689,11.3519,11.2689,11.2689,8.9294,9.8023,10.6677,10.5211,9.8179,8.9734,8.2354,7.4802,6.7753,6.2122,6.2323,6.375,6.4499,6.5842,6.8185,7.229,7.3055,7.6738,8.7039,8.9601,9.3845,10.3099,10.5391,10.7731,11.1712,11.3007,11.46,11.6992,12.0301,12.19,12.1205,12.077,12.0296,11.9928,12.0093,12.03,12.03,12.0567,12.0605,12.03,12.03,12.03,12.03,11.9383,11.8672,11.803,11.7116,11.6406,11.5794,11.5794,11.5794,11.5794,11.5794,11.5794,11.5729,11.4985,11.468,11.4615,11.3496,11.2989,11.2515,11.1298,11.0519,10.9809,10.8591,10.8321,10.8321,10.8321,10.8321,10.8185,10.7712,10.761,10.7711,10.8186,10.9092,10.9981,11.0727,11.2318,11.3915,11.5,11.7001,11.8682,11.9115,12.0398,12.0691,11.8893,11.9407,11.9297,11.7682,11.7314,11.7094,11.6801,11.5589,11.4708,11.4305,11.3607,11.3299,11.3593,11.3791,11.4011,11.4305,11.4782,11.4782,11.4305,11.4305,11.4305,11.4305,11.3497,11.3497,11.4305,11.3497,11.3299,8.5324,9.3902,10.2595,10.2799,9.5135,8.6234,8.0829,7.2795,6.5505,6.2082,6.2154,6.3104,6.3989,6.5194,6.6672,6.8641,6.9292,7.236,8.0549,8.2958,8.7547,9.7342,10.0605,10.4266,11.0075,11.2825,11.5922,12.0003,12.1882,12.2499,12.1794,12.191,12.1717,12.1011,12.1011,12.0803,12.0601,12.0601,12.0499,12.03,12.03,12.0199,11.989,11.8909,11.8199,11.7691,11.6609,11.6,11.5794,11.5794,11.5794,11.5794,11.5794,11.5794,11.5693,11.5222,11.5019,11.4917,11.4207,11.3902,11.3699,11.2482,11.1906,11.1501,11.052,10.9674,10.9201,10.9201,10.9201,10.9202,10.9098,10.9028,10.9287,11.0282,11.1288,11.24,11.3489,11.4891,11.6199,11.6997,11.8986,12.0508,12.0422,12.1793,12.2307,12.0288,12.0691,12.0508,11.8306,11.7792,11.7388,11.6911,11.581,11.5185,11.5185,11.4415,11.4107,11.4327,11.4818,11.5296,11.5516,11.6103,11.6103,11.5516,11.5296,11.5185,11.5185,11.4305,11.4378,11.5112,11.4305,11.4107,8.3158,8.8539,9.1741,9.3804,8.8532,8.1476,7.6082,6.9397,6.3659,6.1302,6.1554,6.2397,6.3,6.4199,6.5635,6.7255,6.9216,7.2616,7.8688,8.2986,8.6974,9.1002,9.5838,9.9979,10.2691,11.0216,11.6601,12.0791,12.1105,12.0776,12.0126,12.2299,12.3205,12.2495,12.2495,12.2089,12.1412,12.1412,12.1006,12.03,12.03,11.989,11.918,11.918,11.8368,11.6913,11.6913,11.6507,11.5794,11.5794,11.5794,11.5794,11.5794,11.5794,11.5794,11.5831,11.5831,11.5729,11.4917,11.468,11.4579,11.3801,11.309,11.2517,11.2517,11.0892,10.9201,10.9201,10.9201,10.9509,11.1085,11.1497,11.1901,11.3499,11.5005,11.6098,11.6197,11.7315,11.8612,11.9407,11.959,12.0104,12.1817,12.2111,12.1793,12.0985,12.1597,12.0912,11.7585,11.7902,11.7792,11.6177,11.5993,11.5993,11.5993,11.5296,11.5112,11.5883,11.5993,11.6287,11.7108,11.7204,11.7204,11.7204,11.6397,11.5993,11.5993,11.5185,11.5185,11.5993,11.5185,11.5185,7.4856,8.0524,8.5319,8.562,8.0771,7.5008,7.1537,6.6866,6.2617,6.0607,6.1048,6.2058,6.2937,6.3997,6.5745,6.8709,6.9712,7.1906,7.695,8.1582,8.692,9.3557,10.5429,11.3203,11.3718,11.9401,12.2782,12.2004,12.3415,12.4305,12.3996,12.4164,12.3577,12.1785,12.1717,12.1379,12.0706,12.0601,12.0499,12.03,11.9826,11.9383,11.918,11.8097,11.7387,11.6879,11.6406,11.5997,11.5794,11.5794,11.5794,11.5794,11.5794,11.5794,11.5794,11.5794,11.5794,11.5797,11.549,11.5492,11.5323,11.4613,11.4173,11.3801,11.2822,11.1705,11.0899,11.2018,11.1902,11.1912,11.3501,11.3919,11.4199,11.5203,11.6204,11.7398,11.9104,11.9327,11.9811,12.1793,12.2123,12.2086,12.2086,12.3004,12.3077,12.1205,12.1572,12.1279,11.9113,11.8599,11.8012,11.6911,11.6287,11.5993,11.5993,11.5773,11.5993,11.6801,11.6801,11.7204,11.8012,11.8012,11.8012,11.8012,11.7204,11.6801,11.6801,11.5993,11.5773,11.5993,11.5699,11.5773,6.7519,7.1958,7.5875,7.7166,7.3591,6.9236,6.7019,6.3706,6.0824,5.9878,6.0573,6.1651,6.2632,6.4027,6.5844,6.8293,6.9764,7.1726,7.4916,7.9217,8.5531,9.4969,10.6696,11.5179,11.8408,12.2315,12.4379,12.4124,12.5185,12.5912,12.5912,12.4897,12.3713,12.2292,12.1988,12.1582,12.1074,12.0605,12.0199,11.9928,11.9383,11.8909,11.83,11.7319,11.6673,11.6507,11.6,11.5794,0.0,11.5794,11.5794,11.5794,11.5794,11.5794,11.5794,11.5794,11.5794,11.5794,11.5794,11.5794,11.5804,11.6014,11.6099,11.589,11.4683,11.3388,11.2503,11.3393,11.3815,11.4303,11.5906,11.6306,11.6591,11.7714,11.8312,11.9122,12.0596,12.0508,12.0508,12.2086,12.2417,12.2307,12.2086,12.2894,12.3077,12.1572,12.1817,12.1523,11.9774,11.9187,11.8489,11.7695,11.7204,11.6911,11.6911,11.6617,11.6801,11.7608,11.7878,11.8306,11.8783,11.8893,11.8893,11.8893,11.8085,11.7718,11.7718,11.6801,11.6617,11.6911,11.6617,11.6507,0.0,6.3089,6.4163,6.8269,6.6784,6.3909,6.2462,6.0163,0.0,5.9209,6.0132,6.1159,6.2186,6.4228,6.5985,6.6581,6.9413,7.1937,7.3118,7.7275,8.4454,9.5971,10.2486,10.9322,11.7792,12.0207,12.2728,12.6471,12.6306,12.5979,12.5912,12.4525,12.3713,12.3611,12.2901,12.2495,12.2393,12.1011,11.9928,11.9281,11.9078,11.83,11.7015,11.6913,11.6369,11.5794,11.5794,11.5794,11.5794,11.5794,11.5794,11.5794,11.5794,11.5794,11.5794,11.5794,11.5794,11.5797,11.5909,11.5979,11.6304,11.792,11.8418,11.828,11.7602,11.5693,11.3876,11.4004,11.5193,11.6682,11.8301,11.8712,11.9101,12.0584,12.0912,12.0912,12.0985,12.0912,12.0912,12.1022,12.0985,12.1205,12.2,12.2111,12.2111,12.1976,12.1976,12.1389,11.9774,11.959,11.9297,11.8599,11.8416,11.8489,11.8599,11.7902,11.7718,11.8489,11.9297,11.9774,11.9908,11.9774,11.9798,11.9798,11.8893,11.8489,11.8416,11.7585,11.7718,11.8416,11.7585,11.7291,5.3292,0.0,5.6346,5.7368,5.7516,5.7399,0.0,5.7637,5.8126,5.8537,5.9426,6.0695,6.257,6.4283,6.5895,6.7377,6.9586,7.226,7.5442,8.639,9.6447,10.2726,11.1898,11.7799,11.7996,12.3588,12.6399,12.4404,12.5796,12.6487,12.5912,12.4998,12.422,12.3572,12.2901,12.219,12.1683,12.0195,11.9725,11.9992,11.83,11.759,11.7793,11.6609,11.6,11.5794,11.5794,11.5794,11.5794,11.5794,11.5794,11.5794,11.5794,11.5794,11.5794,11.5794,11.5794,11.5979,11.7301,11.7715,11.7988,11.9699,11.939,11.8386,11.8174,11.6908,11.5788,11.7019,11.8111,11.9103,12.01,12.0803,12.1206,12.0986,12.0912,12.1095,12.1683,12.1279,12.1279,12.249,12.2196,12.1927,12.2111,12.2111,12.1927,12.1279,12.1205,12.0802,11.97,11.959,11.948,11.9297,11.8783,11.9187,12.1095,11.9884,11.9407,12.0288,12.1095,12.1793,12.2417,12.1793,12.1499,12.1499,12.0128,11.9003,11.8416,11.8195,11.8195,11.8416,11.8195,11.8122,5.0074,5.1904,5.3484,5.3675,5.4415,5.5199,5.5505,5.6484,5.749,5.8265,5.9336,6.0613,6.2151,6.4374,6.6378,6.777,7.0585,7.4525,8.0108,9.1352,10.0913,10.5788,11.4499,12.0468,12.1286,12.5114,12.6985,12.5715,12.6484,12.6487,12.5404,12.4288,12.351,12.3104,12.2127,12.1518,12.1412,12.0296,11.9623,11.9281,11.7996,11.7319,11.7015,11.6203,11.5794,11.5794,11.5794,11.5794,11.5794,11.5794,11.5794,11.5794,11.5794,11.5794,11.5794,11.5794,11.5594,11.5613,11.7578,11.9313,12.0591,12.1182,12.1008,12.0625,12.0202,11.9292,11.831,11.8489,11.9318,12.0389,12.0816,12.1205,12.1389,12.0985,12.0912,12.0985,12.1499,12.1205,12.1205,12.2013,12.1793,12.1499,12.1499,12.1499,12.1389,12.0985,12.0912,12.0691,12.0288,12.0178,12.0288,12.0691,12.0422,12.0802,12.249,12.2196,12.1903,12.2013,12.2111,12.249,12.3298,12.2894,12.249,12.2111,12.0802,11.9994,11.9517,11.9113,11.9187,11.9517,11.9113,11.9003,4.9389,5.1354,5.313,5.3417,5.4306,5.5174,5.5472,5.6166,5.7044,5.8156,5.956,6.0895,6.1988,6.5069,6.7816,6.8795,7.306,7.8612,8.5486,9.4493,10.1996,10.6609,11.4179,12.0615,12.4293,12.5306,12.6222,12.7476,12.6994,12.5979,12.4423,12.3172,12.2393,12.2292,12.0973,12.0499,12.1108,12.0398,11.9484,11.83,11.803,11.7181,11.6,11.5898,11.5794,11.5794,11.5794,11.5794,11.5794,11.5794,11.5794,11.5794,11.5794,11.5794,11.5831,11.5695,11.5403,11.5431,11.801,12.0891,12.3313,12.2598,12.2705,12.3004,12.2307,12.1499,12.0621,11.9283,11.9904,12.1095,12.0912,12.0985,12.1095,12.0912,12.0985,12.1095,12.1095,12.1095,12.1095,12.1205,12.1095,12.0985,12.1205,12.1205,12.1095,12.1205,12.1279,12.1205,12.1095,12.1205,12.1499,12.2196,12.2307,12.2698,12.3591,12.4105,12.4105,12.3518,12.3028,12.2894,12.3518,12.3518,12.3114,12.2307,12.1609,12.1279,12.1279,12.0508,12.0508,12.1095,12.0288,11.9884,4.9834,5.1321,5.2443,5.2594,5.3892,5.5197,5.5256,5.6632,5.7875,5.7993,5.9657,6.1807,6.3935,6.7982,7.144,7.2639,7.9097,8.5387,8.9474,9.8767,10.5293,10.569,11.5588,12.2105,12.1199,12.4519,12.6295,12.5297,12.51,12.4389,12.2901,12.2596,12.219,12.1582,12.0702,12.0093,11.9518,11.9383,11.9319,11.9011,11.7691,11.6981,11.671,11.6101,11.5794,11.5794,11.5794,11.5794,11.5794,11.5794,11.5794,11.5794,11.5794,11.5794,11.5693,11.5086,11.5712,11.7217,12.0298,12.2707,12.432,12.421,12.3297,12.2294,12.2086,12.1499,12.079,12.0597,12.1207,12.1817,12.1095,12.1389,12.1683,12.1095,12.1389,12.1903,12.1903,12.1903,12.2086,12.282,12.1793,12.1316,12.271,12.238,12.2086,12.282,12.2894,12.271,12.1976,12.249,12.3004,12.3114,12.3114,12.3701,12.5195,12.4215,12.3701,12.4289,12.4803,12.4901,12.4289,12.4289,12.3922,12.3114,12.3004,12.2894,12.2894,12.282,12.249,12.1903,12.1817,12.1413,4.9206,5.0897,5.2834,5.5087,5.5927,5.6322,5.6904,5.8516,6.0088,6.0794,6.2576,6.4752,6.7284,7.1666,7.6757,8.2388,8.7818,9.2548,9.6105,10.2289,10.6796,10.7519,11.4585,11.9608,11.9891,12.272,12.4497,12.4717,12.4322,12.351,12.1988,12.1886,12.1379,12.0195,11.989,11.9383,11.8605,11.8605,11.8402,11.7894,11.7218,11.671,11.6304,11.6,11.5794,11.5794,11.5794,11.5794,11.5794,11.5794,11.5794,11.5794,11.5794,11.5794,11.5804,11.5511,11.6703,11.8717,12.0191,12.2404,12.4399,12.3481,12.2674,12.1976,12.1572,12.1205,12.0912,12.0912,12.1205,12.1389,12.0985,12.1205,12.1389,12.0985,12.1499,12.2,12.1499,12.2086,12.271,12.271,12.2417,12.2417,12.3188,12.3004,12.2894,12.32,12.3298,12.3188,12.2784,12.3114,12.3518,12.3885,12.3922,12.4399,12.5598,12.4582,12.4105,12.4509,12.4803,12.5121,12.5096,12.4693,12.4289,12.3995,12.3518,12.3298,12.3298,12.3298,12.3114,12.271,12.271,12.26,4.8798,5.0683,5.3056,5.6541,5.7335,5.7947,6.0656,6.2196,6.3597,6.5623,6.7408,6.9274,7.148,7.6444,8.2929,9.124,9.5562,9.9033,10.2595,10.6095,10.8782,11.032,11.4101,11.7516,11.9511,12.0902,12.2396,12.3793,12.3408,12.2389,12.1006,12.0905,12.0296,11.8977,11.8774,11.8402,11.7827,11.7587,11.7319,11.6913,11.6913,11.6507,11.5794,11.5794,11.5794,11.5794,11.5794,11.5794,11.5831,11.5628,11.5591,11.5797,11.5388,11.5407,11.5605,11.6113,11.7705,11.9685,12.0095,12.1923,12.3701,12.249,12.2,12.1683,12.1095,12.0912,12.0912,12.0912,12.0985,12.1095,12.0912,12.0912,12.0912,12.1095,12.1707,12.1976,12.1609,12.2307,12.2894,12.249,12.271,12.3114,12.3518,12.3591,12.3591,12.3812,12.3885,12.3812,12.3591,12.3701,12.3995,12.4472,12.4693,12.4986,12.5573,12.5011,12.4582,12.4803,12.4582,12.4901,12.5709,12.5096,12.4803,12.4803,12.4179,12.3885,12.3885,12.3885,12.3812,12.3591,12.3591,12.3518,4.9493,5.1117,5.2414,5.4073,5.6289,5.9991,6.7473,6.8498,6.8964,7.2748,7.4554,7.5766,7.6608,8.2866,8.9651,9.502,9.9813,10.4092,10.7396,11.0587,11.2788,11.3496,11.5905,11.8085,11.982,12.009,12.0595,12.1597,12.1615,12.0905,11.9417,11.942,11.8977,11.8199,11.7488,11.7015,11.7015,11.6304,11.6304,11.6913,11.6913,11.6507,11.5794,11.5794,11.5794,11.5794,11.5794,11.5794,11.5693,11.5086,11.5188,11.5695,11.4308,11.4314,11.5105,11.6611,11.8188,11.9896,12.1385,12.2087,12.2294,12.2086,12.1572,12.0985,12.0912,12.0912,12.0912,12.0912,12.1389,12.1793,12.1095,12.0912,12.1095,12.1793,12.2111,12.2307,12.3004,12.26,12.238,12.3114,12.2674,12.2698,12.4179,12.4399,12.4693,12.5415,12.55,12.5305,12.4509,12.5121,12.5305,12.4582,12.5195,12.5573,12.5709,12.5011,12.4803,12.5598,12.4876,12.4901,12.5709,12.5573,12.5598,12.5598,12.5598,12.55,12.55,12.55,12.5096,12.4399,12.4399,12.3995,4.8106,5.0973,5.414,5.7167,5.9473,6.2528,6.8585,7.2008,7.5056,7.8993,8.1379,8.3547,8.6102,9.0077,9.4662,9.9828,10.399,10.7366,10.993,11.1182,11.201,11.2283,11.3606,11.5408,11.7595,11.8284,11.9194,12.0579,12.0702,12.0093,11.8605,11.9014,11.8605,11.7387,11.7082,11.671,11.6203,11.5896,11.5896,11.6203,11.6203,11.6101,11.5794,11.5794,11.5794,11.5794,11.5794,11.549,11.5086,11.4782,11.4613,11.441,11.3801,11.411,11.5093,11.6589,11.8318,11.9913,12.0986,12.1683,12.1976,12.1499,12.1095,12.0912,12.0912,12.0912,12.0912,12.0912,12.1499,12.1903,12.1095,12.1279,12.1683,12.1976,12.2111,12.2221,12.249,12.3077,12.3518,12.3298,12.3885,12.4472,12.5096,12.5206,12.528,12.5709,12.5709,12.5598,12.5305,12.55,12.5598,12.5305,12.55,12.5525,12.4986,12.4693,12.4582,12.4876,12.4693,12.4901,12.5709,12.5709,12.5709,12.5709,12.5709,12.5709,12.5709,12.5709,12.55,12.5305,12.5906,12.5995,4.7514,5.0814,5.4902,5.8679,6.2163,6.6406,7.3052,7.5671,7.8275,8.3991,8.6968,8.9319,9.1728,9.4217,9.7386,10.191,10.6086,10.9281,11.1076,11.1316,11.1196,11.0666,11.1895,11.3602,11.5478,11.7027,11.8397,11.9802,11.9992,11.9281,11.7793,11.8199,11.7894,11.6609,11.6609,11.6304,11.5794,11.5794,11.5794,11.5794,11.5794,11.5794,11.5794,11.5794,11.5695,11.5492,11.5492,11.5019,11.4308,11.4105,11.3886,11.3697,11.3902,11.471,11.5798,11.6804,11.8305,11.9693,12.0304,12.0985,12.1609,12.1095,12.0691,12.0508,12.0802,12.0691,12.0508,12.0802,12.1499,12.2,12.1389,12.1903,12.249,12.2784,12.2698,12.249,12.2784,12.3481,12.3995,12.3408,12.4399,12.528,12.528,12.55,12.5709,12.5709,12.5709,12.5709,12.5709,12.5709,12.5709,12.5709,12.5709,12.5525,12.4876,12.4876,12.4876,12.4876,12.4876,12.5096,12.5709,12.5709,12.5709,12.5709,12.5709,12.5709,12.5709,12.5709,12.5709,12.5697,12.6702,12.7187,4.8113,5.0831,5.4248,5.7558,6.3695,7.1719,8.2281,7.9872,7.8083,8.7593,9.118,9.2561,9.2259,9.465,9.7669,10.0566,10.583,10.9819,11.1106,11.1286,11.0807,10.952,11.1394,11.3196,11.4214,11.6409,11.8165,11.9097,11.918,11.8503,11.6981,11.6913,11.6609,11.5794,11.5794,11.5831,11.5831,11.5831,11.5831,11.5831,11.5831,11.5831,11.5794,11.5794,11.5391,11.468,11.468,11.4274,11.3496,11.2788,11.2983,11.3787,11.4618,11.592,11.7289,11.7289,11.8279,11.959,11.959,12.0201,12.0912,12.0912,12.0288,11.97,12.0581,12.0288,11.9774,12.0618,12.1499,12.2111,12.2111,12.271,12.3518,12.4289,12.3885,12.3518,12.4289,12.3885,12.3298,12.3298,12.3995,12.4509,12.4509,12.5195,12.5709,12.5709,12.5709,12.5709,12.5709,12.5709,12.5709,12.5709,12.5709,12.5709,12.5709,12.5709,12.5709,12.5709,12.5709,12.5709,12.5709,12.5709,12.5709,12.5709,12.5709,12.5709,12.5709,12.5709,12.5709,12.5697,12.6725,12.7209,4.9345,5.2796,5.73,6.2711,6.8533,7.4601,8.1029,8.2916,8.4726,8.9673,9.4302,9.6666,9.4095,9.7488,10.1188,10.2479,10.6505,10.952,10.9909,11.0328,11.0119,10.8802,11.1704,11.4033,11.4294,11.6995,11.8705,11.8395,11.8402,11.7793,11.6203,11.6609,11.6609,11.5794,11.5289,11.5019,11.5019,11.4511,11.4511,11.4985,11.4511,11.4816,11.5831,11.5289,11.4883,11.4717,11.4173,11.3496,11.2928,11.322,11.3504,11.3779,11.5188,11.6397,11.7289,11.7289,11.7915,11.8783,11.8783,11.8893,11.9113,11.9113,11.9003,11.8783,11.9113,11.9003,11.8893,11.9774,12.0985,12.2196,12.2784,12.3995,12.4876,12.4582,12.3885,12.3518,12.4289,12.4289,12.4105,12.4105,12.4803,12.528,12.528,12.55,12.5709,12.5709,12.5709,12.5709,12.5709,12.5709,12.5709,12.5709,12.5709,12.5709,12.5709,12.5709,12.5709,12.5709,12.5709,12.5709,12.5709,12.5709,12.5709,12.5709,12.5709,12.5709,12.5709,12.5709,12.5709,12.5722,12.7489,12.8277,5.145,5.585,6.1535,6.865,7.425,7.9552,8.5413,8.8944,9.1595,9.389,9.7908,10.038,9.8253,10.0607,10.3236,10.4403,10.7096,10.9101,10.94,10.949,10.9191,10.8084,11.1702,11.4082,11.3506,11.6904,11.8774,11.7691,11.7624,11.7116,11.5898,11.6203,11.6101,11.5391,11.4917,11.4615,11.4274,11.4105,11.4105,11.4274,11.3801,11.3902,11.4511,11.4613,11.4376,11.3803,11.3023,11.2802,11.2983,11.3502,11.4305,11.521,11.6213,11.6897,11.7294,11.7294,11.75,11.7902,11.7902,11.8122,11.8416,11.8416,11.8195,11.8012,11.8306,11.8416,11.8599,11.9394,12.0826,12.2307,12.3114,12.4289,12.5195,12.4986,12.4582,12.4399,12.4901,12.4986,12.4986,12.4986,12.5415,12.5709,12.5709,12.5709,12.5709,12.5709,12.5709,12.5709,12.5709,12.5709,12.5709,12.5709,12.5709,12.5709,12.5709,12.5709,12.5709,12.5709,12.5709,12.5709,12.5709,12.5709,12.5709,12.5709,12.5709,12.5709,12.5709,12.5709,12.5907,12.6289,12.7919,12.8906,5.4314,5.961,6.635,7.5127,8.1048,8.6601,9.3913,9.6864,9.8245,9.8658,10.1373,10.3578,10.3283,10.3613,10.4433,10.6109,10.7485,10.8612,10.9101,10.8682,10.8093,10.7709,11.1511,11.3689,11.2591,11.6394,11.8402,11.7015,11.6812,11.6507,11.5794,11.5693,11.5391,11.4613,11.4511,11.4105,11.3395,11.4072,11.4072,11.3395,11.3327,11.2921,11.2279,11.3699,11.3496,11.2212,11.1608,11.2196,11.3475,11.3795,11.5318,11.7289,11.7385,11.7409,11.7291,11.7181,11.7204,11.7094,11.7094,11.7608,11.8195,11.8195,11.7718,11.7181,11.8012,11.8195,11.8416,11.9297,12.0715,12.2086,12.3114,12.3885,12.4693,12.55,12.5709,12.5709,12.5709,12.5709,12.5709,12.5709,12.5709,12.5709,12.5709,12.5709,12.5709,12.5709,12.5709,12.5709,12.5709,12.5709,12.5709,12.5709,12.5709,12.5709,12.5819,12.5794,12.5794,12.5929,12.5929,12.5892,12.5794,12.5684,12.5722,12.5808,12.5808,12.5894,12.598,12.6115,12.6504,12.7419,12.8508,12.9491,5.7597,6.2767,6.895,8.1385,9.03,9.7267,10.2006,10.3393,10.2215,9.7078,10.1599,10.5517,10.2218,10.4684,10.7096,10.6498,10.7485,10.8313,10.7874,10.7695,10.7979,10.921,11.1282,11.3275,11.481,11.642,11.7285,11.6913,11.6406,11.6,11.5794,11.5289,11.4613,11.3902,11.3329,11.2583,11.1873,11.2008,11.2008,11.1873,11.1298,11.0925,11.079,11.1095,11.0825,10.998,11.099,11.1601,11.2074,11.4604,11.6303,11.7395,11.7888,11.8215,11.8085,11.7401,11.6801,11.6287,11.6287,11.6397,11.6507,11.6507,11.6397,11.6397,11.7204,11.7021,11.6911,11.9003,11.9908,12.0581,12.271,12.3885,12.4693,12.55,12.5709,12.5709,12.5709,12.5709,12.5709,12.5709,12.5709,12.5709,12.5709,12.5709,12.5709,12.5709,12.5709,12.5709,12.5709,12.5709,12.5709,12.5709,12.5709,12.6002,12.6601,12.6601,12.6895,12.7482,12.7592,12.7299,12.6711,12.5977,12.6101,12.6898,12.6884,12.7311,12.8115,12.8698,12.8799,12.8396,13.081,13.1296,6.0076,6.6531,7.3888,8.8646,9.7132,10.2309,10.3997,10.4894,10.4511,10.1209,10.4696,10.7614,10.5079,10.6914,10.8503,10.7485,10.7714,10.7665,10.7007,10.6569,10.7104,10.8704,11.0627,11.2487,11.4507,11.6019,11.6609,11.5898,11.5492,11.512,11.4816,11.4004,11.3293,11.2583,11.1805,11.1095,11.0419,11.0689,11.0689,11.0283,10.9606,10.8794,10.8219,10.9302,11.0086,11.079,11.1191,11.2303,11.3819,11.5396,11.6607,11.7302,11.7715,11.7608,11.7204,11.6801,11.6397,11.5993,11.5993,11.5993,11.5993,11.5993,11.5993,11.6177,11.7021,11.6911,11.6984,11.9003,12.0201,12.1205,12.2894,12.4179,12.5195,12.5598,12.5709,12.5709,12.5709,12.5709,12.5709,12.5709,12.5709,12.5709,12.5709,12.5709,12.5709,12.5709,12.5709,12.5709,12.5709,12.5709,12.5709,12.5709,12.5709,12.5977,12.6822,12.6895,12.7189,12.7996,12.8106,12.7886,12.7482,12.7611,12.7486,12.7224,12.7187,12.7913,12.9324,12.9777,13.019,13.06,13.1986,13.2302,6.0748,6.9984,8.0161,9.5241,10.159,10.3984,10.3578,10.4385,10.5372,10.6109,10.7725,10.8892,10.8293,10.8682,10.8802,10.7994,10.7396,10.6797,10.609,10.56,10.5991,10.8089,10.9885,11.1815,11.3698,11.5403,11.5797,11.4579,11.4376,11.4107,11.3429,11.2685,11.1873,11.0993,11.0418,10.9775,10.8997,10.9708,10.9674,10.8828,10.7881,10.6798,10.5682,10.761,10.9706,11.1921,11.1578,11.3011,11.5675,11.6007,11.6512,11.7204,11.6998,11.669,11.6213,11.6126,11.5993,11.5993,11.5993,11.5993,11.5993,11.5993,11.5993,11.6177,11.7021,11.7071,11.7388,11.9076,12.0508,12.1683,12.3004,12.4289,12.5415,12.5573,12.5709,12.5709,12.5709,12.5709,12.5709,12.5709,12.5709,12.5709,12.5709,12.5709,12.5709,12.5709,12.5709,12.5709,12.5709,12.5709,12.5709,12.5709,12.5709,12.6112,12.7005,12.7115,12.7519,12.8499,12.851,12.851,12.851,12.9488,12.9496,12.8124,12.8091,12.9009,13.0709,13.0916,13.1604,13.2989,13.3104,13.3119,5.6684,7.1662,8.738,9.8385,10.192,10.2997,10.4014,10.4403,10.4732,10.5421,10.6707,10.7605,10.7624,10.7605,10.7276,10.6019,10.5671,10.5372,10.4792,10.4613,10.6089,11.0303,11.0501,11.1606,11.5191,11.4601,11.4004,11.3801,11.3228,11.2788,11.272,11.1906,11.0892,10.9505,10.9404,10.8997,10.8219,10.8896,10.8591,10.717,10.5783,10.5005,10.4903,10.5208,10.6905,10.9726,11.091,11.251,11.4082,11.5506,11.6491,11.7108,11.6397,11.6507,11.7021,11.6287,11.5993,11.5993,11.5993,11.5993,11.5993,11.5993,11.5993,11.6177,11.7021,11.669,11.6617,11.9027,11.9297,11.959,12.2527,12.3518,12.3995,12.5415,12.5709,12.5709,12.5709,12.5709,12.5709,12.5709,12.5709,12.5709,12.5709,12.5709,12.5709,12.5709,12.5709,12.5709,12.5709,12.5709,12.5709,12.5709,12.5709,12.6296,12.7813,12.7886,12.8583,13.0088,13.0199,13.0199,13.0199,13.118,13.1794,13.1693,13.1895,13.2505,13.3708,13.4399,13.4492,13.4112,13.4804,13.4409,5.8982,7.3816,8.7742,9.4295,9.8917,10.2189,10.3117,10.3595,10.3924,10.4176,10.4984,10.581,10.6199,10.6288,10.5989,10.5002,10.4774,10.4613,10.3924,10.4892,10.6819,10.9726,11.0468,11.2009,11.4897,11.3801,11.2786,11.2414,11.1703,11.1095,11.0723,10.9911,10.92,10.8524,10.8084,10.7712,10.7407,10.7306,10.6494,10.5005,10.4396,10.4125,10.4125,10.4125,10.6216,10.9897,11.0103,11.2017,11.4996,11.5212,11.581,11.6507,11.6103,11.6213,11.6507,11.6103,11.5993,11.5993,11.5993,11.5993,11.5993,11.5993,11.5993,11.6177,11.7021,11.6617,11.6507,11.8893,11.9297,11.97,12.26,12.3591,12.4289,12.539,12.5709,12.5709,12.5709,12.5709,12.5709,12.5709,12.5709,12.5709,12.5709,12.5709,12.5709,12.5709,12.5709,12.5709,12.5709,12.5709,12.5709,12.5709,12.6196,12.7213,12.8902,12.9489,13.0688,13.28,13.2395,13.2285,13.2791,13.3815,13.4388,13.4493,13.3788,13.3914,13.4988,13.5295,13.5603,13.5719,13.6103,13.5603,6.09,7.233,8.2293,8.8897,9.4769,9.9548,10.1677,10.2817,10.3386,10.3206,10.3715,10.4284,10.4613,10.4894,10.4894,10.4284,10.4086,10.3924,10.3296,10.5133,10.7105,10.8693,11.0385,11.1988,11.3689,11.2685,11.1602,11.0892,10.9978,10.92,10.8591,10.7881,10.7407,10.7204,10.6595,10.6291,10.6291,10.5614,10.4701,10.3585,10.3415,10.3314,10.328,10.3698,10.5991,10.9804,10.9288,11.1523,11.5296,11.4708,11.4818,11.5406,11.5406,11.5479,11.5699,11.5699,11.581,11.5993,11.5993,11.5993,11.5993,11.5993,11.5993,11.6103,11.669,11.6507,11.6507,11.8673,11.9297,11.9884,12.238,12.3591,12.4399,12.5195,12.5598,12.5709,12.5709,12.5709,12.5709,12.5709,12.5709,12.5709,12.5709,12.5709,12.5709,12.5709,12.5709,12.5709,12.5709,12.5709,12.5709,12.5709,12.6824,12.8103,12.9593,13.0787,13.2494,13.4816,13.3891,13.3881,13.5324,13.6009,13.6593,13.6827,13.5895,13.5615,13.618,13.5911,13.618,13.6796,13.6411,13.5911,5.9777,6.4165,6.9609,8.4242,8.996,9.3674,10.0134,10.2488,10.3189,10.2698,10.3027,10.3296,10.2728,10.3625,10.4224,10.3595,10.3506,10.3189,10.2608,10.4491,10.6387,10.7886,10.9987,11.1391,11.1595,11.0892,11.0114,10.9404,10.7881,10.7103,10.7001,10.6291,10.558,10.4903,10.4802,10.4769,10.4769,10.4092,10.3686,10.3585,10.2908,10.2603,10.2602,10.3898,10.5884,10.8182,10.8926,11.0887,11.3681,11.3703,11.3703,11.3681,11.3681,11.4194,11.4892,11.4892,11.5296,11.5993,11.5993,11.5993,11.5993,11.5993,11.5993,11.5993,11.5993,11.5993,11.6287,11.8012,11.8489,11.9003,12.1499,12.2784,12.3591,12.4399,12.5096,12.5709,12.5709,12.5709,12.5709,12.5709,12.5709,12.5709,12.5709,12.5709,12.5709,12.5709,12.5709,12.5709,12.5709,12.5709,12.5709,12.5709,12.7292,12.8796,12.9593,13.1275,13.3098,13.4816,13.3891,13.4486,13.7091,13.7305,13.7774,13.8792,13.9,13.8679,13.8001,13.7103,13.6796,13.6796,13.5218,13.4795,5.4609,6.012,6.6099,7.379,8.0035,8.5518,9.0342,9.4234,9.7103,9.813,10.0687,10.2787,10.2518,10.2877,10.3087,10.2877,10.2817,10.2608,10.189,10.3803,10.5512,10.6514,10.8691,11.0201,11.0683,11.0012,10.9099,10.7779,10.6798,10.5986,10.5479,10.5208,10.5005,10.47,10.47,10.4497,10.399,10.3686,10.3382,10.2908,10.2096,10.1792,10.179,10.1814,10.32,10.581,10.6093,10.8997,11.3593,11.2983,11.3093,11.3593,11.3593,11.3813,11.4011,11.4011,11.4194,11.4488,11.5075,11.5185,11.5296,11.581,11.5993,11.5993,11.5993,11.5993,11.6287,11.7902,11.8783,11.959,12.1597,12.271,12.3518,12.4289,12.4693,12.5121,12.5598,12.5709,12.5709,12.5709,12.5709,12.5709,12.5709,12.5709,12.5709,12.5709,12.5709,12.5709,12.5709,12.5709,12.5929,12.6381,12.8304,12.9984,13.1299,13.3217,13.4789,13.5913,13.6105,13.6486,13.7382,13.8608,13.9404,13.9791,13.9519,13.8911,13.8117,13.718,13.6796,13.6796,13.618,13.6103,5.1319,5.6114,6.1577,6.6934,7.2412,7.7966,8.3494,8.8581,9.2688,9.4547,9.8638,10.18,10.18,10.2009,10.2206,10.2206,10.1979,10.159,10.0902,10.3294,10.5205,10.5191,10.7809,10.9605,10.9502,10.8896,10.7881,10.6595,10.5614,10.4802,10.4395,10.4092,10.4023,10.4023,10.4023,10.3686,10.3212,10.3212,10.2908,10.2096,10.1589,10.1316,10.0978,10.1417,10.2699,10.4623,10.5496,10.8401,11.2418,11.1808,11.2102,11.28,11.28,11.3006,11.3203,11.3203,11.3409,11.3703,11.4194,11.4415,11.4488,11.5296,11.5589,11.5589,11.5883,11.6213,11.669,11.8012,11.9003,11.9884,12.1279,12.2307,12.3114,12.3885,12.4289,12.4582,12.5195,12.55,12.5709,12.5709,12.5709,12.5709,12.5709,12.5709,12.5709,12.5709,12.5709,12.5709,12.5709,12.5709,12.6004,12.6923,12.8982,13.0985,13.2415,13.4579,13.6286,13.7006,13.721,13.7597,13.8384,13.9312,14.0095,14.0823,14.0109,13.9212,13.8013,13.6809,13.6311,13.6311,13.6018,13.599,0.0,0.0,0.0,6.4283,6.7708,7.1259,8.0219,8.6029,9.016,9.2232,9.6699,10.0304,10.0393,10.1008,10.1397,10.1397,10.0918,10.0214,9.9556,10.3099,10.5208,10.3882,10.7482,10.9605,10.8084,10.7306,10.6595,10.5817,10.4396,10.3585,10.3585,10.2908,10.2502,10.2502,10.2502,10.2502,10.2502,10.2502,10.2096,10.1418,10.1418,10.0912,10.0296,10.3078,10.4411,10.4596,10.7398,10.9107,10.99,10.9995,11.0487,11.1221,11.1221,11.1698,11.2396,11.2396,11.2895,11.3497,11.3593,11.3593,11.3681,11.4488,11.4818,11.5002,11.581,11.6617,11.7425,11.8195,11.9003,11.9811,12.0691,12.1499,12.2196,12.3004,12.3812,12.4399,12.4509,12.5096,12.5709,12.5709,12.5709,12.5709,12.5709,12.5709,12.5709,12.5709,12.5709,12.5709,12.5709,12.5709,12.6089,12.7092,12.9585,13.1621,13.2705,13.5194,13.7103,13.8,13.699,13.7716,14.0396,13.9592,13.9889,14.1898,14.1014,13.961,13.782,13.6126,13.5216,13.5106,13.4377,13.4603,5.0712,0.0,0.0,0.0,0.0,0.0,7.051,7.4895,7.9658,8.7151,9.1322,9.4755,9.8403,9.8808,9.8598,9.8598,9.9256,9.9376,9.8209,10.0398,10.2103,10.2318,10.5105,10.7089,10.7204,10.7001,10.6426,10.5073,10.4092,10.3382,10.2806,10.2603,10.2502,10.2502,10.2502,10.2502,10.2502,10.2502,10.2096,10.1418,10.0811,10.0069,9.9452,10.0707,10.1918,10.2887,10.4816,10.6601,10.838,10.9518,11.0083,11.0377,11.1001,11.1272,11.1515,11.1515,11.1698,11.1919,11.2506,11.3093,11.3681,11.4488,11.5185,11.581,11.6617,11.6998,11.7498,11.8893,11.9884,12.0581,12.0802,12.0581,12.0508,12.1389,12.2196,12.3077,12.4215,12.5096,12.5709,12.5709,12.5709,12.5709,12.5709,12.5709,12.5709,12.5709,12.5709,12.5709,12.5709,12.5709,12.631,12.7889,12.9923,13.1924,13.3489,13.5616,13.6618,13.6011,13.7,13.7911,13.8481,13.9622,14.0704,14.1912,13.9692,13.8278,13.782,13.6698,13.5391,13.4083,13.4589,13.5018,0.0,0.0,5.415,5.6184,0.0,0.0,6.5172,6.9161,7.4064,8.2161,8.6259,8.9518,9.3209,9.3575,9.3485,9.4094,9.5058,9.6181,9.7335,9.954,10.1302,10.1967,10.43,10.6002,10.6393,10.5885,10.5174,10.4295,10.3585,10.2976,10.2502,10.2502,10.2502,10.2502,10.2198,10.1995,10.1995,10.1724,10.1183,10.0405,9.9965,9.9356,9.8674,10.0314,10.1414,10.2311,10.4297,10.5918,10.7205,10.849,10.9408,11.001,11.0487,11.0891,11.1221,11.1221,11.1221,11.1295,11.1698,11.2396,11.3203,11.4011,11.4818,11.5699,11.6911,11.7401,11.8012,11.9187,11.9994,12.0398,12.0398,11.97,11.9187,11.97,12.0691,12.1903,12.3188,12.4399,12.528,12.5573,12.5709,12.5709,12.5709,12.5709,12.5808,12.6328,12.6325,12.6513,12.6906,12.7011,12.7488,12.8995,13.0511,13.1917,13.3508,13.5208,13.6006,13.5397,13.672,13.7798,13.8399,13.9499,14.0489,14.1296,13.9286,13.7484,13.5994,13.5086,13.4096,13.3016,13.3605,13.4188,0.0,0.0,0.0,5.6278,5.7161,0.0,6.2945,6.6743,7.1133,7.7278,8.0933,8.3799,8.6144,8.6556,8.698,8.8214,8.9449,9.1932,9.6706,9.9568,10.1473,10.2501,10.4228,10.5381,10.5716,10.4396,10.3585,10.3585,10.2908,10.2502,10.2502,10.2401,10.2401,10.2401,10.1722,10.1316,10.1316,10.0608,9.9829,9.9085,9.9085,9.8679,9.796,10.0897,10.2207,10.2195,10.5117,10.6376,10.6507,10.7205,10.8416,10.9811,10.99,11.0414,11.1111,11.1221,11.1221,11.1221,11.1221,11.1698,11.2506,11.3277,11.4084,11.5112,11.6704,11.7718,11.8416,11.9187,11.948,11.9407,11.9394,11.8783,11.8306,11.8306,11.948,12.0875,12.1817,12.3212,12.4509,12.5415,12.5573,12.5709,12.5709,12.5796,12.6209,12.7107,12.7296,12.7705,12.8588,12.8702,12.9108,13.0103,13.0999,13.1911,13.2897,13.4487,13.5488,13.5488,13.6296,13.7488,13.9104,13.9219,13.9604,14.0412,13.9286,13.6997,13.3397,13.2408,13.1898,13.1898,13.1976,13.271,0.0,0.0,0.0,5.6642,5.7668,0.0,6.2184,6.3037,6.5145,7.2158,7.3264,7.4534,7.978,8.0753,8.0919,8.1526,8.5317,9.0193,9.5965,9.7292,9.8684,10.1501,10.2216,10.3084,10.4805,10.4092,10.3585,10.3585,10.2908,10.2502,10.2502,10.1893,10.1589,10.1589,10.0811,10.0407,10.0407,10.0303,9.9829,9.9085,9.9085,9.8375,9.7245,10.061,10.1879,10.1527,10.4898,10.6376,10.6376,10.6617,10.7205,10.8196,10.9518,11.0083,11.0304,11.1001,11.1221,11.1221,11.1221,11.1698,11.2506,11.3277,11.4084,11.5112,11.6704,11.7291,11.7608,11.8416,11.8599,11.8489,11.7828,11.7608,11.7401,11.7401,11.8195,11.9297,12.0802,12.1903,12.3028,12.4497,12.5305,12.5709,12.5709,12.641,12.6996,12.7202,12.7895,12.8511,12.8721,12.8702,12.9108,13.0103,13.0999,13.1911,13.2897,13.4487,13.5488,13.5488,13.6296,13.7296,13.8296,13.8296,13.8681,13.9475,13.7893,13.5901,13.3611,13.1706,13.0803,13.0791,13.1693,13.2308,5.4216,0.0,0.0,5.7045,5.7796,0.0,0.0,6.1494,6.2803,6.8647,6.8464,6.853,7.2701,7.3309,7.3732,7.5476,7.8842,8.3141,8.8679,9.4484,9.9252,10.2176,10.2589,10.3028,10.4094,10.3483,10.2908,10.2502,10.2196,10.1792,10.1419,10.1014,10.0811,10.0811,10.01,9.966,9.966,9.9288,9.8747,9.8003,9.8003,9.7786,9.7423,9.9892,10.1385,10.2201,10.4692,10.6009,10.6376,10.6376,10.6596,10.7205,10.882,10.9606,11.0083,11.0891,11.1221,11.1221,11.1221,11.1698,11.2506,11.2873,11.3791,11.5002,11.6213,11.7204,11.7902,11.8306,11.8122,11.7718,11.7291,11.6911,11.6617,11.6617,11.7589,11.901,12.0585,12.199,12.3419,12.502,12.5988,12.6483,12.6509,12.6898,12.75,12.8493,12.9106,12.9577,13.0097,13.0198,13.0392,13.0907,13.1295,13.1794,13.2308,13.3487,13.4295,13.4295,13.5103,13.6103,13.7411,13.7501,13.7595,13.7899,13.6603,13.4907,13.3097,13.242,13.182,13.13,13.2008,13.2126,5.5615,5.5551,5.5986,0.0,0.0,5.8677,0.0,0.0,0.0,6.5089,6.4526,6.4007,6.5992,6.6109,6.6738,6.9307,7.2098,7.5419,7.9601,8.9303,9.6999,9.9713,10.0011,10.0379,10.1503,10.1596,10.1487,10.1183,10.0878,10.0608,10.0204,10.01,9.9899,9.9764,9.9051,9.8612,9.8476,9.8276,9.7817,9.7099,9.7499,9.7809,9.8045,9.958,10.1125,10.2706,10.418,10.5385,10.6119,10.6119,10.6192,10.6486,10.7991,10.9092,10.9922,11.0707,11.1111,11.1221,11.1221,11.1588,11.2212,11.2286,11.3497,11.4892,11.5589,11.6801,11.7902,11.7792,11.7388,11.6911,11.6617,11.6287,11.5989,11.5995,11.7207,11.8883,12.0693,12.211,12.3591,12.5609,12.6401,12.6815,12.721,12.7514,12.8318,12.999,13.0414,13.0782,13.1615,13.1602,13.1487,13.1487,13.1487,13.1487,13.1487,13.241,13.3,13.3,13.3795,13.4988,13.6488,13.668,13.6601,13.6307,13.5587,13.4507,13.3,13.3493,13.3209,13.1918,13.219,13.2004,5.7812,5.7918,5.8183,0.0,5.9632,6.0013,5.9285,0.0,5.9942,5.9742,0.0,6.0171,6.1075,0.0,0.0,6.2094,6.7106,7.1317,7.2484,7.8602,8.4033,8.6942,8.7078,8.8854,9.3733,9.6835,9.9018,10.0204,9.9153,9.8916,10.0102,9.9593,9.8916,9.8273,9.7529,9.6819,9.6176,9.8008,9.8495,9.7707,9.9618,9.9848,9.8652,10.0697,10.1393,10.1081,10.3105,10.4504,10.518,10.518,10.5715,10.6486,10.7388,10.8175,10.9019,10.979,11.0597,11.1221,11.1221,11.1295,11.1515,11.2212,11.3497,11.4818,11.4892,11.5589,11.6103,11.5406,11.5699,11.581,11.4401,11.5002,11.6009,11.6124,11.6898,11.8208,12.07,12.0785,12.1384,12.4477,12.461,12.4799,12.7005,12.8794,12.9881,13.0204,13.1002,13.159,13.1705,13.1102,13.0602,13.0602,13.0602,13.0602,13.0602,13.2115,13.3,13.3,13.3795,13.4718,13.5603,13.6411,13.641,13.5599,13.5523,13.5405,13.5079,13.4503,13.3201,13.1223,13.2001,13.2001,6.1842,6.2982,6.3597,0.0,0.0,0.0,5.9191,0.0,5.8482,5.8046,0.0,0.0,0.0,0.0,0.0,0.0,6.2256,6.4825,6.5861,6.8941,7.4345,8.3038,8.3923,8.5784,9.0618,9.1137,9.237,9.5234,9.4177,9.4012,9.5363,9.6153,9.6616,9.6717,9.6413,9.6108,9.5804,9.7466,9.7924,9.719,9.8858,9.9502,9.9205,10.0076,10.0998,10.1891,10.2793,10.3696,10.4394,10.4887,10.529,10.5715,10.6617,10.7425,10.8306,10.9496,11.0193,11.0597,11.1001,11.1221,11.1295,11.2102,11.291,11.3497,11.3974,11.4305,11.4488,11.4194,11.4305,11.4511,11.3813,11.4415,11.5502,11.6103,11.719,11.8912,12.1504,12.2283,12.2899,12.4885,12.5725,12.6283,12.6894,12.8406,12.9781,13.0902,13.1421,13.1679,13.1679,13.0987,13.0487,13.0487,12.9987,12.9987,13.0487,13.1102,13.1679,13.2179,13.3103,13.368,13.3987,13.4911,13.5218,13.4795,13.4795,13.4603,13.3987,13.4218,13.3283,13.1514,13.2294,13.2292,6.5361,0.0,0.0,0.0,0.0,0.0,0.0,0.0,0.0,5.7625,5.7508,0.0,0.0,0.0,5.7472,5.7956,0.0,5.9958,6.1145,6.2227,6.665,7.6724,7.9255,8.1425,8.4725,8.4564,8.5699,8.9194,8.8542,8.8998,9.1274,9.2655,9.3922,9.5161,9.5544,9.5745,9.5716,9.7645,9.8244,9.7499,9.884,9.9565,9.9694,9.9513,10.04,10.2008,10.2008,10.2595,10.3586,10.4394,10.4887,10.518,10.6082,10.6911,10.7792,10.9187,10.9995,11.0414,11.1001,11.1221,11.1295,11.1919,11.2212,11.2506,11.3116,11.3387,11.3593,11.3277,11.3387,11.3519,11.3116,11.389,11.5115,11.6022,11.7593,11.951,12.2197,12.3113,12.3716,12.4793,12.5986,12.6794,12.6678,12.8186,12.9806,13.1192,13.1602,13.1679,13.1679,13.0987,13.0487,13.0487,12.991,12.9717,13.0102,13.0602,13.1102,13.1679,13.2487,13.2885,13.2692,13.368,13.4218,13.391,13.391,13.3603,13.3,13.341,13.291,13.1679,13.2615,13.248,0.0,0.0,0.0,6.8129,0.0,0.0,0.0,0.0,5.9085,0.0,0.0,5.8251,5.6939,5.6488,5.6557,0.0,5.7622,0.0,0.0,5.9624,6.1044,6.423,6.9233,7.2638,7.32,7.6883,8.0332,8.2916,8.281,8.4751,8.962,8.9918,9.1107,9.3571,9.4866,9.5514,9.5522,9.8892,10.0214,9.9443,10.0803,10.101,10.0186,9.9452,9.9582,10.0393,10.0393,10.131,10.2815,10.3586,10.4394,10.518,10.6082,10.6911,10.7719,10.8505,10.979,11.1221,11.1221,11.1221,11.1221,11.1199,11.1808,11.2396,11.2396,11.3006,11.3387,11.2689,11.2983,11.3203,11.1698,11.3109,11.5107,11.6215,11.7699,11.9614,12.2317,12.2281,12.2189,12.3793,12.4216,12.4716,12.6409,12.8782,13.05,13.0487,13.1179,13.1679,13.1679,13.0987,13.0487,13.0487,13.0487,13.0102,12.9294,13.0718,13.1679,13.1679,13.2487,13.2615,13.1795,13.341,13.391,13.3115,13.3,13.3,13.3,13.2179,13.1795,13.1679,13.2615,13.2487,0.0,0.0,7.9268,7.6514,0.0,0.0,0.0,0.0,0.0,0.0,0.0,0.0,0.0,0.0,0.0,0.0,0.0,5.6594,0.0,5.7873,5.8381,5.9335,6.3503,6.7346,6.9943,7.0349,7.2456,7.7258,7.6908,7.877,8.41,8.5967,8.8481,9.1981,9.2946,9.412,9.5472,9.7557,9.8907,9.952,10.0908,10.111,10.0283,10.0576,10.0503,10.0319,10.0927,10.1714,10.2815,10.3586,10.4394,10.518,10.6082,10.6911,10.7719,10.8505,10.9496,11.0487,11.1001,11.1221,11.1221,11.1221,11.1405,11.1588,11.1588,11.1808,11.1992,11.1698,11.1808,11.1919,11.1272,11.3113,11.5203,11.6192,11.8088,12.0306,12.238,12.2716,12.2601,12.3216,12.3716,12.4293,12.4909,12.6678,12.8602,13.0217,13.0718,13.1102,13.1602,13.0487,12.9602,12.9602,12.8602,12.8102,12.8282,12.991,13.091,13.091,13.1179,13.15,13.1679,13.1795,13.191,13.2102,13.2102,13.2102,13.2102,13.1795,13.1679,13.1679,13.1987,13.1987,7.9004,8.2308,0.0,8.2085,7.9852,0.0,7.065,0.0,6.5515,0.0,0.0,0.0,0.0,0.0,0.0,0.0,0.0,0.0,0.0,5.669,5.6892,5.6595,5.964,6.2743,6.5275,6.4967,6.6639,7.1684,7.1698,7.4108,8.0091,8.2207,8.537,8.9985,9.1574,9.3436,9.5821,9.7382,9.8854,10.0209,10.0509,10.0393,9.9879,9.9805,9.9805,9.9916,10.0393,10.131,10.2375,10.3476,10.421,10.4798,10.5899,10.6911,10.7719,10.8505,10.9496,11.0487,11.0707,11.1001,11.1221,11.1221,11.1221,11.1221,11.1221,11.1221,11.1295,11.1919,11.1625,11.1383,11.231,11.3612,11.4998,11.6513,11.8398,12.0311,12.2094,12.2408,12.2408,12.2408,12.3101,12.3793,12.4101,12.5293,12.7101,12.9679,13.0294,13.0794,13.1602,13.0487,12.9717,12.9717,12.8409,12.7794,12.8282,12.9102,12.9717,12.9987,12.9987,13.041,13.1179,13.0487,13.0987,13.2987,13.1602,13.1602,13.2987,13.191,13.141,13.1679,13.1679,13.1679]}]]